[[{"header":{"parameterUnit":"m.s-1","parameterCategory":1,"la1":30.6,"la2":28.766,"lo1":-90.7593,"lo2":-88.6598,"dy":0.0162,"dx":0.0183,"nx":116,"ny":114,"refTime":"2023-11-21T18:00:00:Z","depth":0,"parameterNumber":2,"parameterNumberName":"U-component_of_WINDS"},"data":[0.0,0.0,0.0,0.0,0.0,0.0,0.0,0.0,0.0,0.0,0.0,0.0,0.0,0.0,0.0,0.0,0.0,0.0,0.0,0.0,0.0,0.0,0.0,0.0,0.0,0.0,0.0,0.0,0.0,0.0,0.0,0.0,0.0,0.0,0.0,0.0,0.0,0.0,0.0,0.0,0.0,0.0,0.0,0.0,0.0,0.0,0.0,0.0,0.0,0.0,0.0,0.0,0.0,0.0,0.0,0.0,0.0,0.0,0.0,0.0,0.0,0.0,0.0,0.0,0.0,0.0,0.0,0.0,0.0,0.0,0.0,0.0,0.0,0.0,0.0,0.0,0.0,0.0,0.0,0.0,0.0,0.0,0.0,0.0,0.0,0.0,0.0,0.0,0.0,0.0,0.0,0.0,0.0,0.0,0.0,0.0,0.0,0.0,0.0,0.0,0.0,0.0,0.0,0.0,0.0,0.0,0.0,0.0,0.0,0.0,0.0,0.0,0.0,0.0,0.0,0.0,0.0,0.0,0.0,0.0,0.0,0.0,0.0,0.0,0.0,0.0,0.0,0.0,0.0,0.0,0.0,0.0,0.0,0.0,0.0,0.0,0.0,0.0,0.0,0.0,0.0,0.0,0.0,0.0,0.0,0.0,0.0,0.0,0.0,0.0,0.0,0.0,0.0,0.0,0.0,0.0,0.0,0.0,0.0,0.0,0.0,0.0,0.0,0.0,0.0,0.0,0.0,0.0,0.0,0.0,0.0,0.0,0.0,0.0,0.0,0.0,0.0,0.0,0.0,0.0,0.0,0.0,0.0,0.0,0.0,0.0,0.0,0.0,0.0,0.0,0.0,0.0,0.0,0.0,0.0,0.0,0.0,0.0,0.0,0.0,0.0,0.0,0.0,0.0,0.0,0.0,0.0,0.0,0.0,0.0,0.0,0.0,0.0,0.0,0.0,0.0,0.0,0.0,0.0,0.0,0.0,0.0,0.0,0.0,0.0,0.0,0.0,0.0,0.0,0.0,0.0,0.0,0.0,0.0,0.0,0.0,0.0,0.0,0.0,0.0,0.0,0.0,0.0,0.0,0.0,0.0,0.0,0.0,0.0,0.0,0.0,0.0,0.0,0.0,0.0,0.0,0.0,0.0,0.0,0.0,0.0,0.0,0.0,0.0,0.0,0.0,0.0,0.0,0.0,0.0,0.0,0.0,0.0,0.0,0.0,0.0,0.0,0.0,0.0,0.0,0.0,0.0,0.0,0.0,0.0,0.0,0.0,0.0,0.0,0.0,0.0,0.0,0.0,0.0,0.0,0.0,0.0,0.0,0.0,0.0,0.0,0.0,0.0,0.0,0.0,0.0,0.0,0.0,0.0,0.0,0.0,0.0,0.0,0.0,0.0,0.0,0.0,0.0,0.0,0.0,0.0,0.0,0.0,0.0,0.0,0.0,0.0,0.0,0.0,0.0,0.0,0.0,0.0,0.0,0.0,0.0,0.0,0.0,0.0,0.0,0.0,0.0,0.0,0.0,0.0,0.0,0.0,0.0,0.0,0.0,0.0,0.0,0.0,0.0,0.0,0.0,0.0,0.0,0.0,0.0,0.0,0.0,0.0,0.0,0.0,0.0,0.0,0.0,0.0,0.0,0.0,0.0,0.0,0.0,0.0,0.0,0.0,0.0,0.0,0.0,0.0,0.0,0.0,0.0,0.0,0.0,0.0,0.0,0.0,0.0,0.0,0.0,0.0,0.0,0.0,0.0,0.0,0.0,0.0,0.0,0.0,0.0,0.0,0.0,0.0,0.0,0.0,0.0,0.0,0.0,0.0,0.0,0.0,0.0,0.0,0.0,0.0,0.0,0.0,0.0,0.0,0.0,0.0,0.0,0.0,0.0,0.0,0.0,0.0,0.0,0.0,0.0,0.0,0.0,0.0,0.0,0.0,0.0,0.0,0.0,0.0,0.0,0.0,0.0,0.0,0.0,0.0,0.0,0.0,0.0,0.0,0.0,0.0,0.0,0.0,0.0,0.0,0.0,0.0,0.0,0.0,0.0,0.0,0.0,0.0,0.0,0.0,0.0,0.0,0.0,0.0,0.0,0.0,0.0,0.0,0.0,0.0,0.0,0.0,0.0,0.0,0.0,0.0,0.0,0.0,0.0,0.0,0.0,0.0,0.0,0.0,0.0,0.0,0.0,0.0,0.0,0.0,0.0,0.0,0.0,0.0,0.0,0.0,0.0,0.0,0.0,0.0,0.0,0.0,0.0,0.0,0.0,0.0,0.0,0.0,0.0,0.0,0.0,0.0,0.0,0.0,0.0,0.0,0.0,0.0,0.0,0.0,0.0,0.0,0.0,0.0,0.0,0.0,0.0,0.0,0.0,0.0,0.0,0.0,0.0,0.0,0.0,0.0,0.0,0.0,0.0,0.0,0.0,0.0,0.0,0.0,0.0,0.0,0.0,0.0,0.0,0.0,0.0,0.0,0.0,0.0,0.0,0.0,0.0,0.0,0.0,0.0,0.0,0.0,0.0,0.0,0.0,0.0,0.0,0.0,0.0,0.0,0.0,0.0,0.0,0.0,0.0,0.0,0.0,0.0,0.0,0.0,0.0,0.0,0.0,0.0,0.0,0.0,0.0,0.0,0.0,0.0,0.0,0.0,0.0,0.0,0.0,0.0,0.0,0.0,0.0,0.0,0.0,0.0,0.0,0.0,0.0,0.0,0.0,0.0,0.0,0.0,0.0,0.0,0.0,0.0,0.0,0.0,0.0,0.0,0.0,0.0,0.0,0.0,0.0,0.0,0.0,0.0,0.0,0.0,0.0,0.0,0.0,0.0,0.0,0.0,0.0,0.0,0.0,0.0,0.0,0.0,0.0,0.0,0.0,0.0,0.0,0.0,0.0,0.0,0.0,0.0,0.0,0.0,0.0,0.0,0.0,0.0,0.0,0.0,0.0,0.0,0.0,0.0,0.0,0.0,0.0,0.0,0.0,0.0,0.0,0.0,0.0,0.0,0.0,0.0,0.0,0.0,0.0,0.0,0.0,0.0,0.0,0.0,0.0,0.0,0.0,0.0,0.0,0.0,0.0,0.0,0.0,0.0,0.0,0.0,0.0,0.0,0.0,0.0,0.0,0.0,0.0,0.0,0.0,0.0,0.0,0.0,0.0,0.0,0.0,0.0,0.0,0.0,0.0,0.0,0.0,0.0,0.0,0.0,0.0,0.0,0.0,0.0,0.0,0.0,0.0,0.0,0.0,0.0,0.0,0.0,0.0,0.0,0.0,0.0,0.0,0.0,0.0,0.0,0.0,0.0,0.0,0.0,0.0,0.0,0.0,0.0,0.0,0.0,0.0,0.0,0.0,0.0,0.0,0.0,0.0,0.0,0.0,0.0,0.0,0.0,0.0,0.0,0.0,0.0,0.0,0.0,0.0,0.0,0.0,0.0,0.0,0.0,0.0,0.0,0.0,0.0,0.0,0.0,0.0,0.0,0.0,0.0,0.0,0.0,0.0,0.0,0.0,0.0,0.0,0.0,0.0,0.0,0.0,0.0,0.0,0.0,0.0,0.0,0.0,0.0,0.0,0.0,0.0,0.0,0.0,0.0,0.0,0.0,0.0,0.0,0.0,0.0,0.0,0.0,0.0,0.0,0.0,0.0,0.0,0.0,0.0,0.0,0.0,0.0,0.0,0.0,0.0,0.0,0.0,0.0,0.0,0.0,0.0,0.0,0.0,0.0,0.0,0.0,0.0,0.0,0.0,0.0,0.0,0.0,0.0,0.0,0.0,0.0,0.0,0.0,0.0,0.0,0.0,0.0,0.0,0.0,0.0,0.0,0.0,0.0,0.0,0.0,0.0,0.0,0.0,0.0,0.0,0.0,0.0,0.0,0.0,0.0,0.0,0.0,0.0,0.0,0.0,0.0,0.0,0.0,0.0,0.0,0.0,0.0,0.0,0.0,0.0,0.0,0.0,0.0,0.0,0.0,0.0,0.0,0.0,0.0,0.0,0.0,0.0,0.0,0.0,0.0,0.0,0.0,0.0,0.0,0.0,0.0,0.0,0.0,0.0,0.0,0.0,0.0,0.0,0.0,0.0,0.0,0.0,0.0,0.0,0.0,0.0,0.0,0.0,0.0,0.0,0.0,0.0,0.0,0.0,0.0,0.0,0.0,0.0,0.0,0.0,0.0,0.0,0.0,0.0,0.0,0.0,0.0,0.0,0.0,0.0,0.0,0.0,0.0,0.0,0.0,0.0,0.0,0.0,0.0,0.0,0.0,0.0,0.0,0.0,0.0,0.0,0.0,0.0,0.0,0.0,0.0,0.0,0.0,0.0,0.0,0.0,0.0,0.0,0.0,0.0,0.0,0.0,0.0,0.0,0.0,0.0,0.0,0.0,0.0,0.0,0.0,0.0,0.0,0.0,0.0,0.0,0.0,0.0,0.0,0.0,0.0,0.0,0.0,0.0,0.0,0.0,0.0,0.0,0.0,0.0,0.0,0.0,0.0,0.0,0.0,0.0,0.0,0.0,0.0,0.0,0.0,0.0,0.0,0.0,0.0,0.0,0.0,0.0,0.0,0.0,0.0,0.0,0.0,0.0,0.0,0.0,0.0,0.0,0.0,0.0,0.0,0.0,0.0,0.0,0.0,0.0,0.0,0.0,0.0,0.0,0.0,0.0,0.0,0.0,0.0,0.0,0.0,0.0,0.0,0.0,0.0,0.0,0.0,0.0,0.0,0.0,0.0,0.0,0.0,0.0,0.0,0.0,0.0,0.0,0.0,0.0,0.0,0.0,0.0,0.0,0.0,0.0,0.0,0.0,0.0,0.0,0.0,0.0,0.0,0.0,0.0,0.0,0.0,0.0,0.0,0.0,0.0,0.0,0.0,0.0,0.0,0.0,0.0,0.0,0.0,0.0,0.0,0.0,0.0,0.0,0.0,0.0,0.0,0.0,0.0,0.0,0.0,0.0,0.0,0.0,0.0,0.0,0.0,0.0,0.0,0.0,0.0,0.0,0.0,0.0,0.0,0.0,0.0,0.0,0.0,0.0,0.0,0.0,0.0,0.0,0.0,0.0,0.0,0.0,0.0,0.0,0.0,0.0,0.0,0.0,0.0,0.0,0.0,0.0,0.0,0.0,0.0,0.0,0.0,0.0,0.0,0.0,0.0,0.0,0.0,0.0,0.0,0.0,0.0,0.0,0.0,0.0,0.0,0.0,0.0,0.0,0.0,0.0,0.0,0.0,0.0,0.0,0.0,0.0,0.0,0.0,0.0,0.0,0.0,0.0,0.0,0.0,0.0,0.0,0.0,0.0,0.0,0.0,0.0,0.0,0.0,0.0,0.0,0.0,0.0,0.0,0.0,0.0,0.0,0.0,0.0,0.0,0.0,0.0,0.0,0.0,0.0,0.0,0.0,0.0,0.0,0.0,0.0,0.0,0.0,0.0,0.0,0.0,0.0,0.0,0.0,0.0,0.0,0.0,0.0,0.0,0.0,0.0,0.0,0.0,0.0,0.0,0.0,0.0,0.0,0.0,0.0,0.0,0.0,0.0,0.0,0.0,0.0,0.0,0.0,0.0,0.0,0.0,0.0,0.0,0.0,0.0,0.0,0.0,0.0,0.0,0.0,0.0,0.0,0.0,0.0,0.0,0.0,0.0,0.0,0.0,0.0,0.0,0.0,0.0,0.0,0.0,0.0,0.0,0.0,0.0,0.0,0.0,0.0,0.0,0.0,0.0,0.0,0.0,0.0,0.0,0.0,0.0,0.0,0.0,0.0,0.0,0.0,0.0,0.0,0.0,0.0,0.0,0.0,0.0,0.0,0.0,0.0,0.0,0.0,0.0,0.0,0.0,0.0,0.0,0.0,0.0,0.0,0.0,0.0,0.0,0.0,0.0,0.0,0.0,0.0,0.0,0.0,0.0,0.0,0.0,0.0,0.0,0.0,0.0,0.0,0.0,0.0,0.0,0.0,0.0,0.0,0.0,0.0,0.0,0.0,0.0,0.0,0.0,0.0,0.0,0.0,0.0,0.0,0.0,0.0,0.0,0.0,0.0,0.0,0.0,0.0,0.0,0.0,0.0,0.0,0.0,0.0,0.0,0.0,0.0,0.2006,0.0,0.0,0.0,0.0,0.0,0.0,0.0,0.0,0.0,0.0,0.0,0.0,0.0,0.0,0.0,0.0,0.0,0.0,0.0,0.0,0.0,0.0,0.0,0.0,0.0,0.0,0.0,0.0,0.0,0.0,0.0,0.0,0.0,0.0,0.0,0.0,0.0,0.0,0.0,0.41,0.3587,0.292,0.292,0.292,0.292,0.0,0.0,0.0,0.0,0.0,0.0,0.0,0.0,0.0,0.0,0.0,0.0,0.0,0.0,0.0,0.0,0.0,0.0,0.0,0.0,0.0,0.0,0.0,0.0,0.0,0.0,0.0,0.0,0.0,0.0,0.0,0.0,0.0,0.0,0.0,0.0,0.0,0.0,0.0,0.0,0.0,0.0,0.0,0.0,0.0,0.0,0.0,0.0,0.0,0.0,0.0,0.0,0.0,0.0,0.0,0.0,0.0,0.0,0.0,0.0,0.0,0.0,0.0,0.0,0.0,0.0,0.0,0.0,0.0,0.0,0.0,0.2156,0.0,0.0,0.0,0.0,0.0,0.0,0.0,0.0,0.0,0.0,0.0,0.0,0.0,0.0,0.0,0.0,0.0,0.0,0.0,0.0,0.0,0.0,0.0,0.6105,0.6119,0.6119,0.6257,0.6273,0.6124,0.624,0.6181,0.6059,0.5956,0.5893,0.5874,0.5689,0.5193,0.4431,0.4135,0.3565,0.2722,0.2586,0.2496,0.2496,0.2802,0.0,0.0,0.0,0.0,0.0,0.0,0.0,0.0,0.0,0.0,0.0,0.0,0.0,0.0,0.0,0.0,0.0,0.0,0.0,0.0,0.0,0.0,0.0,0.0,0.0,0.0,0.0,0.0,0.0,0.0,0.0,0.0,0.0,0.0,0.0,0.0,0.0,0.0,0.0,0.0,0.0,0.0,0.0,0.0,0.0,0.0,0.0,0.0,0.0,0.0,0.0,0.0,0.0,0.0,0.0,0.0,0.0,0.0,0.0,0.0,0.0,0.0,0.0,0.2562,0.2493,0.2458,0.2458,0.2601,0.2796,0.2589,0.2517,0.246,0.0,0.0,0.0,0.0,0.0,0.0,0.0,0.0,0.0,0.0,0.0,0.0,0.0,0.0,0.0,0.0,0.0,0.0,0.0,0.0,0.0,0.0,0.6181,0.6292,0.6292,0.6309,0.6311,0.6295,0.6159,0.6053,0.5931,0.5912,0.5855,0.5712,0.5287,0.501,0.4921,0.3464,0.246,0.1937,0.1229,0.0899,0.0945,0.2367,0.3022,0.3026,0.0,0.0,0.0,0.0,0.0,0.0,0.0,0.0,0.0,0.0,0.0,0.0,0.0,0.0,0.0,0.0,0.0,0.0,0.0,0.0,0.0,0.0,0.0,0.0,0.0,0.0,0.0,0.0,0.0,0.0,0.0,0.0,0.0,0.0,0.0,0.0,0.0,0.0,0.0,0.0,0.0,0.3168,0.3168,0.0,0.0,0.0,0.0,0.0,0.0,0.0,0.0,0.0,0.0,0.0,0.0,0.0,0.0,0.2785,0.2981,0.3126,0.3118,0.3118,0.3114,0.3057,0.3057,0.3107,0.3157,0.3123,0.0,0.276,0.2707,0.0,0.0,0.0,0.0,0.0,0.0,0.0,0.0,0.0,0.0,0.0,0.0,0.0,0.0,0.0,0.0,0.0,0.0,0.0,0.0,0.0,0.6274,0.6317,0.6317,0.6254,0.6138,0.6067,0.6013,0.5931,0.5812,0.5809,0.5814,0.5828,0.5006,0.4118,0.3148,0.2152,0.1464,0.1096,0.0763,0.0623,0.0678,0.1391,0.1956,0.2381,0.2905,0.0,0.0,0.0,0.0,0.0,0.0,0.0,0.0,0.0,0.0,0.0,0.0,0.0,0.0,0.0,0.0,0.0,0.0,0.0,0.0,0.0,0.0,0.0,0.0,0.0,0.0,0.0,0.0,0.0,0.0,0.0,0.0,0.0,0.0,0.0,0.0,0.0,0.0,0.0,0.2637,0.28,0.3182,0.3134,0.3086,0.0,0.0,0.0,0.0,0.0,0.0,0.0,0.0,0.0,0.2967,0.3071,0.3123,0.3123,0.3229,0.3316,0.3282,0.3282,0.3212,0.318,0.318,0.318,0.318,0.318,0.288,0.2429,0.2676,0.2585,0.2251,0.0,0.0,0.0,0.0,0.2345,0.2398,0.0,0.0,0.0,0.0,0.0,0.0,0.0,0.0,0.0,0.0,0.0,0.0,0.6344,0.629,0.627,0.627,0.6111,0.5999,0.5909,0.5877,0.5822,0.5694,0.5718,0.5817,0.5901,0.4864,0.3473,0.1726,0.1152,0.0722,0.0339,0.0145,0.0049,0.0099,0.0346,0.0833,0.1594,0.2224,0.2466,0.2321,0.0,0.0,0.0,0.0,0.0,0.0,0.0,0.0,0.0,0.0,0.0,0.0,0.0,0.0,0.0,0.0,0.0,0.0,0.0,0.0,0.0,0.0,0.0,0.0,0.0,0.0,0.0,0.0,0.0,0.0,0.0,0.0,0.0,0.0,0.0,0.0,0.0,0.2007,0.2544,0.3401,0.3264,0.3281,0.0,0.0,0.0,0.0,0.0,0.0,0.3523,0.3418,0.3365,0.3365,0.3365,0.3365,0.3365,0.3365,0.3343,0.3298,0.3298,0.3223,0.318,0.318,0.3079,0.2876,0.2876,0.2441,0.18,0.2397,0.2343,0.1895,0.1973,0.1932,0.1882,0.1961,0.1971,0.2024,0.0,0.0,0.0,0.0,0.0,0.0,0.0,0.0,0.0,0.0,0.0,0.5194,0.6179,0.6168,0.6094,0.6094,0.5983,0.5909,0.5904,0.5801,0.5694,0.5688,0.5836,0.5896,0.5904,0.498,0.3594,0.181,0.1027,0.0296,-0.0353,-0.1108,-0.1512,-0.1463,-0.0706,0.0101,0.0854,0.0905,0.0754,0.0504,0.0453,0.0,0.0,0.0,0.0,0.0,0.0,0.0,0.0,0.0,0.0,0.0,0.0,0.0,0.0,0.0,0.0,0.0,0.0,0.0,0.0,0.0,0.0,0.0,0.0,0.0,0.0,0.0,0.0,0.0,0.0,0.0,0.0,0.0,0.0,0.0,0.0,0.0,0.0,0.3989,0.362,0.0,0.0,0.0,0.0,0.4647,0.3792,0.3441,0.3944,0.3491,0.3189,0.3189,0.3189,0.3189,0.3189,0.3189,0.3188,0.3185,0.3185,0.3183,0.318,0.318,0.2775,0.2068,0.2068,0.1614,0.091,0.18,0.1517,0.0584,0.0585,0.0425,0.0266,0.0532,0.0586,0.0639,0.0,0.0,0.0,0.0,0.0,0.0,0.0,0.0,0.4056,0.4157,0.4572,0.4997,0.5236,0.5709,0.5966,0.5966,0.586,0.575,0.575,0.5712,0.5721,0.5839,0.5189,0.4293,0.3018,0.2785,0.1883,0.04,-0.01,-0.0502,-0.0909,-0.1364,-0.1617,-0.1566,-0.1313,-0.101,-0.0656,0.0353,0.0756,0.0605,-0.0303,-0.0706,0.0,0.0,0.0,0.0,0.0,0.0,0.0,0.0,0.0,0.0,0.0,0.0,0.0,0.0,0.0,0.0,0.0,0.0,0.0,0.0,0.0,0.0,0.0,0.0,0.0,0.0,0.0,0.0,0.0,0.0,0.0,0.0,0.0,0.0,0.0,0.0,0.0,0.442,0.4395,0.0,0.0,0.4452,0.4383,0.4784,0.4433,0.4183,0.4033,0.3831,0.3581,0.323,0.318,0.318,0.318,0.318,0.318,0.318,0.2674,0.2422,0.2422,0.1916,0.1513,0.121,0.121,0.0756,0.005,0.0356,0.0563,0.0668,0.0668,0.0617,0.0565,0.0668,0.0668,0.072,0.0,0.0,0.0,0.0,0.0,0.0,0.0,0.0,0.3058,0.3202,0.3623,0.3953,0.4094,0.4574,0.4886,0.4886,0.4829,0.4748,0.4748,0.4775,0.4775,0.4883,0.4249,0.3106,0.1483,0.1552,0.0958,-0.0404,-0.0556,-0.0859,-0.1212,-0.1364,-0.1516,-0.1617,-0.1617,-0.1617,-0.1516,-0.0454,0.0,-0.0101,-0.0958,-0.1312,-0.1411,0.0,0.0,0.0,0.0,0.0,0.0,0.0,0.0,0.0,0.0,0.0,0.0,0.0,0.0,0.0,0.0,0.0,0.0,0.0,0.0,0.0,0.0,0.0,0.0,0.0,0.0,0.0,0.0,0.0,0.0,0.0,0.0,0.0,0.0,0.0,0.2869,0.4228,0.4632,0.4935,0.5286,0.5035,0.4935,0.5336,0.4985,0.4634,0.4282,0.4083,0.3732,0.323,0.32,0.3211,0.3211,0.2974,0.2828,0.2828,0.1953,0.1541,0.1541,0.1027,0.0616,0.036,0.036,-0.0103,-0.0823,-0.0823,-0.0514,-0.0051,0.0,0.0,0.0,0.0,0.0,0.0,0.0,0.0,0.0,0.0,0.0,0.0,0.0,0.1239,0.1381,0.2236,0.2009,0.2075,0.2856,0.2901,0.2911,0.2911,0.2911,0.2913,0.2914,0.2921,0.2906,0.2864,0.2927,0.2521,0.1562,0.1563,0.0908,-0.0404,-0.0404,-0.0657,-0.1162,-0.1212,-0.1364,-0.1566,-0.1617,-0.1617,-0.1617,-0.1617,-0.1617,-0.1617,-0.1617,-0.1617,-0.1617,0.0,0.0,0.0,0.0,0.0,0.0,0.0,0.0,0.0,0.0,0.0,0.0,0.0,0.0,0.0,0.0,0.0,0.0,0.0,0.0,0.0,0.0,0.0,0.0,0.0,0.0,0.0,0.0,0.0,0.0,0.0,0.0,0.0,-0.0404,0.0756,0.2113,0.3419,0.4277,0.5186,0.6237,0.5434,0.5286,0.6342,0.5438,0.4841,0.4792,0.4289,0.3739,0.3185,0.319,0.3221,0.3221,0.2429,0.2077,0.2024,0.1118,0.0639,0.0639,0.0639,0.0213,-0.0532,-0.0532,-0.0958,-0.1704,-0.1704,-0.1704,-0.1699,-0.1641,-0.162,-0.162,-0.162,-0.162,-0.162,0.0,0.0,0.0,0.0,0.0,0.0,0.1001,0.0942,0.0886,0.0932,0.1464,0.1806,0.1853,0.2472,0.2911,0.2911,0.2911,0.2884,0.288,0.2897,0.2571,0.1829,0.1925,0.1504,0.0454,0.0454,0.0252,-0.0101,-0.0303,-0.0455,-0.0606,-0.101,-0.1263,-0.1314,-0.1516,-0.1617,-0.1617,-0.1617,-0.1617,-0.1617,-0.1617,-0.1617,-0.1617,0.0,0.0,0.0,0.0,0.0,0.0,0.0,0.0,0.0,0.0,0.0,0.0,0.0,0.0,0.0,0.0,0.0,0.0,0.0,0.0,0.0,0.0,0.0,0.0,0.0,0.0,0.0,0.0,0.0,0.0,0.0,0.0,-0.0909,0.005,0.1159,0.2166,0.2919,0.3723,0.4479,0.5186,0.5334,0.5718,0.6511,0.5853,0.5321,0.5028,0.3879,0.2937,0.2415,0.174,0.1427,0.1427,0.1168,0.1065,0.1065,0.0213,-0.016,-0.0213,-0.0799,-0.1171,-0.1385,-0.1385,-0.1491,-0.1704,-0.1704,-0.1704,-0.1703,-0.1686,-0.168,-0.168,-0.168,-0.168,-0.168,0.0,0.0,0.0,0.0,0.0,0.0,0.0744,0.0736,0.0685,0.0411,0.0858,0.1121,0.0852,0.1346,0.1704,0.1704,0.1704,0.1673,0.1705,0.1688,0.144,0.0842,0.0903,0.0656,0.0,0.0,0.0,0.0,-0.0152,-0.0303,-0.0404,-0.0707,-0.096,-0.1212,-0.1364,-0.1516,-0.1617,-0.1617,-0.1617,-0.1617,-0.1617,-0.1617,-0.1617,-0.1617,-0.1617,-0.1617,-0.1617,-0.1969,-0.2472,-0.2775,0.0,0.0,0.0,0.0,0.0,0.0,0.0,0.0,0.0,0.0,0.0,0.0,0.0,0.0,0.0,0.0,0.0,0.0,0.0,0.0,0.0,0.0,0.0,0.0,-0.1617,-0.1313,-0.0555,0.0605,0.1462,0.1763,0.2819,0.3583,0.3762,0.4275,0.4667,0.48,0.4599,0.4203,0.3613,0.2764,0.2074,0.1544,0.1019,0.0753,0.0753,0.0434,0.0218,0.0218,-0.0653,-0.1034,-0.1034,-0.1525,-0.1742,0.0,-0.1742,-0.1742,-0.1742,-0.1742,-0.1742,0.0,0.0,0.0,0.0,0.0,-0.1704,-0.1704,0.0,0.0,0.0,0.0,0.0,0.0,0.0583,0.0628,0.0538,0.0359,0.0359,0.0269,0.0045,0.0,0.0,0.0,0.0,0.0,0.0,0.0,0.0,0.0,0.0,0.0,0.0,0.0,0.0,0.0,0.0,-0.0101,-0.0354,-0.0404,-0.0657,-0.1111,-0.1162,-0.1314,-0.1566,-0.1566,-0.1617,-0.1617,-0.1617,-0.1617,-0.1617,-0.1617,-0.1617,-0.1617,-0.1617,-0.1919,-0.2321,-0.2371,0.0,0.0,0.0,0.0,0.0,0.0,0.0,0.0,0.0,0.0,0.0,0.0,0.0,0.0,0.0,0.0,0.0,0.0,0.0,0.0,0.0,0.0,0.0,0.0,-0.162,-0.1622,-0.1622,-0.0608,0.0152,0.0202,0.1566,0.2441,0.2224,0.275,0.2876,0.2339,0.2554,0.2345,0.155,0.0,0.0,0.0,0.0,0.0493,0.0493,-0.0223,-0.0561,-0.0561,-0.1402,-0.1795,-0.1795,-0.1795,-0.1851,-0.2019,-0.2019,-0.2019,-0.2019,-0.2019,-0.2019,-0.1957,-0.179,-0.1714,-0.1714,-0.1714,-0.1714,-0.1714,0.0,0.0,0.0,0.0,0.0,0.0,0.0135,0.0135,0.0135,0.009,0.009,0.0045,0.0,0.0,0.0,0.0,0.0,0.0,0.0,0.0,0.0,0.0,0.0,0.0,0.0,0.0,0.0,0.0,0.0,-0.0051,-0.0101,-0.0303,-0.0455,-0.0556,-0.101,-0.1212,-0.1313,-0.1516,-0.1617,-0.1617,-0.1617,-0.1617,-0.1617,-0.1617,-0.1617,-0.1617,-0.1617,-0.1667,-0.1818,-0.227,-0.2472,-0.2623,-0.3079,0.0,0.0,0.0,0.0,0.0,0.0,0.0,0.0,0.0,0.0,0.0,0.0,0.0,0.0,0.0,0.0,0.0,0.0,0.0,0.0,-0.1617,-0.1637,-0.1705,-0.1705,-0.1464,-0.1206,-0.0983,0.0103,0.0883,0.1003,0.1745,0.2289,0.2436,0.2061,0.1802,0.1772,0.061,0.0,-0.0167,-0.0891,-0.1284,-0.1284,-0.1456,-0.1514,-0.1514,0.0,0.0,-0.1795,-0.1795,-0.2353,-0.3246,-0.3246,-0.3246,-0.3246,-0.3246,-0.3246,-0.3132,-0.217,-0.1778,-0.1778,-0.1778,-0.1778,-0.1778,0.0,0.0,0.0,0.0,0.0,0.0,0.0,0.0,0.0,0.0,0.0,0.0,0.0,0.0,0.0,0.0,0.0,0.0,0.0,0.0,0.0,0.0,0.0,0.0,0.0,0.0,0.0,0.0,0.0,0.0,0.0,-0.0152,-0.0253,-0.0404,-0.0657,-0.096,-0.1212,-0.1364,-0.1465,-0.1617,-0.1617,-0.1617,-0.1617,-0.1617,-0.1617,-0.1617,-0.1617,-0.1617,-0.1617,-0.1919,-0.2019,-0.207,-0.2323,-0.2424,-0.2424,0.0,0.0,0.0,0.0,0.0,0.0,0.0,0.0,0.0,0.0,0.0,0.0,0.0,0.0,-0.1643,0.0,0.0,-0.166,-0.166,-0.1673,-0.1683,-0.1683,-0.1695,-0.1646,-0.1527,-0.0894,-0.0476,-0.0538,0.0108,0.0488,0.0331,0.0221,0.0111,0.0,-0.0673,-0.1121,-0.1121,-0.157,-0.1795,-0.1795,-0.1795,-0.213,-0.2688,-0.2688,-0.3023,-0.358,-0.358,-0.3914,-0.4526,-0.4526,-0.4526,-0.4526,-0.4526,-0.4526,-0.4416,-0.3858,-0.358,-0.358,-0.358,-0.358,-0.358,0.0,0.0,0.0,0.0,0.0,0.0,0.0,0.0,0.0,0.0,0.0,0.0,0.0,0.0,0.0,0.0,0.0,0.0,0.0,0.0,0.0,0.0,0.0,0.0,0.0,0.0,0.0,0.0,0.0,0.0,0.0,0.0,-0.0101,-0.0303,-0.0455,-0.0707,-0.1111,-0.1212,-0.1415,-0.1617,-0.1617,-0.1617,-0.1617,-0.1617,-0.1617,-0.1617,-0.1617,-0.1617,-0.1617,-0.1617,-0.1617,-0.1617,-0.1617,-0.1617,-0.1617,-0.1617,-0.1621,0.0,0.0,0.0,0.0,0.0,0.0,0.0,0.0,0.0,-0.1618,-0.1671,-0.1722,-0.1677,-0.17,-0.1704,-0.1704,-0.1704,-0.1709,-0.1713,-0.1713,-0.1718,-0.1722,-0.1722,-0.1448,-0.1455,-0.1755,-0.1319,-0.1216,-0.1737,-0.157,-0.1514,-0.1795,-0.1795,-0.1795,-0.1795,-0.2018,-0.213,-0.213,-0.2409,-0.2967,-0.397,-0.397,-0.447,-0.5417,-0.5417,-0.5528,-0.5753,-0.5753,-0.5753,-0.5753,-0.5753,-0.5753,-0.5753,-0.5975,-0.6086,-0.6031,-0.5584,-0.5417,-0.5417,0.0,0.0,0.0,0.0,0.0,0.0,0.0,0.0,0.0,0.0,0.0,0.0,0.0,0.0,0.0,0.0,0.0,0.0,0.0,0.0,0.0,0.0,0.0,0.0,0.0,0.0,0.0,0.0,0.0,0.0,0.0,0.0,0.0,-0.0051,-0.0556,-0.0808,-0.0859,-0.1364,-0.1566,-0.1617,-0.1617,-0.1617,-0.1617,-0.1617,-0.1617,-0.1617,-0.1617,-0.1617,-0.1617,-0.1617,-0.1617,-0.1617,-0.1617,-0.1617,-0.1617,-0.1617,0.0,-0.1709,-0.1709,-0.152,-0.1379,-0.1642,-0.1274,-0.1063,0.0,0.0,-0.1436,-0.1647,-0.1699,-0.17,-0.1703,-0.1704,-0.1704,-0.1704,-0.1727,-0.1799,-0.1799,-0.1767,-0.1785,-0.1785,-0.1486,-0.1427,-0.1787,-0.1454,-0.1399,-0.1795,-0.1739,-0.1739,-0.1795,-0.1795,-0.1795,-0.1795,-0.2856,-0.3413,-0.3413,-0.447,-0.5083,-0.5194,-0.5194,-0.525,-0.5417,-0.5417,-0.5975,-0.6927,-0.6927,-0.6927,-0.6927,-0.6927,-0.6927,-0.7041,-0.81,-0.8491,-0.8266,-0.6142,-0.5417,-0.5417,0.0,0.0,0.0,0.0,0.0,0.0,0.0,0.0,0.0,0.0,0.0,0.0,0.0,0.0,0.0,0.0,0.0,0.0,0.0,0.0,0.0,0.0,0.0,0.0,0.0,0.0,0.0,0.0,0.0,0.0,0.0,-0.0656,-0.1009,-0.1209,-0.2065,-0.2618,-0.2918,-0.312,-0.3323,-0.3473,-0.3473,-0.3473,-0.3473,-0.3473,-0.3473,-0.3328,-0.2096,-0.1643,0.0,-0.1643,-0.1643,-0.164,-0.1622,-0.1629,-0.1643,-0.1643,-0.1664,0.0,-0.1528,-0.1377,0.0,0.0,-0.1128,-0.1134,-0.1389,-0.1504,-0.1623,-0.1731,-0.1785,-0.1736,-0.1754,-0.1757,-0.1757,0.0,-0.1767,-0.1776,-0.1776,-0.1787,-0.1795,-0.1795,-0.1672,-0.167,-0.1793,-0.1683,-0.1627,-0.1795,-0.1795,-0.213,-0.28,-0.2856,-0.3191,-0.3858,-0.4359,-0.4637,-0.4637,-0.5139,-0.5753,-0.6369,-0.6369,-0.6758,-0.7426,-0.7426,-0.7706,-0.8156,-0.8156,-0.8156,-0.8156,-0.8156,-0.8156,-0.8214,-0.8716,-0.8885,-0.8771,-0.7817,-0.7426,-0.7426,0.0,0.0,0.0,0.0,0.0,0.0,0.0,0.0,0.0,0.0,-0.009,-0.0135,-0.018,-0.018,-0.0181,-0.0185,-0.0471,-0.0672,-0.0686,-0.0848,-0.1009,-0.1009,-0.0656,-0.0454,-0.0454,-0.0454,-0.0454,-0.0454,-0.0807,-0.1009,-0.1009,-0.1864,-0.2365,-0.2564,-0.3417,-0.4021,-0.442,-0.447,-0.4622,-0.4824,-0.4824,-0.4824,-0.4824,-0.4824,-0.4841,-0.4618,-0.2786,-0.2128,-0.2077,-0.1775,-0.1726,-0.167,-0.1648,-0.1656,-0.1726,-0.1726,-0.1641,-0.1557,-0.1349,0.0,0.0,-0.0865,-0.0873,-0.0988,-0.1139,-0.1365,-0.1597,-0.1652,-0.1762,-0.1824,-0.1791,-0.1795,0.0,-0.1795,-0.1795,-0.1795,-0.1795,-0.1795,-0.1907,-0.2242,-0.2297,-0.2409,-0.2744,-0.2186,-0.1963,-0.2298,-0.2297,-0.28,-0.4026,-0.4081,-0.447,-0.5361,-0.5695,-0.5864,-0.5864,-0.6197,-0.6758,-0.7598,-0.7598,-0.8045,-0.8885,-0.8885,-0.8885,-0.8885,-0.8885,-0.8885,-0.8885,-0.8885,-0.8885,-0.8885,-0.8885,-0.8908,-0.8998,-0.8998,-0.8974,-0.8885,0.0,0.0,0.0,0.0,0.0,0.0,0.0,0.0,0.0,0.0,0.0,0.0,0.0,-0.0673,-0.0678,-0.0692,-0.1692,-0.2348,-0.2345,-0.3036,-0.3469,-0.3469,-0.2266,-0.1563,-0.1563,-0.1563,-0.1563,-0.1563,-0.2868,-0.3469,-0.3521,-0.3767,-0.3915,-0.3966,-0.4268,-0.437,-0.442,-0.4672,-0.4774,-0.4824,-0.4824,-0.4824,-0.4824,-0.4824,-0.493,-0.4907,-0.3675,-0.3263,-0.3117,-0.2063,-0.1703,-0.1703,-0.1701,-0.1702,0.0,-0.1703,-0.1508,-0.1316,0.0,0.0,-0.0504,-0.084,-0.0448,-0.0168,-0.0784,-0.0896,-0.1009,-0.1289,-0.1569,-0.1794,-0.1795,-0.1795,-0.1795,-0.1795,-0.1795,-0.1795,-0.1795,-0.1795,-0.2242,-0.3413,-0.3525,-0.4026,0.0,-0.3191,-0.2298,-0.3469,-0.3525,-0.4081,-0.5306,-0.5361,-0.5361,-0.5417,-0.648,-0.7041,-0.7041,-0.8211,-0.8826,-0.883,-0.883,-0.8881,-0.8885,-0.8885,-0.8885,-0.8885,-0.8885,-0.8885,-0.8885,-0.8885,-0.8885,-0.8885,-0.8885,-0.9025,-0.9204,-0.9204,-0.9059,-0.8885,0.0,0.0,0.0,0.0,0.0,0.0,0.0,0.0,0.0,0.0,0.0,0.0,0.0,0.0,0.0,0.0,-0.2657,-0.3333,-0.3307,-0.3654,-0.3867,-0.3867,-0.3417,-0.3217,-0.3217,-0.3217,-0.3217,-0.3217,-0.3668,-0.3867,-0.3867,-0.467,-0.517,-0.5375,-0.6182,-0.6631,-0.6781,-0.688,-0.6933,-0.6933,-0.6933,-0.6933,-0.6933,-0.6933,-0.7065,-0.709,0.0,-0.5145,-0.4454,-0.3292,-0.3407,-0.3778,-0.1978,-0.1986,-0.244,-0.1483,-0.1107,-0.1002,-0.0784,0.0,-0.0393,-0.0336,-0.028,-0.0336,-0.0505,-0.0897,-0.1177,-0.129,-0.157,-0.2018,-0.2856,-0.2353,-0.2074,-0.2856,-0.2967,-0.2967,-0.2967,-0.3692,-0.436,-0.4749,-0.4804,0.0,0.0,0.0,0.0,-0.4749,-0.4804,-0.5308,-0.648,-0.6536,-0.6959,-0.7883,-0.8286,-0.8558,-0.8597,-0.9,-0.9232,-0.9232,-0.9232,-0.9232,-0.9232,-0.9232,-0.9232,-0.9289,-1.036,-1.0697,-1.058,-1.1647,-1.1929,-1.1759,-1.1759,-1.1907,-1.2191,-1.2191,-1.226,-1.2028,0.0,0.0,0.0,0.0,0.0,0.0,0.0,0.0,0.0,0.0,0.0,0.0,0.0,0.0,0.0,0.0,0.0,-0.4649,-0.4649,-0.5065,-0.5272,-0.5272,-0.4818,-0.4568,-0.4568,-0.4568,-0.4568,-0.4568,-0.507,-0.5272,-0.5322,-0.6077,-0.6528,-0.6734,-0.7441,-0.7842,-0.7988,-0.7988,-0.7988,-0.7988,-0.7988,-0.7988,-0.7988,-0.7988,-0.8167,0.0,-0.7605,-0.7,-0.6324,-0.4728,-0.462,-0.4833,-0.3155,-0.3058,-0.331,-0.1955,-0.1457,-0.1233,-0.0561,-0.0336,-0.0224,-0.0056,-0.0112,-0.028,-0.028,-0.1065,-0.1793,-0.1793,-0.2464,-0.3301,-0.4081,-0.3636,-0.3358,-0.4137,-0.4249,-0.4249,-0.4249,-0.4916,-0.5528,-0.5975,-0.6031,0.0,0.0,0.0,0.0,-0.6031,-0.6031,-0.655,-0.7774,-0.7832,-0.8289,-0.9228,-0.9292,-0.934,-0.9381,-0.9381,-0.9381,-0.9381,-1.0012,-1.0239,-1.0297,-1.0805,-1.1089,-1.1146,-1.217,-1.2513,-1.2399,-1.3316,-1.3653,-1.3534,-1.3425,-1.3588,-1.3944,-1.3944,-1.4104,-1.3914,0.0,0.0,0.0,0.0,0.0,0.0,0.0,0.0,0.0,0.0,0.0,0.0,0.0,0.0,0.0,0.0,0.0,0.0,-0.6311,-0.7131,-0.759,-0.7596,-0.6381,-0.5724,-0.5724,-0.5724,-0.5724,-0.5724,-0.6989,-0.7596,-0.7646,-0.7892,-0.7988,-0.7988,-0.7988,-0.7988,-0.7988,-0.7988,-0.7988,-0.7988,-0.7988,-0.7988,-0.7988,-0.7988,-0.8221,-0.8472,-0.8479,-0.8672,-0.8537,-0.6251,-0.5196,-0.4864,-0.492,-0.4698,-0.4255,-0.308,-0.252,-0.2016,-0.0897,-0.0392,-0.0168,-0.0168,-0.0168,-0.0168,-0.0224,-0.1567,-0.2795,-0.2795,-0.419,-0.5417,0.0,0.0,-0.5417,-0.5472,-0.5472,-0.5472,-0.5472,-0.5528,-0.5975,0.0,0.0,0.0,0.0,0.0,0.0,-0.7274,0.0,-0.7774,-0.9157,-0.9221,-0.9292,-0.9388,-0.9395,-0.9398,-0.9405,-0.9518,-0.9576,-0.9576,-1.1183,-1.1927,-1.198,-1.345,-1.4122,-1.4122,-1.4184,-1.4236,-1.4184,-1.4029,-1.4138,-1.4298,-1.4029,-1.4218,-1.4629,-1.4629,-1.471,-1.4603,0.0,0.0,0.0,0.0,0.0,0.0,0.0,0.0,0.0,0.0,0.0,0.0,0.0,0.0,0.0,0.0,0.0,0.0,-0.7439,-0.7622,-0.7776,-0.7885,-0.7587,-0.7385,-0.7385,-0.7385,-0.7385,-0.7385,-0.7739,-0.7892,-0.7892,-0.7992,-0.7988,-0.7988,-0.7988,-0.7988,-0.7988,-0.7988,-0.7988,-0.7988,-0.7988,-0.7988,-0.7988,-0.7988,-0.8157,-0.8388,-0.8442,-0.8604,0.0,0.0,0.0,0.0,0.0,-0.4752,-0.3749,-0.3469,-0.3301,-0.3189,-0.2854,-0.2742,-0.2686,-0.2686,-0.2686,-0.2741,-0.2962,-0.3521,-0.4078,-0.43,-0.4912,-0.5639,0.0,0.0,0.0,-0.6536,-0.6649,0.0,-0.6649,-0.7429,0.0,0.0,0.0,-0.8549,-0.8881,-0.9035,0.0,0.0,-0.8642,-0.8877,-0.9313,-0.9323,-0.9395,-0.9547,-0.9551,-0.9602,-0.9707,-1.0894,-1.1606,-1.1844,-1.3258,-1.3908,-1.3903,-1.4315,-1.4486,-1.4545,-1.5715,-1.6123,-1.5959,-1.7128,-1.7487,-1.7313,-1.7203,-1.7414,-1.7759,-1.7759,-1.7925,-1.7975,0.0,0.0,0.0,0.0,0.0,0.0,0.0,0.0,0.0,0.0,0.0,0.0,0.0,0.0,0.0,0.0,0.0,0.0,0.0,-0.8112,-0.822,-0.8326,-0.8233,-0.8187,-0.8187,-0.8038,-0.7988,-0.7988,-0.7988,-0.7988,-0.7988,-0.7988,-0.8088,-0.8187,-0.8187,-0.8237,-0.8333,-0.8333,-0.8283,0.0,0.0,-0.8088,-0.7988,-0.7988,-0.8136,-0.834,-0.8431,0.0,0.0,0.0,0.0,-0.6089,-0.6313,-0.5868,-0.5087,-0.4531,0.0,-0.4252,-0.3748,-0.358,-0.358,-0.358,-0.3691,-0.3801,-0.3967,-0.4747,-0.5528,-0.5637,-0.6364,0.0,0.0,0.0,0.0,0.0,0.0,0.0,-0.7878,-0.8491,-0.8885,0.0,-0.8885,0.0,-0.9025,-0.9106,-0.9265,0.0,-0.935,-0.932,-0.9473,-0.9483,-0.9783,-1.0472,-1.0539,-1.0872,-1.1671,-1.2749,-1.3352,-1.3531,-1.4955,-1.5666,-1.5666,-1.6385,-1.6685,-1.6744,0.0,-1.7929,-1.7818,-1.8583,-1.8887,-1.8829,-1.8655,-1.8823,-1.912,-1.912,-1.9243,-1.9307,0.0,0.0,0.0,0.0,0.0,0.0,0.0,0.0,0.0,0.0,0.0,0.0,0.0,0.0,0.0,0.0,0.0,0.0,0.0,0.0,-0.8639,-0.8817,-0.8581,-0.8432,-0.8432,-0.8233,-0.8088,-0.8088,-0.8088,-0.8088,-0.8088,-0.8088,-0.8283,-0.8676,-0.8676,-0.8871,-0.9213,-0.9213,-0.9069,-0.8871,-0.8726,-0.8531,-0.8287,0.0,0.0,0.0,0.0,0.0,0.0,0.0,-0.8318,-0.7989,-0.7487,-0.7265,-0.7043,-0.5984,-0.565,-0.5425,-0.4362,-0.4083,-0.4083,-0.4139,-0.4305,-0.4524,-0.4578,-0.5806,-0.6924,-0.698,0.0,-0.8885,-0.8885,0.0,-0.8885,-0.8885,0.0,-0.8885,-0.8885,-0.8885,-0.8885,-0.8885,-0.8898,-0.9015,-0.9197,-0.9248,-0.9323,-0.9591,-0.9679,-0.9673,-0.9632,-0.9814,-1.0584,-1.2045,-1.2109,-1.2762,-1.4242,-1.4718,-1.4955,-1.502,-1.6556,-1.7325,-1.7384,-1.8765,-1.9424,-1.9424,0.0,0.0,-1.9366,-1.912,-1.912,-1.9366,-1.9062,-1.912,-1.9424,-1.9424,-1.9424,-1.9424,0.0,0.0,0.0,0.0,0.0,0.0,0.0,0.0,0.0,0.0,0.0,0.0,0.0,0.0,0.0,0.0,0.0,0.0,0.0,0.0,0.0,-0.881,-0.8775,-0.8726,-0.8726,-0.8676,-0.8676,-0.8676,-0.8676,-0.8676,-0.8676,-0.8676,-0.9167,-1.0047,-1.0047,-1.0534,-1.1361,-1.1361,-1.1365,-1.1219,-1.0391,-1.0047,-0.985,0.0,0.0,0.0,0.0,0.0,0.0,0.0,-0.8647,-0.8374,-0.7989,-0.7715,-0.7493,-0.7271,-0.7046,-0.6821,-0.6652,-0.6594,-0.6652,-0.6877,-0.6932,-0.7099,-0.759,-0.798,0.0,0.0,0.0,-0.8885,-0.8885,-0.8885,0.0,-0.8885,0.0,0.0,0.0,0.0,-0.8885,0.0,0.0,0.0,0.0,0.0,0.0,0.0,0.0,0.0,-0.9842,-1.1038,-1.2483,-1.4068,-1.4128,-1.4366,-1.4906,-1.602,-1.6733,-1.7032,-1.835,-1.9004,-1.9004,-1.9243,-1.9424,-1.9424,0.0,0.0,-1.9424,-1.9366,-1.9366,-1.9366,-1.9366,-1.9366,-1.9424,-1.9424,-1.9424,-1.9424,0.0,0.0,0.0,0.0,0.0,0.0,0.0,0.0,0.0,0.0,0.0,0.0,0.0,0.0,0.0,0.0,0.0,0.0,0.0,0.0,0.0,0.0,0.0,0.0,0.0,-0.8874,0.0,0.0,0.0,-0.8825,-0.8825,0.0,0.0,0.0,-1.117,-1.1755,-1.2339,-1.2339,-1.2242,-1.2047,-1.156,-1.1317,0.0,0.0,0.0,0.0,0.0,0.0,0.0,0.0,-0.9959,-0.9633,-0.8374,-0.7934,-0.7826,-0.7826,-0.7712,-0.7601,-0.7601,-0.7601,-0.7657,-0.7771,-0.7937,-0.8156,-0.8429,0.0,0.0,0.0,0.0,-0.8885,-0.8885,0.0,0.0,0.0,0.0,0.0,0.0,0.0,0.0,0.0,0.0,0.0,0.0,0.0,0.0,0.0,0.0,0.0,-1.114,-1.3228,-1.4777,-1.5558,-1.638,-1.6915,-1.7103,-1.787,-1.8344,-1.8525,-1.9127,-1.9424,-1.9424,-1.9424,-1.9424,-1.9424,-1.9424,0.0,-1.9424,-1.9424,-1.9424,-1.9424,-1.9424,-1.9424,-1.9424,-1.9424,-1.9424,-1.9424,0.0,0.0,0.0,0.0,0.0,0.0,0.0,0.0,-0.9994,-0.9994,-0.9994,-0.9907,-0.9607,-0.9174,0.0,0.0,0.0,0.0,0.0,0.0,0.0,0.0,0.0,0.0,0.0,0.0,0.0,0.0,0.0,0.0,0.0,0.0,0.0,0.0,0.0,0.0,0.0,-1.3547,-1.3403,0.0,0.0,0.0,0.0,0.0,0.0,0.0,0.0,0.0,0.0,0.0,-1.1433,-1.0832,-0.9192,-0.8429,-0.81,-0.81,-0.8045,-0.7989,-0.7989,-0.7989,-0.7989,-0.81,-0.8318,-0.854,-0.8598,-0.8768,0.0,0.0,-0.8885,-0.8885,-0.8885,0.0,0.0,0.0,0.0,0.0,0.0,0.0,0.0,0.0,0.0,0.0,0.0,0.0,0.0,0.0,0.0,0.0,-1.3283,-1.537,-1.6744,-1.7103,-1.8344,-1.8997,-1.8997,-1.9243,-1.9424,-1.9424,-1.9424,-1.9424,-1.9424,-1.9424,-1.9424,-1.9424,-1.9424,0.0,0.0,-1.9424,-1.9424,-1.9424,-1.9424,-1.9424,-1.9424,-1.9424,-1.9424,-1.9424,0.0,0.0,0.0,0.0,0.0,0.0,0.0,0.0,-0.9994,-0.9994,-0.9994,-1.0125,-1.0463,-1.0125,0.0,0.0,0.0,0.0,0.0,0.0,0.0,0.0,0.0,0.0,0.0,0.0,0.0,0.0,0.0,0.0,0.0,0.0,0.0,0.0,0.0,0.0,0.0,0.0,0.0,0.0,0.0,0.0,0.0,0.0,0.0,0.0,0.0,0.0,0.0,0.0,0.0,-1.1051,-1.0887,-0.9743,-0.8429,-0.8429,0.0,0.0,-0.7989,-0.7989,-0.81,-0.8374,-0.8484,-0.8543,-0.8826,0.0,0.0,-0.8885,-0.8885,-0.8885,-0.8885,-0.9158,0.0,0.0,0.0,-1.0084,0.0,0.0,0.0,0.0,0.0,0.0,0.0,0.0,0.0,0.0,0.0,0.0,0.0,-1.6791,-1.7624,-1.9068,-1.9307,-1.9366,-1.9366,-1.9366,-1.9424,-1.9424,-1.9424,-1.9424,-1.9424,-1.9424,-1.9424,-1.9424,0.0,0.0,0.0,-1.9424,-1.9424,-1.9424,-1.9424,-1.9424,-1.9424,-1.9424,-1.9424,-1.9424,0.0,0.0,0.0,0.0,0.0,0.0,0.0,-1.0781,-1.0781,-1.0781,-1.0781,-1.0824,-1.0997,-1.1289,0.0,0.0,0.0,0.0,0.0,0.0,0.0,0.0,0.0,0.0,0.0,0.0,0.0,0.0,0.0,0.0,0.0,0.0,0.0,0.0,0.0,0.0,0.0,0.0,0.0,0.0,0.0,0.0,0.0,0.0,0.0,0.0,0.0,0.0,0.0,0.0,0.0,0.0,-1.2403,-1.1533,0.0,0.0,-0.8657,-0.8546,-0.8546,-0.8546,-0.8546,-0.8712,-0.9309,-0.9853,-0.9966,0.0,-1.0785,-1.0131,-1.0131,-1.0241,-1.0241,-1.046,-1.1055,0.0,0.0,0.0,0.0,0.0,0.0,0.0,0.0,0.0,0.0,0.0,0.0,0.0,0.0,0.0,0.0,-1.846,-1.8765,-1.9366,-1.9424,-1.9424,-1.9424,-1.9424,-1.9424,-1.9424,-1.9424,-1.9424,-1.9424,-1.9424,-1.9424,-1.9424,0.0,0.0,0.0,-1.9424,-1.9424,-1.9424,-1.9424,-1.9424,-1.9424,-1.9424,-1.9424,-1.9424,0.0,0.0,0.0,0.0,0.0,0.0,-1.1262,-1.1305,-1.1305,-1.1305,-1.1305,-1.1305,-1.1305,-1.194,-1.2092,-1.1337,0.0,0.0,0.0,0.0,0.0,0.0,0.0,0.0,0.0,0.0,0.0,0.0,0.0,0.0,0.0,0.0,0.0,0.0,0.0,0.0,0.0,0.0,0.0,0.0,0.0,0.0,0.0,0.0,0.0,0.0,0.0,0.0,0.0,0.0,0.0,0.0,0.0,0.0,0.0,0.0,-0.9919,-0.9919,-0.9919,-0.9919,-0.9919,-0.9919,-1.0621,-1.1319,0.0,0.0,-1.2462,-1.1647,-1.1592,-1.1755,-1.1755,-1.1973,-1.2566,-1.375,0.0,-1.3647,0.0,0.0,0.0,0.0,0.0,0.0,0.0,0.0,0.0,0.0,0.0,0.0,0.0,-1.9424,-1.9424,-1.9424,-1.9424,-1.9424,-1.9424,-1.9424,-1.9424,-1.9424,-1.9424,-1.9424,-1.9424,-1.9424,-1.9424,-1.9424,0.0,0.0,0.0,-1.9424,-1.9424,-1.9424,-1.9424,-1.9424,-1.9424,-1.9424,-1.9424,-1.9424,0.0,0.0,0.0,0.0,0.0,0.0,0.0,-1.1305,-1.1305,-1.1305,-1.1305,-1.1305,-1.1305,-1.194,-1.2506,-1.2759,0.0,0.0,0.0,0.0,0.0,0.0,0.0,0.0,0.0,0.0,0.0,-1.229,-1.3102,0.0,0.0,0.0,0.0,0.0,0.0,0.0,0.0,0.0,0.0,0.0,0.0,0.0,0.0,0.0,0.0,0.0,0.0,0.0,0.0,0.0,0.0,0.0,0.0,-1.4395,-1.3161,0.0,-1.2363,-1.2363,-1.2363,-1.2363,-1.2363,-1.2363,-1.2566,-1.2773,0.0,0.0,-1.3264,-1.327,-1.327,-1.327,-1.327,-1.348,-1.4078,-1.5204,-1.4669,0.0,0.0,0.0,0.0,0.0,0.0,0.0,0.0,0.0,0.0,0.0,0.0,0.0,0.0,-1.9424,-1.9424,-1.9424,-1.9424,-1.9424,-1.9424,-1.9424,-1.9424,-1.9424,-1.9424,-1.9424,-1.9424,-1.9424,-1.9424,0.0,0.0,0.0,0.0,-1.9424,-1.9424,-1.9424,-1.9424,-1.9424,-1.9424,-1.9424,-1.9424,-1.9424,0.0,0.0,0.0,0.0,0.0,0.0,0.0,0.0,-1.178,-1.178,-1.1656,-1.186,-1.2656,-1.3452,-1.424,-1.5118,0.0,0.0,0.0,0.0,0.0,0.0,0.0,0.0,0.0,0.0,-1.4806,-1.4226,-1.4984,-1.5514,-1.5805,0.0,0.0,0.0,0.0,0.0,0.0,0.0,0.0,0.0,0.0,0.0,0.0,0.0,0.0,0.0,0.0,0.0,0.0,0.0,0.0,0.0,0.0,0.0,0.0,-1.5381,-1.4078,-1.2724,-1.2945,-1.2837,-1.2724,-1.2945,-1.3652,-1.4298,-1.4298,0.0,-1.5375,-1.4626,-1.4626,-1.4733,-1.4722,-1.4995,-1.5589,-1.6717,-1.6664,0.0,0.0,0.0,0.0,0.0,0.0,0.0,0.0,0.0,0.0,0.0,0.0,0.0,0.0,-1.9424,-1.9424,-1.9424,-1.9424,-1.9424,-1.9424,-1.9424,-1.9424,-1.9424,-1.9424,-1.9424,-1.9424,-1.9424,0.0,0.0,0.0,0.0,0.0,-1.9424,-1.9424,-1.9424,-1.9424,-1.9424,-1.9424,-1.9424,-1.9424,-1.9424,0.0,0.0,0.0,0.0,0.0,0.0,0.0,0.0,-1.2267,-1.2646,-1.2471,-1.2778,-1.3969,-1.4785,-1.5648,-1.6592,0.0,0.0,0.0,0.0,0.0,0.0,0.0,0.0,0.0,-1.6096,-1.5812,-1.5527,-1.6237,-1.6709,-1.6951,-1.7372,-1.7707,0.0,0.0,0.0,0.0,0.0,0.0,0.0,0.0,0.0,-1.7042,0.0,0.0,0.0,0.0,0.0,0.0,0.0,0.0,0.0,0.0,0.0,0.0,0.0,-1.5802,-1.4454,0.0,-1.4454,-1.4341,-1.4508,-1.5221,0.0,0.0,0.0,-1.6836,-1.614,-1.6133,-1.624,-1.6227,-1.6393,-1.677,-1.747,-1.7582,0.0,0.0,0.0,0.0,0.0,0.0,0.0,0.0,0.0,0.0,0.0,0.0,0.0,0.0,0.0,-1.9424,-1.9424,-1.9424,-1.9424,-1.9424,-1.9424,-1.9424,-1.9424,-1.9424,-1.9424,-1.9424,-1.9424,0.0,0.0,0.0,0.0,0.0,-2.0104,-2.0104,-2.0104,-2.0213,-1.9931,-1.9649,-2.0213,-2.0328,-2.0328,0.0,0.0,0.0,0.0,0.0,0.0,0.0,0.0,0.0,0.0,0.0,-1.4101,-1.5397,-1.6072,0.0,0.0,0.0,0.0,0.0,0.0,0.0,0.0,0.0,0.0,0.0,-1.7271,-1.7091,-1.6379,-1.7091,-1.766,-1.8133,-1.8133,-1.8365,-1.8781,-1.8319,-1.8133,0.0,0.0,0.0,0.0,-1.7355,-1.7545,0.0,0.0,0.0,0.0,0.0,0.0,0.0,0.0,0.0,0.0,0.0,0.0,0.0,0.0,0.0,0.0,0.0,-1.673,0.0,0.0,0.0,0.0,0.0,0.0,0.0,-1.7582,-1.7582,-1.7582,-1.7582,-1.7582,-1.7582,-1.7582,-1.7582,0.0,0.0,0.0,0.0,0.0,0.0,0.0,0.0,0.0,0.0,0.0,0.0,0.0,0.0,0.0,-1.9424,-1.9424,-1.9424,-1.9424,-1.9424,-1.9424,-1.9424,-1.9424,-1.9424,-1.9424,-1.9424,-1.9424,0.0,0.0,0.0,0.0,0.0,-2.1231,-2.1281,-2.1395,-2.1566,-2.0995,-2.0263,-2.168,-2.2013,-2.1949,0.0,0.0,0.0,0.0,0.0,0.0,0.0,0.0,0.0,0.0,0.0,-1.6358,-1.7523,-1.7905,0.0,0.0,0.0,0.0,0.0,0.0,0.0,0.0,0.0,0.0,0.0,-1.8404,-1.8357,-1.8172,-1.8357,-1.8504,-1.8643,-1.8643,-1.8689,-1.8781,-1.8689,-1.8458,-1.8087,0.0,0.0,0.0,-1.7604,-1.7743,0.0,0.0,0.0,0.0,-1.8491,-1.8604,0.0,0.0,0.0,0.0,0.0,0.0,0.0,0.0,-1.7582,-1.7483,-1.7424,0.0,-1.712,-1.7318,-1.7424,-1.7536,0.0,0.0,0.0,0.0,0.0,-1.7582,-1.7582,-1.7582,-1.7582,-1.7582,-1.7582,0.0,0.0,0.0,0.0,0.0,0.0,0.0,0.0,0.0,0.0,0.0,0.0,0.0,0.0,0.0,-1.9424,-1.9424,-1.9424,-1.9424,-1.9424,-1.9424,-1.9424,-1.9424,-1.9424,-1.9424,-1.9424,-1.9424,0.0,0.0,0.0,0.0,-2.1536,-2.1502,-2.2168,-2.3111,-2.2289,-2.2338,-2.2878,-2.3271,-2.3327,-2.3327,0.0,0.0,0.0,0.0,0.0,0.0,0.0,0.0,0.0,0.0,0.0,0.0,0.0,0.0,0.0,0.0,0.0,0.0,0.0,0.0,0.0,0.0,0.0,0.0,-1.9188,-1.892,-1.8781,-1.8781,-1.8781,-1.892,-1.9188,-1.9188,-1.9279,-1.9471,-1.9234,-1.8874,-1.8419,-1.8621,-1.8543,-1.8284,-1.8626,0.0,0.0,0.0,0.0,0.0,-1.8862,-1.8926,0.0,-1.8855,-1.8743,-1.8593,0.0,0.0,0.0,0.0,-1.7793,-1.7635,-1.7747,-1.7589,-1.743,-1.7582,-1.7582,-1.7582,-1.7582,0.0,0.0,0.0,0.0,-1.7582,-1.7582,-1.7582,0.0,0.0,0.0,0.0,0.0,0.0,0.0,0.0,0.0,0.0,0.0,0.0,0.0,0.0,0.0,0.0,0.0,0.0,-1.9424,-1.9424,-1.954,-1.954,-1.9424,-1.9424,-1.9424,-1.9424,-1.9424,-1.9482,-1.9591,-2.0148,-2.0486,0.0,0.0,0.0,-2.3439,-2.3447,-2.3894,-2.4561,-2.4125,-2.3958,-2.4108,-2.4782,-2.4948,-2.4948,0.0,0.0,0.0,0.0,0.0,0.0,0.0,0.0,0.0,0.0,0.0,0.0,0.0,0.0,0.0,0.0,0.0,0.0,0.0,0.0,0.0,0.0,0.0,-1.9729,-1.9729,-1.9234,-1.9012,-1.9012,-1.9012,-1.9234,-1.9729,-1.9729,-1.992,-2.0292,-1.9941,-1.9499,-1.9023,-1.9414,-1.9566,-1.9495,-1.9853,0.0,0.0,0.0,0.0,0.0,0.0,0.0,0.0,-1.9279,-1.913,-1.8974,-1.8921,0.0,0.0,0.0,0.0,0.0,-1.7964,-1.7799,-1.7582,-1.7582,-1.7582,-1.7582,-1.7582,0.0,0.0,0.0,0.0,0.0,0.0,0.0,0.0,0.0,0.0,0.0,0.0,0.0,0.0,0.0,0.0,0.0,0.0,0.0,0.0,0.0,0.0,0.0,0.0,0.0,0.0,-1.9482,-1.97,-1.9758,-1.954,-1.954,-1.954,-1.954,-1.954,-1.9764,-2.0213,-2.1209,-2.1934,0.0,0.0,0.0,-2.5672,-2.568,-2.579,-2.6009,-2.6136,-2.5626,-2.5058,-2.6291,-2.6636,-2.6636,0.0,0.0,0.0,0.0,0.0,0.0,0.0,0.0,0.0,0.0,0.0,0.0,0.0,0.0,0.0,0.0,0.0,0.0,0.0,0.0,0.0,0.0,-2.0246,-2.0201,-2.0201,-2.011,-2.0065,-2.0065,-2.0065,-2.011,-2.0201,-2.0201,-2.0246,-2.0309,-2.0588,-2.0407,-1.9947,-2.0317,-2.0232,-1.9861,-2.017,0.0,0.0,0.0,0.0,0.0,0.0,0.0,0.0,-1.9279,-1.9272,-1.9175,-1.8974,0.0,0.0,0.0,0.0,0.0,-1.7964,-1.7799,-1.7582,-1.7582,-1.7582,-1.7582,-1.7582,-1.7582,0.0,0.0,0.0,0.0,0.0,0.0,0.0,0.0,0.0,0.0,0.0,0.0,0.0,0.0,0.0,0.0,0.0,0.0,0.0,0.0,0.0,0.0,0.0,0.0,0.0,-1.9758,-2.004,-2.0213,-2.0162,-2.0162,-2.0162,-2.0162,-2.0162,-2.0723,-2.1737,-2.1964,-2.2564,0.0,0.0,-2.5617,-2.6045,-2.6018,-2.6744,-2.7789,-2.6799,-2.6961,-2.7736,-2.796,-2.8014,-2.8014,0.0,0.0,0.0,0.0,0.0,0.0,0.0,0.0,0.0,0.0,0.0,0.0,0.0,0.0,0.0,0.0,0.0,0.0,0.0,0.0,0.0,-2.0292,-2.0292,-2.0292,-2.0292,-2.0292,-2.0292,-2.0292,-2.0292,-2.0292,-2.0292,-2.0292,-2.0403,-2.0617,-2.0797,-2.0836,-2.0842,-2.1229,-2.1243,-2.1072,0.0,0.0,0.0,0.0,0.0,0.0,0.0,0.0,0.0,0.0,-1.968,-2.0034,-1.9324,0.0,0.0,0.0,0.0,0.0,-1.8443,-1.8279,-1.8055,-1.8055,-1.7793,-1.7635,-1.7799,-1.7687,0.0,0.0,0.0,0.0,0.0,0.0,0.0,0.0,0.0,0.0,0.0,0.0,0.0,0.0,0.0,0.0,0.0,0.0,0.0,0.0,0.0,0.0,0.0,0.0,0.0,0.0,-2.0378,-2.0493,-2.0493,-2.0909,-2.0793,-2.0328,-2.0952,-2.1623,-2.2353,-2.3679,-2.4616,-2.5342,0.0,-2.7178,-2.7276,-2.7295,-2.7691,-2.8237,-2.7691,-2.7789,-2.8291,-2.8291,-2.8291,-2.8291,0.0,0.0,0.0,0.0,0.0,0.0,0.0,0.0,0.0,0.0,0.0,0.0,0.0,0.0,0.0,0.0,0.0,0.0,0.0,0.0,-2.0382,-2.0292,-2.0292,-2.0292,-2.0292,-2.0292,-2.0292,-2.0292,-2.0292,-2.038,-2.052,-2.0474,-2.0726,-2.119,-2.1238,-2.1389,-2.1672,-2.2059,-2.2173,-2.215,0.0,0.0,0.0,0.0,0.0,0.0,0.0,0.0,0.0,0.0,0.0,0.0,0.0,0.0,0.0,-1.9628,-1.9457,-1.9294,-1.9272,-1.9049,-1.8722,-1.8586,-1.816,-1.7845,-1.7964,-1.7905,0.0,0.0,0.0,0.0,0.0,0.0,0.0,0.0,0.0,0.0,0.0,0.0,0.0,0.0,0.0,0.0,0.0,0.0,0.0,0.0,0.0,0.0,0.0,0.0,0.0,0.0,-2.0673,-2.0874,-2.0953,-2.1722,-2.178,-2.1054,-2.1971,-2.281,-2.3642,-2.5377,-2.6445,-2.6961,-2.7906,-2.8291,-2.8291,-2.8291,-2.8291,-2.8291,-2.8291,-2.8291,-2.8291,-2.8291,-2.8291,-2.8291,0.0,0.0,0.0,0.0,0.0,0.0,0.0,0.0,0.0,0.0,0.0,0.0,0.0,0.0,0.0,0.0,0.0,0.0,0.0,0.0,-2.0564,-2.0292,-2.0292,-2.0292,-2.0292,-2.0292,-2.0292,-2.0292,-2.0292,-2.0617,-2.1212,-2.0979,-2.131,-2.2102,-2.2241,-2.2327,-2.2371,-2.2746,-2.2761,-2.256,-2.2585,0.0,0.0,0.0,0.0,0.0,0.0,0.0,0.0,0.0,0.0,0.0,0.0,0.0,-2.0783,-2.0783,-2.1285,-2.1633,-2.0629,-2.0158,-1.9738,-1.9011,-1.8593,-1.8265,-1.8069,-1.8167,0.0,-1.8016,0.0,0.0,0.0,0.0,0.0,0.0,0.0,0.0,0.0,0.0,0.0,0.0,0.0,0.0,0.0,0.0,0.0,0.0,0.0,0.0,0.0,0.0,0.0,0.0,0.0,-2.1299,-2.1598,-2.2864,-2.3417,-2.3336,-2.3401,-2.4603,-2.6846,-2.6582,-2.7079,-2.8184,-2.8237,-2.8291,-2.8291,-2.8291,-2.8291,-2.8291,-2.8291,-2.8291,-2.8291,-2.8291,-2.8291,-2.8291,0.0,0.0,0.0,0.0,0.0,0.0,0.0,0.0,0.0,0.0,0.0,0.0,0.0,0.0,0.0,0.0,0.0,0.0,0.0,0.0,-2.0564,-2.0292,-2.0292,-2.0292,-2.0292,-2.0292,-2.0292,-2.0292,-2.054,-2.0783,-2.1069,-2.1152,-2.1509,-2.2073,-2.2132,-2.2272,-2.2546,-2.2835,-2.2946,-2.2846,-2.2846,-2.2695,0.0,0.0,0.0,0.0,0.0,0.0,0.0,0.0,-2.1395,-2.1709,-2.1395,-2.1591,-2.1887,-2.1887,-2.2089,-2.224,-2.1836,-2.1175,-2.0664,-2.103,-2.0019,0.0,0.0,-1.8489,-1.837,-1.8272,-1.8325,0.0,0.0,0.0,0.0,0.0,0.0,0.0,0.0,0.0,0.0,0.0,0.0,0.0,0.0,0.0,0.0,0.0,0.0,0.0,0.0,0.0,0.0,0.0,0.0,-2.1752,-2.2871,-2.3597,-2.4787,-2.6574,-2.6289,-2.6516,-2.7243,-2.7748,-2.8093,-2.8291,-2.8291,-2.8291,-2.8291,-2.8291,-2.8291,-2.8291,-2.8291,-2.8291,-2.8291,-2.8291,-2.8291,-2.8291,0.0,0.0,0.0,0.0,0.0,0.0,0.0,0.0,0.0,0.0,0.0,0.0,0.0,0.0,0.0,0.0,0.0,0.0,0.0,-2.0934,-2.0789,-2.051,-2.051,-2.051,-2.051,-2.0631,-2.07,-2.0617,-2.109,-2.1444,-2.1613,-2.177,-2.2139,-2.2661,-2.2612,-2.2711,-2.2996,-2.3147,-2.3197,-2.3147,-2.3147,-2.3097,0.0,0.0,0.0,0.0,0.0,0.0,0.0,0.0,-2.2802,-2.3111,-2.2743,-2.2785,-2.2994,-2.2994,-2.2994,-2.2935,-2.2584,-2.1937,-2.1438,-2.1489,0.0,0.0,-1.913,-1.8855,-1.8639,-1.8586,-1.8689,0.0,0.0,0.0,0.0,0.0,0.0,0.0,0.0,0.0,0.0,0.0,0.0,0.0,0.0,0.0,0.0,0.0,0.0,0.0,0.0,0.0,0.0,0.0,0.0,-2.2414,-2.3765,-2.4762,-2.6405,-2.8557,-2.8704,-2.8474,-2.7995,-2.859,-2.8691,-2.8291,-2.8291,-2.8291,-2.8291,-2.8291,-2.8291,-2.8291,-2.8291,-2.8291,-2.831,-2.8437,-2.8496,-2.8506,0.0,0.0,0.0,0.0,0.0,0.0,0.0,0.0,0.0,0.0,0.0,0.0,0.0,0.0,0.0,0.0,0.0,0.0,-2.1392,-2.1392,-2.1293,-2.0997,-2.0997,-2.0997,-2.0997,-2.1405,-2.1525,-2.1302,-2.1905,-2.2533,-2.3169,-2.2934,-2.3287,-2.4202,-2.3895,-2.3805,-2.3805,-2.3805,-2.3655,-2.3397,-2.3397,-2.3247,-2.2996,0.0,0.0,0.0,0.0,0.0,0.0,0.0,-2.3592,-2.2944,-2.2935,-2.3493,-2.4137,-2.4137,-2.4137,-2.389,-2.2835,-2.2534,-2.1988,0.0,0.0,0.0,-1.9576,-1.9331,-1.9234,-1.8981,0.0,0.0,0.0,0.0,0.0,0.0,0.0,0.0,0.0,0.0,0.0,0.0,0.0,0.0,0.0,0.0,0.0,0.0,0.0,0.0,0.0,0.0,0.0,0.0,-2.2369,-2.3365,-2.4125,-2.6558,-2.818,-2.8911,-3.0265,-3.043,-2.956,-2.9121,-2.8701,-2.8301,-2.8291,-2.8291,-2.8291,-2.8291,-2.8291,-2.8291,-2.8291,-2.8291,-2.835,-2.8769,-2.8926,-2.8984,0.0,0.0,0.0,0.0,0.0,0.0,0.0,0.0,0.0,0.0,0.0,0.0,0.0,0.0,0.0,0.0,0.0,0.0,-2.1392,-2.1392,-2.1293,-2.0997,-2.0997,-2.113,-2.1414,-2.2277,-2.2491,-2.1914,-2.2407,-2.2713,-2.2934,-2.3153,-2.3389,-2.3646,-2.3546,-2.3497,-2.3546,-2.3705,-2.3746,-2.3696,-2.3696,-2.4035,-2.4609,0.0,0.0,0.0,0.0,0.0,0.0,0.0,0.0,0.0,-2.5294,-2.5596,-2.5742,-2.5548,-2.5499,-2.5401,-2.4913,-2.4205,0.0,0.0,0.0,0.0,0.0,-2.1171,0.0,0.0,0.0,0.0,0.0,0.0,0.0,0.0,0.0,0.0,0.0,0.0,0.0,0.0,0.0,0.0,0.0,0.0,0.0,0.0,0.0,0.0,0.0,0.0,0.0,0.0,-2.2813,-2.4038,-2.6275,-2.7298,-2.851,-2.9805,-3.0548,-3.0576,-3.0,-2.957,-2.9141,-2.8711,-2.8418,-2.8291,-2.8291,-2.8291,-2.8398,-2.8568,-2.8568,-2.8755,-2.9105,-2.9233,-2.9296,-2.945,0.0,0.0,0.0,0.0,0.0,0.0,0.0,0.0,0.0,0.0,-2.1696,-2.1696,0.0,0.0,0.0,0.0,0.0,0.0,0.0,0.0,-2.1472,-2.1275,-2.1419,-2.1769,-2.2335,-2.2964,-2.322,-2.2976,-2.3228,-2.3354,-2.3354,-2.3588,-2.3705,-2.3705,-2.3705,-2.3705,-2.3755,-2.3895,-2.4192,-2.4529,-2.4529,-2.5099,-2.5896,0.0,0.0,0.0,0.0,0.0,0.0,0.0,0.0,0.0,-2.6544,-2.6602,-2.6448,-2.6197,-2.579,-2.5401,-2.5167,-2.4599,0.0,0.0,0.0,0.0,0.0,0.0,0.0,0.0,0.0,0.0,0.0,0.0,0.0,0.0,0.0,0.0,0.0,0.0,0.0,0.0,0.0,0.0,0.0,0.0,0.0,0.0,0.0,0.0,0.0,0.0,0.0,0.0,-2.3919,-2.5266,-2.7188,-2.7875,-2.8916,-3.0205,-3.0478,-3.0566,-3.0449,-2.9844,-2.9336,-2.8896,-2.8476,-2.8291,-2.8291,-2.8398,-2.8568,-2.8747,-2.9023,-2.9315,-2.9585,-2.9933,-3.0111,-3.0247,0.0,0.0,0.0,0.0,0.0,0.0,0.0,0.0,0.0,0.0,-2.1696,-2.1696,0.0,0.0,0.0,0.0,0.0,0.0,0.0,0.0,-2.1705,-2.1742,-2.2163,-2.2739,-2.348,-2.3535,-2.3776,-2.4202,-2.4202,-2.4202,-2.4202,-2.4202,-2.4202,-2.4202,-2.4202,-2.4251,-2.435,-2.4251,-2.4775,-2.5693,-2.5596,-2.6051,-2.6836,-2.6836,0.0,0.0,0.0,0.0,0.0,0.0,0.0,0.0,-2.6996,-2.6794,-2.6544,-2.6245,-2.545,-2.4639,-2.4344,0.0,0.0,0.0,0.0,0.0,0.0,0.0,0.0,0.0,0.0,0.0,0.0,0.0,0.0,0.0,0.0,0.0,0.0,0.0,0.0,0.0,0.0,0.0,0.0,0.0,0.0,0.0,0.0,0.0,0.0,0.0,0.0,0.0,-2.5305,-2.6765,-2.7299,-2.8339,-2.9336,0.0,-3.0176,-3.0439,-3.0859,-3.001,-2.9421,-2.8896,-2.853,-2.8344,-2.8398,-2.8621,-2.8757,-2.888,-2.9591,-2.99,-3.0071,-3.0822,-3.1144,-3.1234,0.0,0.0,0.0,0.0,0.0,0.0,0.0,0.0,0.0,0.0,0.0,0.0,0.0,0.0,0.0,0.0,0.0,0.0,0.0,0.0,-2.1833,-2.2144,-2.2849,-2.3316,-2.3489,-2.3859,-2.411,-2.4202,-2.4202,-2.4202,-2.4202,-2.4202,-2.4202,-2.4202,-2.4202,-2.4637,-2.5304,-2.4538,-2.4775,-2.5645,-2.4833,-2.5577,-2.7132,-2.7132,-2.8075,0.0,0.0,0.0,0.0,0.0,0.0,0.0,-2.7762,-2.7489,-2.7071,-2.6794,-2.64,-2.5994,-2.5742,-2.5509,0.0,0.0,0.0,0.0,0.0,0.0,0.0,0.0,0.0,0.0,0.0,0.0,0.0,0.0,0.0,0.0,0.0,0.0,0.0,0.0,0.0,0.0,0.0,0.0,0.0,0.0,0.0,0.0,0.0,0.0,0.0,-2.4292,-2.5744,-2.7008,-2.8041,-2.8641,-2.918,0.0,-3.0039,-3.0439,-3.0869,-3.0312,-2.977,-2.9253,-2.8809,-2.8717,-2.892,-2.8983,-2.9333,-2.986,-3.0069,-3.0537,-3.1253,-3.1447,-3.1572,-3.1714,0.0,0.0,0.0,0.0,0.0,0.0,0.0,0.0,0.0,0.0,0.0,0.0,0.0,0.0,0.0,0.0,0.0,0.0,0.0,0.0,0.0,-2.2831,-2.327,-2.359,-2.3831,-2.4091,-2.4202,-2.4202,-2.4202,-2.4202,0.0,0.0,-2.4202,-2.4202,-2.4686,-2.4922,-2.4971,-2.4922,-2.5489,-2.6398,-2.5868,-2.6856,-2.8656,-2.8656,-2.9268,-3.017,-2.9943,0.0,0.0,0.0,0.0,0.0,0.0,0.0,-2.7584,-2.7309,-2.6986,-2.6602,-2.6197,0.0,0.0,0.0,0.0,0.0,0.0,0.0,0.0,0.0,0.0,0.0,0.0,0.0,0.0,0.0,0.0,0.0,0.0,0.0,0.0,0.0,0.0,0.0,0.0,0.0,0.0,0.0,0.0,0.0,0.0,-2.3199,-2.4347,-2.5516,-2.6735,-2.7682,-2.8291,-2.8506,-2.8828,-2.9258,-2.9865,-3.0529,-3.1325,-3.0707,-3.0257,-2.9889,-2.9449,-2.9303,-2.9434,-2.9381,-2.9703,-3.0227,-3.0625,-3.1203,-3.183,-3.2046,-3.2168,-3.2258,0.0,0.0,0.0,0.0,0.0,0.0,0.0,0.0,0.0,0.0,0.0,0.0,0.0,0.0,0.0,0.0,0.0,0.0,0.0,0.0,0.0,0.0,-2.3563,-2.3804,-2.4192,-2.4202,-2.4202,-2.4202,-2.4202,0.0,0.0,0.0,0.0,-2.4489,0.0,-2.5157,-2.4775,-2.5401,-2.6302,-2.7189,-2.7189,-2.8283,-2.9932,-2.9932,-3.0034,-3.0216,-3.0216,-2.9943,-2.9623,-2.9623,0.0,0.0,0.0,0.0,-2.8034,-2.7773,-2.7357,-2.689,-2.639,0.0,-2.5897,0.0,0.0,0.0,0.0,0.0,0.0,0.0,0.0,0.0,0.0,0.0,0.0,0.0,0.0,0.0,0.0,0.0,0.0,0.0,0.0,0.0,0.0,0.0,0.0,0.0,0.0,0.0,-2.2982,-2.4292,-2.5452,-2.6472,-2.7736,-2.8354,-2.8354,-2.8398,-2.8667,-2.9035,-2.9832,-3.0737,-3.1724,-3.1214,-3.09,-3.0671,-3.0162,-2.9985,-2.9938,-2.9829,-3.0038,-3.0478,-3.1161,-3.1702,-3.2153,-3.2535,-3.2669,-3.2669,0.0,0.0,0.0,0.0,0.0,0.0,0.0,0.0,0.0,0.0,-2.1696,0.0,0.0,0.0,0.0,0.0,0.0,0.0,0.0,0.0,0.0,-2.3489,-2.3877,-2.4146,-2.4202,-2.4202,-2.4202,-2.4202,0.0,0.0,0.0,0.0,0.0,-2.545,0.0,-2.5294,-2.6761,-2.6022,-2.6302,-2.7189,-2.7189,-2.7898,-2.891,-2.891,0.0,0.0,-3.0216,-3.017,-3.0125,-3.0125,-2.9806,0.0,0.0,0.0,-2.8538,-2.8092,-2.7726,-2.7404,0.0,0.0,0.0,0.0,0.0,0.0,0.0,0.0,0.0,0.0,0.0,0.0,0.0,0.0,0.0,0.0,0.0,0.0,0.0,0.0,0.0,0.0,0.0,0.0,0.0,0.0,0.0,0.0,0.0,0.0,-2.303,-2.5084,-2.6354,-2.6472,-2.7906,-2.8631,-2.8631,-2.8877,-2.9193,-2.9697,-3.0529,-3.1206,-3.162,-3.1956,-3.1854,-3.1462,-3.0948,-3.0704,-3.057,-3.0562,-3.081,-3.1233,-3.135,-3.1888,-3.2587,-3.2706,-3.2669,-3.2669,0.0,0.0,0.0,0.0,0.0,0.0,0.0,0.0,0.0,0.0,0.0,-2.1696,0.0,0.0,0.0,0.0,0.0,0.0,0.0,0.0,0.0,-2.3877,-2.411,-2.4202,-2.4202,-2.4202,-2.4202,-2.4202,0.0,0.0,0.0,-2.4202,-2.4449,0.0,0.0,0.0,0.0,-2.7115,-2.7636,-2.8049,-2.8049,-2.8667,0.0,0.0,0.0,0.0,0.0,0.0,0.0,-3.0216,-3.008,-2.9897,-2.9897,0.0,0.0,0.0,-2.8549,0.0,-2.7452,0.0,0.0,0.0,0.0,0.0,0.0,0.0,0.0,0.0,0.0,0.0,0.0,0.0,0.0,0.0,0.0,0.0,0.0,0.0,0.0,0.0,0.0,0.0,0.0,0.0,0.0,0.0,0.0,-2.4782,-2.4974,-2.5917,-2.6853,-2.7691,-2.8344,-2.8781,-2.893,-2.9026,-2.9406,-3.0012,-3.066,-3.1274,-3.1819,-3.2282,-3.2442,-3.2169,-3.1706,-3.1453,-3.1422,-3.1174,-3.134,-3.1754,-3.1754,-3.2157,-3.2669,-3.2669,-3.2669,-3.2669,0.0,0.0,0.0,0.0,0.0,0.0,0.0,0.0,0.0,0.0,0.0,0.0,0.0,0.0,0.0,0.0,0.0,0.0,0.0,0.0,0.0,-2.4192,-2.4202,-2.4202,-2.4202,-2.4202,-2.435,0.0,0.0,0.0,-2.4587,-2.4587,-2.4587,0.0,-2.6157,-2.6675,0.0,0.0,0.0,0.0,0.0,0.0,0.0,0.0,0.0,0.0,0.0,0.0,0.0,0.0,0.0,0.0,0.0,0.0,0.0,0.0,0.0,0.0,0.0,0.0,0.0,0.0,0.0,0.0,0.0,0.0,0.0,0.0,0.0,0.0,0.0,0.0,0.0,0.0,0.0,0.0,0.0,0.0,0.0,0.0,0.0,0.0,0.0,0.0,0.0,0.0,0.0,-2.5891,-2.6572,-2.6907,-2.7565,-2.8781,-2.8887,-2.9036,-2.9237,-2.929,-2.9611,-3.0161,-3.0622,-3.1192,-3.1833,-3.2344,-3.2566,-3.2659,-3.2308,-3.2091,-3.1957,-3.1681,-3.1743,-3.1988,-3.1988,-3.2266,-3.2669,-3.2669,-3.2669,-3.2669,0.0,0.0,0.0,0.0,0.0,0.0,0.0,0.0,0.0,0.0,0.0,0.0,0.0,0.0,0.0,-2.2245,0.0,0.0,0.0,0.0,0.0,-2.4202,-2.4202,0.0,-2.4202,-2.4202,0.0,0.0,0.0,0.0,-2.5596,-2.5596,-2.5596,-2.5645,-2.5742,-2.6829,-2.8527,0.0,0.0,0.0,0.0,0.0,0.0,0.0,0.0,0.0,0.0,0.0,0.0,0.0,0.0,0.0,0.0,0.0,0.0,0.0,0.0,0.0,0.0,0.0,0.0,0.0,0.0,0.0,0.0,0.0,0.0,0.0,0.0,0.0,0.0,0.0,0.0,0.0,0.0,0.0,0.0,0.0,0.0,0.0,0.0,0.0,0.0,0.0,0.0,0.0,0.0,-2.7726,-2.6924,-2.7941,-2.8717,-2.9079,-2.9396,-2.9554,-2.9554,-2.9827,-2.9952,-3.0036,-3.0501,-3.0957,-3.1422,-3.1868,-3.2256,-3.2669,-3.2649,-3.239,-3.1988,-3.1957,-3.1967,-3.1988,-3.1988,-3.2266,-3.2669,-3.2669,-3.2669,-3.2669,0.0,0.0,0.0,0.0,0.0,0.0,0.0,0.0,0.0,0.0,0.0,0.0,0.0,-2.219,-2.2391,-2.2657,-2.305,0.0,0.0,0.0,0.0,-2.4202,-2.4202,-2.4202,-2.4202,-2.4824,0.0,0.0,0.0,-2.5684,-2.6628,-2.6022,-2.6408,-2.7636,-2.7636,-2.8013,-2.8724,-2.9371,0.0,0.0,0.0,0.0,0.0,0.0,0.0,0.0,0.0,0.0,0.0,0.0,0.0,0.0,0.0,0.0,0.0,0.0,0.0,0.0,0.0,0.0,0.0,0.0,0.0,0.0,0.0,0.0,0.0,0.0,0.0,0.0,0.0,0.0,0.0,0.0,0.0,0.0,0.0,0.0,0.0,0.0,0.0,0.0,0.0,0.0,0.0,0.0,0.0,0.0,-2.8057,-2.8654,-2.9089,-2.9396,-2.9554,-2.9659,-2.9879,-2.9942,-2.9994,-3.0005,-3.047,-3.0936,-3.1391,-3.1836,-3.2235,-3.2669,-3.2669,-3.2576,-3.2432,-3.2432,-3.2432,-3.2432,-3.2432,-3.2525,-3.2669,-3.2669,-3.2669,-3.2669,0.0,0.0,0.0,0.0,0.0,0.0,0.0,0.0,0.0,0.0,0.0,0.0,0.0,0.0,-2.2858,-2.3318,-2.3873,-2.424,-2.4183,-2.4202,-2.4202,-2.4202,-2.4538,-2.4538,-2.4202,0.0,0.0,0.0,0.0,0.0,0.0,-2.6867,-2.74,-2.8724,-2.9048,-2.9187,0.0,0.0,0.0,-3.0216,0.0,0.0,-3.0216,0.0,0.0,0.0,0.0,0.0,0.0,0.0,0.0,0.0,0.0,0.0,0.0,0.0,0.0,0.0,0.0,0.0,0.0,0.0,0.0,0.0,0.0,0.0,0.0,0.0,0.0,0.0,0.0,0.0,0.0,0.0,0.0,0.0,0.0,0.0,0.0,0.0,0.0,0.0,0.0,0.0,0.0,0.0,0.0,0.0,-2.8824,-2.9089,-2.9396,-2.9722,-2.9711,-2.9827,-2.9994,-2.9994,-2.9994,-3.0005,-3.0315,-3.0698,-3.1164,-3.1609,-3.2064,-3.2452,-3.2607,-3.2669,-3.2669,-3.2669,-3.2669,-3.2669,-3.2669,-3.2669,-3.2669,-3.2669,-3.2669,-3.2669,0.0,0.0,0.0,0.0,0.0,0.0,0.0,0.0,0.0,0.0,0.0,0.0,0.0,0.0,0.0,-2.4165,-2.5069,-2.5265,-2.4301,-2.4251,-2.4251,-2.4301,0.0,0.0,0.0,0.0,0.0,0.0,0.0,0.0,0.0,0.0,-2.8724,-2.8771,-2.9749,-3.0216,-3.0216,0.0,-3.0216,-3.0216,0.0,-3.0216,-3.0216,0.0,0.0,0.0,-3.0883,-3.0826,0.0,0.0,0.0,0.0,0.0,0.0,0.0,0.0,0.0,0.0,0.0,0.0,0.0,0.0,0.0,0.0,0.0,0.0,0.0,0.0,0.0,0.0,0.0,0.0,0.0,0.0,0.0,0.0,0.0,0.0,0.0,0.0,0.0,0.0,0.0,0.0,0.0,0.0,0.0,-2.9132,-2.9132,-2.9448,-2.9711,-2.9994,-2.9994,-2.9994,-2.9994,-2.9994,-2.9994,-2.9994,-2.9994,-3.0243,-3.0708,-3.1164,-3.1619,-3.2008,-3.2473,-3.2669,-3.2669,-3.2669,-3.2669,-3.2669,-3.2669,-3.2669,-3.2669,-3.2669,-3.2669,-3.2669,0.0,0.0,0.0,0.0,0.0,0.0,0.0,0.0,0.0,0.0,0.0,0.0,0.0,0.0,0.0,-2.4242,-2.444,-2.4833,-2.5265,-2.5314,-2.5586,-2.634,-2.5926,0.0,0.0,0.0,0.0,0.0,0.0,0.0,0.0,0.0,0.0,0.0,-3.008,-3.0216,-3.0216,-3.0216,0.0,0.0,-3.0216,-3.0216,0.0,0.0,0.0,0.0,0.0,-3.0646,0.0,0.0,-3.0859,-3.1026,0.0,0.0,0.0,0.0,0.0,0.0,-3.0261,0.0,0.0,0.0,0.0,0.0,0.0,0.0,0.0,0.0,0.0,0.0,0.0,0.0,0.0,0.0,0.0,0.0,0.0,0.0,0.0,0.0,0.0,0.0,0.0,0.0,0.0,0.0,-2.93,-2.9669,-2.9448,-2.9722,-2.9942,-2.9994,-2.9994,-2.9994,-2.9994,-2.9994,-2.9994,-2.9994,-2.9994,-3.0243,-3.0708,-3.1164,-3.1619,-3.2008,-3.2473,-3.2669,-3.2669,-3.2669,-3.2669,-3.2669,-3.2669,-3.2669,-3.2669,-3.2669,-3.2669,-3.2669,0.0,0.0,0.0,0.0,0.0,0.0,0.0,0.0,0.0,0.0,0.0,0.0,0.0,0.0,0.0,-2.4922,-2.5586,-2.6157,-2.6302,-2.635,-2.658,-2.7189,-2.7057,-2.701,0.0,0.0,0.0,0.0,0.0,0.0,0.0,0.0,0.0,0.0,0.0,0.0,0.0,0.0,0.0,0.0,-3.0216,0.0,0.0,-3.0306,-3.0442,0.0,0.0,0.0,-3.0927,-3.0544,-3.0668,0.0,0.0,0.0,0.0,0.0,0.0,0.0,0.0,0.0,0.0,0.0,0.0,0.0,-2.9358,-2.9348,0.0,0.0,0.0,0.0,0.0,0.0,0.0,0.0,0.0,0.0,0.0,0.0,0.0,0.0,0.0,0.0,0.0,0.0,0.0,-2.8877,-2.9574,-2.9942,-2.9774,-2.9942,-2.9994,-2.9994,-2.9994,-2.9994,-2.9994,-2.9994,-2.9994,-2.9994,-2.9994,-3.0139,-3.0419,-3.1081,-3.1516,-3.1805,-3.239,-3.2669,-3.2669,-3.2669,-3.2669,-3.2669,-3.2669,-3.2669,-3.2669,-3.2669,-3.2669,-3.2669,0.0,0.0,0.0,0.0,0.0,0.0,0.0,0.0,0.0,0.0,0.0,0.0,0.0,0.0,0.0,0.0,-2.7484,-2.82,-2.7426,-2.7379,0.0,-2.7521,-2.8294,-2.8341,-2.7568,0.0,0.0,0.0,0.0,0.0,0.0,0.0,0.0,0.0,0.0,0.0,0.0,0.0,0.0,-3.0216,-3.0216,-3.0216,0.0,0.0,-3.0578,0.0,-3.0578,-3.0724,-3.0838,-3.0408,-3.0442,0.0,0.0,0.0,0.0,0.0,-3.1017,0.0,0.0,0.0,0.0,0.0,0.0,0.0,-3.0045,-2.9803,-2.9611,0.0,0.0,0.0,0.0,0.0,0.0,0.0,0.0,0.0,0.0,0.0,0.0,0.0,0.0,0.0,0.0,-2.9448,-2.9501,-2.9185,-2.9669,-2.9994,-2.9994,-2.9994,-2.9994,-2.9994,-2.9994,-2.9994,-2.9994,-2.9994,-2.9994,-2.9994,-2.9994,-2.9994,-3.0025,-3.0905,-3.1329,-3.1422,-3.2282,-3.2628,-3.2669,-3.2669,-3.2669,-3.2669,-3.2669,-3.2669,-3.2669,-3.2669,-3.2669,-3.2669,0.0,0.0,0.0,0.0,0.0,0.0,0.0,0.0,0.0,0.0,0.0,0.0,0.0,0.0,0.0,0.0,0.0,-2.7767,-2.8387,-2.8387,-2.876,-2.96,-2.9048,-2.9002,-2.96,-2.9002,0.0,0.0,0.0,0.0,0.0,0.0,0.0,0.0,0.0,0.0,0.0,0.0,0.0,-3.0216,-3.0216,0.0,-3.0216,-3.0261,-3.0261,-3.0261,-3.0261,-3.0306,-3.0408,0.0,-3.1005,-3.1205,0.0,0.0,0.0,0.0,0.0,0.0,0.0,0.0,0.0,0.0,0.0,0.0,-2.9747,-2.9851,-2.995,0.0,0.0,0.0,0.0,0.0,0.0,0.0,0.0,0.0,0.0,0.0,0.0,0.0,0.0,0.0,0.0,-2.9774,-2.9827,-2.9501,-2.9827,-2.9994,-2.9994,-2.9994,-2.9994,-2.9994,-2.9994,-2.9994,-2.9994,-2.9994,-2.9994,-2.9994,-2.9994,-2.9994,-3.0015,-3.0563,-3.1029,-3.1412,-3.194,-3.2328,-3.2669,-3.2669,-3.2669,-3.2669,-3.2669,-3.2669,-3.2669,-3.2669,-3.2669,-3.2669,0.0,0.0,0.0,0.0,0.0,0.0,0.0,0.0,0.0,0.0,0.0,0.0,0.0,0.0,0.0,0.0,0.0,0.0,0.0,0.0,0.0,-3.017,-2.9703,-2.9703,-3.017,-2.9703,-2.9703,0.0,0.0,0.0,0.0,0.0,0.0,0.0,0.0,0.0,0.0,0.0,-3.0216,-3.0216,-3.0216,0.0,-3.0216,-3.0216,-3.0216,-3.0216,-3.0216,-3.0216,-3.0306,-3.0916,-3.1139,0.0,0.0,-3.1705,-3.1661,0.0,-3.1484,-3.1439,0.0,0.0,0.0,-3.0871,0.0,0.0,0.0,-3.0136,-3.0108,0.0,0.0,0.0,0.0,0.0,0.0,0.0,0.0,0.0,0.0,0.0,0.0,0.0,0.0,0.0,0.0,-2.9942,-2.9942,-2.9827,-2.9942,-2.9994,-2.9994,-2.9994,-2.9994,-2.9994,-2.9994,-2.9994,-2.9994,-2.9994,-2.9994,-2.9994,-2.9994,-2.9994,-3.0015,-3.047,-3.0936,-3.1402,-3.1847,-3.2246,-3.2669,-3.2669,-3.2669,-3.2669,-3.2669,-3.2669,-3.2669,-3.2669,-3.2669,-3.2669,-2.5742,0.0,0.0,0.0,0.0,0.0,0.0,0.0,0.0,0.0,0.0,0.0,0.0,0.0,0.0,0.0,0.0,0.0,0.0,0.0,0.0,0.0,-3.0216,-3.0216,-3.0216,-3.0216,-3.0216,0.0,0.0,0.0,0.0,0.0,0.0,0.0,0.0,0.0,0.0,0.0,0.0,-3.0216,0.0,-3.0216,-3.0216,-3.0216,-3.0216,-3.0216,-3.0216,-3.0216,-3.0408,-3.1144,0.0,-3.1317,-3.186,-3.1958,0.0,0.0,0.0,0.0,0.0,0.0,0.0,0.0,0.0,-3.0623,0.0,0.0,0.0,-3.0187,0.0,0.0,0.0,0.0,0.0,0.0,0.0,0.0,0.0,0.0,0.0,0.0,0.0,0.0,0.0,-2.9942,-2.9994,-2.9994,-2.9994,-2.9994,-2.9994,-2.9994,-2.9994,-2.9994,-2.9994,-2.9994,-2.9994,-2.9994,-2.9994,-2.9994,-2.9994,-2.9994,-3.0015,-3.0483,-3.1004,-3.1556,-3.1909,-3.2388,-3.2841,-3.2727,-3.2784,-3.2841,-3.2727,-3.2669,-3.2669,-3.2669,-3.2669,-3.2669,-2.5984,-2.5586,0.0,0.0,0.0,0.0,0.0,0.0,0.0,0.0,0.0,0.0,0.0,0.0,0.0,0.0,0.0,0.0,-3.0216,0.0,0.0,0.0,0.0,0.0,-3.0216,-3.0216,-3.0216,-3.0216,0.0,0.0,0.0,0.0,0.0,0.0,-3.0216,0.0,0.0,0.0,-3.0216,0.0,-3.0216,-3.0216,0.0,-3.0216,-3.0216,-3.0216,-3.0216,-3.0352,-3.0692,0.0,-3.1813,-3.2091,0.0,-3.2779,0.0,0.0,0.0,0.0,0.0,0.0,0.0,0.0,-3.0984,0.0,0.0,0.0,-3.0182,-3.0205,0.0,0.0,0.0,0.0,0.0,0.0,0.0,0.0,0.0,0.0,0.0,0.0,0.0,0.0,0.0,0.0,-2.9994,-2.9994,-2.9994,-2.9994,-2.9994,-2.9994,-2.9994,-2.9994,-2.9994,-2.9994,-2.9994,-2.9994,-2.9994,-2.9994,-2.9994,-2.9994,-2.9994,-3.0548,-3.1254,-3.2102,-3.2155,-3.2685,-3.3466,-3.2898,-3.3012,-3.3455,-3.2898,-3.2669,-3.2669,-3.2669,-3.2669,-3.2669,-2.6552,-2.721,0.0,0.0,0.0,0.0,0.0,0.0,0.0,0.0,0.0,0.0,0.0,0.0,0.0,0.0,0.0,-3.0216,0.0,0.0,0.0,0.0,0.0,0.0,0.0,-3.0216,-3.0216,-3.0216,-3.0216,0.0,0.0,0.0,0.0,0.0,-3.0216,0.0,-3.0216,0.0,0.0,0.0,0.0,0.0,0.0,-3.0216,-3.0216,-3.0262,-3.056,-3.0721,-3.094,0.0,-3.2113,0.0,0.0,0.0,0.0,0.0,0.0,0.0,0.0,0.0,0.0,0.0,0.0,0.0,0.0,0.0,-3.0216,0.0,0.0,0.0,0.0,0.0,0.0,0.0,0.0,0.0,0.0,0.0,0.0,0.0,0.0,0.0,0.0,0.0,0.0,0.0,0.0,-2.9994,-2.9994,-2.9994,-2.9994,-2.9994,-2.9994,-3.0141,-3.0443,-3.0141,-3.0141,-3.0443,-3.0443,-3.0443,-3.0495,-3.1002,-3.1637,-3.2243,-3.2201,-3.2747,-3.3666,-3.3339,-3.3558,-3.4054,-3.3455,-3.3229,-3.3182,-3.2841,-3.2669,-3.2669,-2.7098,0.0,0.0,0.0,0.0,0.0,0.0,0.0,0.0,0.0,0.0,0.0,-3.017,-3.0216,0.0,0.0,0.0,-3.0216,0.0,0.0,-3.0216,0.0,0.0,0.0,0.0,0.0,0.0,-3.0216,0.0,0.0,0.0,0.0,0.0,0.0,0.0,-3.0216,-3.0216,0.0,0.0,-3.0216,-3.0216,-3.0216,-3.0216,-3.0216,-3.0308,-3.048,-3.0882,-3.11,-3.1342,-3.2063,-3.2463,0.0,-3.2852,0.0,0.0,0.0,0.0,0.0,-3.3145,0.0,0.0,0.0,0.0,0.0,0.0,0.0,0.0,0.0,0.0,0.0,0.0,0.0,0.0,0.0,0.0,0.0,0.0,0.0,0.0,0.0,0.0,0.0,0.0,0.0,0.0,0.0,-3.0264,-3.0213,-3.0235,-3.0349,-3.0297,-2.9994,-3.0297,-3.0547,-3.0785,-3.0391,-3.0495,-3.0991,-3.0888,-3.0888,-3.1054,-3.1567,-3.1994,-3.232,-3.2597,-3.3063,-3.3759,-3.3804,-3.411,-3.4424,-3.384,-3.3681,-3.3727,-3.3001,-3.2784,-3.2898,-2.7394,-2.7088,0.0,0.0,0.0,0.0,0.0,0.0,0.0,0.0,0.0,0.0,0.0,0.0,0.0,0.0,0.0,-3.0216,-3.0216,0.0,-3.0216,0.0,0.0,0.0,0.0,0.0,0.0,0.0,0.0,0.0,0.0,0.0,0.0,0.0,0.0,-3.0216,-3.0216,-3.0216,-3.0216,-3.0216,-3.0216,-3.0216,-3.0216,0.0,-3.0537,-3.0996,-3.1008,0.0,0.0,-3.2632,-3.2891,0.0,0.0,0.0,0.0,0.0,0.0,0.0,0.0,0.0,0.0,-3.2898,0.0,0.0,0.0,0.0,-3.1205,0.0,0.0,0.0,0.0,0.0,0.0,0.0,0.0,0.0,0.0,0.0,0.0,0.0,0.0,0.0,0.0,0.0,0.0,-3.0837,-3.0869,-3.0813,-3.0764,-3.1259,-3.1064,-3.0047,-3.1013,-3.1311,-3.0785,-3.0785,-3.1054,-3.1567,-3.1043,-3.1054,-3.1567,-3.2117,-3.2383,-3.2477,-3.3393,-3.3839,-3.3825,-3.4283,-3.448,-3.4424,-3.384,-3.3942,-3.4312,-3.3172,-3.3069,-3.3512,0.0,0.0,0.0,0.0,0.0,0.0,0.0,-2.8409,0.0,0.0,0.0,0.0,0.0,0.0,-2.9852,0.0,0.0,-3.0216,-3.0216,-3.0216,0.0,0.0,0.0,-3.0216,0.0,0.0,0.0,0.0,0.0,0.0,0.0,0.0,0.0,0.0,0.0,-3.0216,0.0,0.0,0.0,0.0,0.0,-3.0422,-3.0744,0.0,0.0,-3.11,-3.1754,-3.2099,0.0,-3.2932,-3.3264,-3.3435,-3.3522,-3.3712,-3.3817,-3.3621,-3.3541,0.0,0.0,0.0,-3.3416,-3.3446,0.0,0.0,0.0,0.0,0.0,0.0,0.0,0.0,0.0,0.0,0.0,0.0,0.0,0.0,0.0,0.0,0.0,0.0,0.0,0.0,0.0,0.0,0.0,-3.0335,-3.0712,-3.0863,-3.0875,-3.1342,-3.1414,-3.1064,-3.1424,-3.1669,-3.1852,-3.1516,-3.1618,-3.2117,-3.1964,-3.1953,-3.2167,-3.2745,-3.301,-3.3011,-3.3638,-3.4087,-3.4471,-3.4933,-3.5323,-3.5653,-3.5046,-3.4936,-3.4925,-3.3727,-3.3399,-3.3512,-2.7309,0.0,0.0,0.0,0.0,0.0,0.0,0.0,0.0,0.0,-2.8445,0.0,-2.9152,0.0,-2.9623,0.0,-3.008,-3.0216,-3.0216,-3.0216,0.0,-3.0216,-3.0216,0.0,0.0,0.0,0.0,0.0,0.0,-3.0216,0.0,0.0,0.0,0.0,0.0,0.0,0.0,0.0,-3.0216,0.0,0.0,-3.0537,0.0,0.0,-3.1375,-3.1616,0.0,-3.2604,-3.2822,-3.3166,-3.3431,-3.353,-3.3331,-3.353,-3.3779,-3.363,-3.3679,-3.3828,-3.3927,-3.3828,0.0,-3.381,-3.3558,0.0,-3.3232,0.0,0.0,0.0,0.0,0.0,0.0,0.0,0.0,0.0,0.0,0.0,0.0,-3.0216,0.0,0.0,0.0,0.0,0.0,0.0,-2.9875,-3.0385,-3.0756,-3.0991,0.0,0.0,-3.1799,-3.1618,-3.1986,-3.228,-3.2409,-3.2066,-3.2179,-3.2734,-3.2521,-3.2521,-3.2734,-3.3119,-3.3181,-3.3003,-3.3679,-3.4143,-3.458,-3.5174,-3.5659,-3.5938,-3.5543,-3.5378,-3.5268,-3.4065,-3.3625,-3.3625,0.0,0.0,0.0,0.0,-2.7309,0.0,0.0,0.0,-2.7441,0.0,-2.7998,-2.8128,-2.8631,-2.9106,-2.9439,-2.9485,-2.9897,0.0,-3.0216,-3.0216,0.0,0.0,-3.0216,-3.0216,-3.0216,0.0,0.0,0.0,0.0,0.0,0.0,0.0,0.0,0.0,-3.0261,0.0,-3.0216,-3.0261,-3.0216,-3.0216,-3.025,-3.0572,-3.11,-3.1534,-3.2087,-3.2523,-3.2523,-3.2845,-3.3281,-3.3281,-3.3281,-3.3281,-3.3281,-3.3281,-3.3281,-3.3281,-3.3281,-3.3331,-3.363,-3.3679,-3.3729,-3.4026,0.0,0.0,0.0,0.0,-3.3171,0.0,0.0,0.0,0.0,0.0,0.0,0.0,0.0,0.0,0.0,0.0,0.0,0.0,0.0,0.0,0.0,-3.0216,-3.0422,-3.0939,-3.1008,-3.1208,0.0,0.0,-3.2275,-3.171,-3.2718,-3.3008,-3.2471,-3.242,-3.2745,-3.3281,-3.2734,-3.2734,-3.3281,-3.3281,-3.3008,-3.2493,-3.3571,-3.4033,-3.4125,-3.5101,-3.5483,-3.5433,-3.5433,-3.5433,-3.5268,-3.4121,-3.3681,-3.384,-2.7309,-2.7309,-2.7309,0.0,-2.7309,-2.7309,0.0,0.0,0.0,0.0,-2.7489,-2.7668,-2.8128,-2.8315,-2.8689,-2.9439,-2.9623,0.0,0.0,0.0,0.0,-3.0216,-3.0216,-3.0216,-3.0216,-3.0216,0.0,-3.0216,0.0,0.0,-3.0216,0.0,0.0,0.0,0.0,0.0,-3.0261,-3.0802,-3.0713,-3.025,-3.0652,-3.1111,0.0,0.0,-3.2615,-3.3074,-3.3074,-3.3166,-3.3281,-3.3281,-3.3281,-3.3281,-3.3281,-3.3281,-3.3281,-3.3281,-3.3281,-3.3331,-3.3381,-3.3381,-3.3481,-3.3729,-3.3779,-3.3843,0.0,0.0,0.0,0.0,0.0,0.0,0.0,0.0,0.0,0.0,0.0,0.0,0.0,0.0,0.0,-3.0216,0.0,0.0,0.0,-3.0216,-3.0273,-3.0411,-3.079,-3.1248,0.0,0.0,0.0,-3.2846,-3.3131,-3.3231,-3.3069,-3.3069,-3.3119,-3.3281,-3.3119,-3.317,-3.3281,-3.3281,-3.3231,-3.3092,-3.3735,-3.4251,-3.4621,-3.526,-3.571,-3.6048,-3.6048,-3.5763,-3.5378,-3.5046,-3.4936,-3.4825,-2.7309,0.0,0.0,-2.7309,0.0,0.0,-2.7309,0.0,0.0,-2.7309,-2.7309,0.0,-2.7678,-2.7857,-2.8315,-2.9106,-2.9336,0.0,0.0,0.0,0.0,-3.0216,-3.0216,-3.0216,-3.0216,-3.0216,0.0,-3.0216,0.0,0.0,-3.0216,0.0,0.0,0.0,0.0,-3.1327,0.0,-3.0758,-3.0886,-3.0972,-3.0974,0.0,0.0,-3.2386,-3.2822,-3.3281,-3.3281,-3.3281,-3.3281,-3.3281,-3.3281,-3.3281,-3.3281,-3.3281,-3.3281,-3.3281,-3.3281,-3.3281,-3.3281,-3.3281,-3.3331,-3.3481,-3.353,-3.358,-3.3878,-3.3705,-3.3494,0.0,0.0,0.0,0.0,0.0,0.0,0.0,0.0,0.0,0.0,0.0,0.0,0.0,0.0,0.0,0.0,-3.0216,-3.0216,-3.0216,-3.0491,-3.0893,0.0,0.0,0.0,-3.2914,-3.3166,-3.3281,-3.3281,-3.3281,-3.3281,-3.3281,-3.3281,-3.3281,-3.3281,-3.3281,-3.3281,-3.3292,-3.3568,-3.4108,-3.4819,-3.5095,-3.5623,-3.632,-3.6688,-3.6406,-3.5817,-3.6177,-3.5916,-3.5323,0.0,0.0,0.0,0.0,0.0,0.0,0.0,-2.7309,0.0,-2.7309,0.0,-2.7309,-2.7309,-2.7668,-2.8128,-2.8631,0.0,-2.9612,-3.017,-3.0216,-3.0216,-3.0216,-3.0216,-3.0216,-3.0216,-3.0216,0.0,0.0,0.0,0.0,0.0,0.0,0.0,0.0,0.0,0.0,0.0,-3.0623,-3.0913,0.0,-3.1298,-3.1662,-3.2489,-3.2569,-3.2879,-3.3281,-3.3281,-3.3281,-3.3281,-3.3281,-3.3281,-3.3281,-3.3281,-3.3281,-3.3281,-3.3281,-3.3281,-3.3281,-3.3281,-3.3281,-3.3281,-3.3281,-3.3281,-3.3381,-3.358,-3.363,-3.363,-3.363,-3.3478,-3.314,0.0,0.0,0.0,0.0,0.0,0.0,0.0,0.0,0.0,0.0,0.0,0.0,0.0,0.0,-3.0306,-3.0216,-3.0306,-3.0548,0.0,0.0,0.0,-3.2466,-3.3005,0.0,-3.3281,0.0,-3.3281,-3.3281,-3.3281,-3.3281,-3.3281,-3.3281,-3.3281,-3.3281,-3.3281,-3.3866,-3.4796,-3.4796,-3.5435,-3.6526,-3.7203,-3.715,-3.6688,-3.7418,-3.6869,-3.5861,0.0,0.0,0.0,0.0,0.0,-2.7309,-2.7309,-2.7309,-2.7309,-2.7309,-2.7309,-2.7309,-2.7309,-2.7357,-2.7762,-2.8631,-2.8771,0.0,0.0,0.0,0.0,-3.0216,-3.0216,-3.0216,-3.0216,-3.0216,-3.0216,0.0,0.0,0.0,0.0,0.0,0.0,0.0,0.0,0.0,-3.1306,-3.1172,0.0,-3.1228,-3.1491,-3.1961,-3.2535,-3.2982,-3.3201,-3.3281,-3.3281,-3.3281,-3.3281,-3.3281,-3.3281,-3.3281,-3.3281,-3.3281,-3.3281,-3.3281,-3.3281,-3.3281,-3.3281,-3.3281,-3.3281,-3.3281,-3.3281,-3.3331,-3.3331,-3.3381,-3.3381,-3.3381,-3.3312,-3.3165,-3.2618,0.0,0.0,0.0,0.0,0.0,0.0,0.0,0.0,0.0,0.0,0.0,0.0,0.0,0.0,0.0,0.0,0.0,0.0,0.0,0.0,0.0,-3.3005,0.0,0.0,0.0,-3.3281,-3.3281,-3.3281,-3.3281,-3.3281,-3.3281,-3.3281,-3.3281,-3.3281,-3.3866,-3.4796,-3.4796,-3.5782,-3.7299,-3.7459,-3.7832,-3.8372,-3.853,-3.8425,-3.7938,0.0,0.0,0.0,0.0,0.0,0.0,0.0,-2.7309,0.0,-2.7309,-2.7309,-2.7309,-2.7309,-2.7309,-2.7678,-2.8631,-2.8678,-2.9141,-3.0125,-3.0216,-3.0216,-3.0216,-3.0216,0.0,-3.0216,-3.0216,-3.0216,-3.0216,0.0,0.0,0.0,0.0,0.0,0.0,0.0,-3.2326,0.0,0.0,0.0,-3.195,-3.207,-3.2431,-3.2925,-3.3178,-3.3281,-3.3281,-3.3281,-3.3281,-3.3281,-3.3281,-3.3281,-3.3281,-3.3281,-3.3281,-3.3281,-3.3281,-3.3281,-3.3281,-3.3281,-3.3281,-3.3281,-3.3281,-3.3281,-3.3281,-3.3281,-3.3281,-3.3281,-3.3281,-3.3281,-3.312,-3.2581,-3.2195,0.0,0.0,0.0,0.0,0.0,0.0,0.0,0.0,0.0,0.0,0.0,0.0,0.0,0.0,0.0,0.0,0.0,0.0,0.0,0.0,0.0,0.0,0.0,0.0,0.0,-3.3281,-3.3281,-3.3281,-3.3281,-3.3281,-3.3281,-3.3281,-3.3281,-3.3866,-3.4895,-3.5812,-3.6714,-3.7566,-3.853,-3.8844,-3.8844,-3.9324,-3.9169,-3.8582,0.0,-2.7309,0.0,0.0,-2.7309,0.0,-2.7309,-2.7309,-2.7309,-2.7309,-2.7309,-2.7309,-2.7309,-2.7309,-2.7678,-2.8642,-2.8724,-2.9141,-3.0125,-3.0216,-3.0216,-3.0216,-3.0216,-3.0216,-3.0216,-3.0216,-3.0216,0.0,0.0,0.0,0.0,0.0,0.0,0.0,0.0,0.0,0.0,0.0,-3.1903,-3.2972,-3.2812,-3.3191,-3.3817,-3.3817,-3.3817,-3.3755,-3.3618,-3.3519,-3.3519,-3.3331,-3.3281,-3.3281,-3.3281,-3.3281,-3.3281,-3.3281,-3.3281,-3.3281,-3.3281,-3.3281,-3.3281,-3.3281,-3.3281,-3.3281,-3.3281,-3.3281,-3.3281,-3.3281,-3.3281,-3.3155,-3.273,-3.2569,0.0,0.0,0.0,0.0,0.0,0.0,0.0,0.0,0.0,0.0,0.0,0.0,0.0,0.0,0.0,-3.1163,-3.0422,-3.126,0.0,0.0,0.0,-3.3281,-3.3281,0.0,-3.3281,0.0,-3.3281,-3.3281,-3.3281,-3.3281,-3.3281,-3.3281,-3.3281,-3.3957,-3.5207,-3.6884,-3.7789,-3.8202,-3.9544,-3.9801,-3.9428,-4.0121,-3.9904,-3.9156,0.0,0.0,0.0,0.0,0.0,0.0,0.0,-2.7309,-2.7309,-2.7309,-2.7309,-2.7309,-2.7309,-2.7309,-2.7678,-2.8699,-2.8735,-2.9141,-3.0125,-3.0216,-3.0216,-3.0216,-3.0216,-3.0216,-3.0216,-3.0216,-3.0216,0.0,0.0,0.0,0.0,0.0,0.0,0.0,0.0,0.0,0.0,-3.1986,-3.2591,-3.3625,-3.3577,-3.433,-3.5379,-3.5379,-3.5379,-3.5283,-3.4544,-3.4299,-3.4201,-3.3519,-3.3281,-3.3281,-3.3281,-3.3281,-3.3281,-3.3281,-3.3281,-3.3281,-3.3281,-3.3281,-3.3281,-3.3281,-3.3281,-3.3281,-3.3281,-3.3281,-3.3281,-3.3281,-3.3281,-3.3269,-3.3212,-3.281,-3.2466,0.0,0.0,0.0,0.0,0.0,0.0,0.0,0.0,0.0,0.0,-3.3286,0.0,0.0,-3.2779,-3.1829,-3.0951,-3.1467,-3.1813,-3.1813,0.0,-3.3281,-3.3281,-3.3281,-3.3281,-3.3281,-3.3281,-3.3281,-3.3281,-3.3281,-3.3281,-3.3281,-3.3281,-3.4276,-3.6002,-3.7309,-3.8671,-3.9853,-4.0019,-4.0491,-4.106,-4.1161,-4.1161,-4.0846,0.0,0.0,0.0,0.0,0.0,0.0,0.0,-2.7309,-2.7309,-2.7309,-2.7309,-2.7309,-2.7309,-2.7309,-2.7678,-2.8642,-2.8735,-2.9141,-3.0125,-3.0216,-3.0216,-3.0216,-3.0216,-3.0216,-3.0216,-3.0623,-3.0847,0.0,0.0,0.0,0.0,0.0,0.0,0.0,0.0,-3.2922,-3.3162,-3.3548,-3.3948,-3.4373,-3.4689,-3.5148,-3.5619,-3.5619,-3.5619,-3.5571,-3.5223,-3.5126,-3.5078,-3.4763,-3.4052,-3.3281,-3.3281,-3.3281,-3.3338,-3.3625,-3.3717,-3.3786,-3.4108,-3.4199,-3.4199,-3.4199,-3.3958,-3.3717,-3.3717,-3.3488,-3.3281,-3.3281,-3.3281,-3.3281,-3.3281,-3.3109,-3.296,0.0,0.0,0.0,0.0,0.0,0.0,0.0,0.0,0.0,0.0,0.0,0.0,0.0,0.0,0.0,-3.2229,-3.2641,-3.2731,-3.225,0.0,-3.3281,-3.3281,-3.3281,-3.3281,-3.3281,-3.3281,-3.3281,-3.3281,-3.3281,-3.3281,-3.3342,-3.4082,-3.505,-3.6144,-3.7962,-3.9246,-4.0121,-4.0643,-4.101,-4.1311,-4.1311,-4.1311,-4.1047,-2.7668,0.0,-2.7404,0.0,-2.7489,-2.7309,-2.7309,-2.7536,-2.7631,-2.7357,-2.7536,-2.7631,-2.7309,-2.7441,-2.7857,-2.8642,-2.8874,-2.929,-3.0125,-3.0216,-3.0306,-3.0532,-3.0532,0.0,-3.0824,-3.1327,-3.1593,-3.1593,-3.2773,0.0,0.0,0.0,0.0,0.0,-3.3473,-3.3814,-3.4516,-3.4728,-3.5046,-3.5407,-3.5792,-3.6048,-3.6298,-3.6298,-3.6298,-3.625,-3.6001,-3.5906,-3.5906,-3.5667,-3.486,-3.3953,-3.3706,-3.3711,-3.3858,-3.3952,-3.4108,-3.4326,-3.4705,-3.4796,-3.4796,-3.4796,-3.4521,-3.4234,-3.4234,-3.3855,-3.3453,-3.3315,-3.3281,-3.3281,-3.3281,-3.3281,-3.3281,-3.3281,0.0,0.0,0.0,0.0,0.0,0.0,0.0,-3.2347,-3.2528,0.0,0.0,0.0,0.0,0.0,0.0,-3.3244,0.0,0.0,0.0,0.0,0.0,-3.3281,-3.3281,-3.3281,-3.3281,-3.3281,-3.3331,-3.3519,-3.3607,-3.3729,-3.506,-3.6036,-3.683,-3.8329,-3.9398,-4.0173,-4.0744,-4.0959,-4.0959,-4.1211,-4.1311,-4.1047,-2.8491,-2.7951,-2.7584,-2.8538,-2.7904,-2.7309,-2.7309,-2.8081,-2.8362,-2.7441,-2.8128,-2.8305,-2.7404,-2.7715,-2.8233,-2.8757,-2.9209,-2.9715,-3.017,-3.0216,-3.0532,0.0,0.0,-3.1593,-3.2258,-3.2258,-3.2302,-3.2302,0.0,0.0,-3.4185,0.0,-3.5002,-3.4958,-3.4243,-3.4632,-3.5826,-3.5087,-3.555,-3.6662,-3.6662,-3.7155,-3.7854,-3.7854,-3.7854,-3.7762,-3.6968,-3.6675,-3.6568,-3.5858,-3.5571,-3.5427,-3.4629,-3.4766,-3.5005,-3.4247,-3.4383,-3.4796,-3.4796,-3.4796,-3.4796,-3.4796,-3.4796,-3.4796,-3.4796,-3.4383,-3.3855,-3.3384,-3.3281,-3.3281,-3.3281,-3.3281,-3.3281,-3.3281,0.0,0.0,0.0,0.0,0.0,0.0,-3.3732,-3.3583,-3.4325,0.0,0.0,0.0,0.0,0.0,0.0,0.0,0.0,-3.2489,-3.3005,0.0,-3.3281,-3.3281,-3.3281,-3.3281,-3.3281,-3.3281,-3.3331,-3.4066,-3.4385,-3.4483,-3.5988,-3.7295,-3.8371,-3.8334,-3.9006,-4.007,-4.0121,-4.0121,-4.0236,-4.101,-4.1311,-4.1047,-2.9532,-2.9486,-2.9176,-2.8771,-2.9037,-2.9037,-2.8351,-2.9084,-2.9624,-2.9303,-2.9532,-2.9624,-2.9314,-2.8491,-2.8186,0.0,-2.9198,-2.9715,0.0,-3.0668,-3.1225,-3.1827,-3.2312,-3.2885,-3.351,-3.397,-3.4192,-3.4192,0.0,0.0,0.0,-3.5181,-3.5263,-3.5618,-3.5423,-3.5726,-3.6455,-3.6806,-3.7153,-3.7505,-3.7505,-3.7657,-3.79,-3.79,-3.79,-3.7854,-3.7611,-3.7505,-3.7459,-3.7273,-3.7411,-3.7565,-3.6837,-3.632,-3.6135,-3.6599,-3.6835,-3.7051,-3.7425,-3.7521,-3.7521,-3.7521,-3.7244,-3.6824,-3.6277,-3.5027,-3.3958,-3.3809,-3.3511,-3.3281,-3.3281,-3.3281,-3.3281,-3.3281,-3.3281,0.0,0.0,0.0,0.0,0.0,0.0,-3.3381,0.0,-3.3656,0.0,0.0,0.0,0.0,0.0,0.0,0.0,0.0,-3.3201,0.0,-3.3281,-3.3281,-3.3281,-3.3281,-3.3281,-3.3281,-3.3331,-3.4066,-3.4385,-3.4434,-3.5511,-3.6351,-3.7047,-3.7432,-3.8003,-3.8699,-3.9072,-3.9221,-3.9324,-4.0173,-4.0121,-3.9583,-3.0531,-3.0441,-3.0125,-2.9852,-3.0034,-2.9988,-2.936,-3.0079,-3.0621,-3.026,-3.0486,-3.0621,-3.0339,-2.9827,0.0,-2.9635,-3.0399,-3.1026,-3.1309,-3.1995,-3.2596,-3.3182,-3.367,-3.419,-3.4843,0.0,0.0,-3.5493,-3.6111,-3.6274,-3.5929,-3.576,-3.5859,-3.6189,-3.6235,-3.6577,-3.7168,-3.7703,-3.79,-3.79,-3.79,-3.79,-3.79,-3.79,-3.79,-3.79,-3.79,-3.79,-3.79,-3.79,-3.8266,-3.8655,-3.8437,-3.8148,-3.7902,-3.7987,-3.7922,-3.7894,-3.8222,-3.8108,-3.7844,-3.7844,-3.7604,-3.7199,-3.6444,-3.5242,-3.4245,-3.4039,-3.3625,-3.3281,-3.3281,-3.3281,-3.3281,-3.3281,-3.3281,-3.3281,-3.3281,0.0,0.0,0.0,0.0,0.0,0.0,-3.3469,0.0,0.0,0.0,0.0,0.0,0.0,0.0,-3.3331,-3.3281,0.0,-3.3281,-3.3281,-3.3281,-3.3281,-3.3281,-3.3281,-3.3331,-3.436,-3.469,-3.4483,-3.5559,-3.6168,-3.6395,-3.6441,-3.6741,-3.729,-3.763,-3.7919,-3.8317,-3.9423,-3.9639,-3.9448,-3.1536,-3.0991,0.0,0.0,-3.0946,0.0,-3.0306,-3.108,-3.1403,-3.0531,-3.1205,-3.154,-3.0824,-3.1713,-3.2115,-3.1543,0.0,0.0,0.0,-3.3847,-3.4474,-3.5143,-3.52,-3.5525,-3.6227,-3.6227,-3.6227,-3.6227,-3.6789,-3.6629,-3.5763,-3.6474,-3.6769,-3.6769,-3.6769,-3.7214,-3.79,-3.79,-3.79,-3.79,-3.79,-3.79,-3.79,-3.79,-3.79,-3.79,-3.79,-3.79,-3.7913,-3.7952,-3.8331,-3.888,-3.9481,-4.0043,-4.0166,-3.8653,-3.8023,-3.7779,-3.7779,-3.7215,-3.6634,-3.6634,-3.6592,-3.6302,-3.5776,-3.5251,-3.4705,-3.4165,-3.3671,-3.3327,-3.3292,-3.3281,-3.3281,-3.3281,-3.3281,-3.3281,-3.3281,0.0,0.0,0.0,0.0,0.0,0.0,-3.3744,-3.3381,0.0,0.0,0.0,0.0,0.0,-3.4066,-3.3331,-3.3281,-3.3281,-3.3281,-3.3331,-3.3381,-3.3381,-3.3331,-3.3281,-3.3331,-3.4848,-3.5126,-3.4483,-3.5941,-3.643,-3.6223,-3.5432,-3.5429,-3.5844,-3.588,-3.6362,-3.7193,-3.858,-3.9469,-3.9881,0.0,0.0,-3.2251,-3.1713,-3.2033,-3.2164,-3.1403,-3.212,-3.2667,-3.2438,-3.3115,-3.3608,-3.342,-3.4325,-3.487,-3.473,-3.422,-3.3901,-3.3901,-3.4522,-3.5147,-3.5747,-3.6283,-3.6831,-3.7469,-3.7482,-3.7482,-3.7482,-3.7625,-3.7573,-3.7366,-3.7505,-3.7611,-3.7611,-3.7611,-3.7703,-3.79,-3.79,-3.79,-3.79,-3.79,-3.79,-3.79,-3.79,-3.79,-3.79,-3.79,-3.79,-3.7965,-3.8383,-3.8906,-3.9494,-4.0056,-4.0631,-4.1002,-4.0639,-4.0464,-4.0415,-4.0415,-4.0262,-4.0109,-4.0109,-3.9156,-3.8019,-3.721,-3.6172,-3.521,-3.4716,-3.4199,-3.3717,-3.335,-3.3281,-3.3281,-3.3281,-3.3281,-3.3281,-3.3281,-3.3281,0.0,0.0,-3.3419,-3.3381,-3.3557,-3.393,-3.4164,0.0,0.0,0.0,0.0,-3.4299,-3.4066,-3.3331,-3.3281,-3.3281,-3.3281,-3.388,-3.4164,-3.4103,-3.3568,-3.3281,-3.3331,-3.4262,-3.4581,-3.4434,-3.4775,-3.4945,-3.4857,-3.4439,-3.4368,-3.4518,-3.4924,-3.519,-3.546,-3.6405,-3.6504,-3.6292,-3.2982,-3.3124,-3.2939,-3.2394,-3.2766,-3.2939,-3.2351,-3.284,-3.3328,-3.3593,-3.4114,-3.4568,-3.4956,-3.5703,-3.6261,-3.635,-3.5788,-3.5428,-3.5428,-3.5999,-3.6521,-3.6831,-3.7222,-3.7573,-3.79,-3.79,-3.79,-3.79,-3.79,-3.79,-3.79,-3.79,-3.79,-3.79,-3.79,-3.79,-3.79,-3.79,-3.79,-3.79,-3.79,-3.79,-3.79,-3.79,-3.79,-3.79,-3.79,-3.807,-3.8318,-3.8606,-3.9272,-4.003,-4.0331,-4.0827,-4.1311,-4.1311,-4.106,-4.0744,-4.0744,-4.0478,-4.016,-4.016,-3.948,-3.8687,-3.8202,-3.7331,-3.64,-3.5531,-3.5208,-3.474,-3.3523,-3.3557,-3.3694,-3.3331,-3.3281,-3.3281,-3.3281,-3.3281,0.0,-3.3744,-3.3782,-3.3941,-3.4335,-3.4397,-3.4385,-3.4385,0.0,0.0,-3.4385,-3.4066,-3.3694,-3.3331,-3.3281,-3.3281,-3.3281,-3.3706,-3.4066,-3.4385,-3.3967,-3.3656,-3.3331,-3.4458,-3.4544,-3.393,-3.425,-3.4201,-3.3904,-3.3746,-3.3671,-3.3706,-3.3993,-3.434,-3.4696,-3.5426,-3.5622,-3.5654,-3.3124,-3.3124,-3.3124,-3.3124,-3.3111,-3.3192,-3.328,-3.3452,-3.3814,-3.4399,-3.4714,-3.5164,-3.5849,-3.6476,-3.6975,-3.7142,-3.7142,-3.7142,-3.7142,-3.7625,-3.79,-3.79,-3.79,-3.79,-3.79,-3.79,-3.79,-3.79,-3.79,-3.79,-3.79,-3.79,-3.79,-3.79,-3.79,-3.79,-3.79,-3.79,-3.79,-3.79,-3.79,-3.79,-3.79,-3.79,-3.79,-3.79,-3.79,-3.82,-3.8606,-3.8684,-3.9351,-4.0174,-4.0265,-4.0644,-4.105,-4.105,-4.055,-4.0058,-4.0236,-3.975,-3.9156,-3.9,-3.9013,-3.8961,-3.8844,-3.8435,-3.7726,-3.6267,-3.6252,-3.5867,-3.3684,-3.3979,-3.4348,-3.3607,-3.3568,-3.3668,-3.3668,0.0,-3.3892,-3.4495,-3.4581,-3.4824,-3.5523,-3.4969,-3.4629,-3.4727,-3.4078,-3.3941,0.0,-3.3892,-3.3431,-3.3281,-3.3281,-3.3431,-3.3618,-3.3519,-3.3892,-3.4727,-3.4532,-3.4066,-3.3519,-3.4799,-3.4665,-3.3331,-3.3979,-3.388,-3.3281,-3.3281,-3.3281,-3.3281,-3.3281,-3.3694,-3.431,-3.4821,-3.5385,-3.5891,-3.3124,-3.3124,-3.3124,-3.3124,-3.324,-3.3533,-3.4014,-3.4295,-3.4617,-3.5237,-3.5948,-3.6431,-3.6554,-3.7222,-3.7723,-3.7769,-3.7756,-3.7756,-3.7756,-3.7848,-3.79,-3.79,-3.79,-3.79,-3.79,-3.79,-3.79,-3.79,-3.79,-3.79,-3.79,-3.79,-3.79,-3.79,-3.79,-3.79,-3.79,-3.79,-3.79,-3.79,-3.79,-3.79,-3.79,-3.79,-3.79,-3.79,-3.79,-3.7952,-3.8096,-3.8553,-3.8828,-3.9063,-3.9573,-3.9795,-3.9873,-3.9873,-3.9777,-3.9888,-4.085,-4.101,-4.0744,-4.007,-3.9917,-3.9698,-3.8948,-3.873,-3.8179,-3.635,-3.6543,-3.6316,-3.3792,-3.447,-3.5126,-3.4348,-3.4799,-3.5235,-3.5235,0.0,-3.5283,-3.5415,-3.5415,-3.5463,-3.5571,-3.5463,-3.5655,-3.6285,-3.5667,-3.5283,-3.5427,-3.4641,-3.3918,-3.3331,-3.3281,-3.3953,-3.5235,-3.4544,-3.4921,-3.6332,-3.5017,-3.4337,-3.425,-3.4483,-3.4127,-3.3331,-3.3419,-3.3419,-3.3281,-3.3281,-3.3281,-3.3281,-3.3281,-3.3381,-3.3481,-3.3561,-3.3684,-3.3854,-3.3124,-3.3124,-3.3111,-3.324,-3.3622,-3.4,-3.4397,-3.4897,-3.5458,-3.6096,-3.6573,-3.7007,-3.7319,-3.7697,-3.79,-3.79,-3.79,-3.79,-3.79,-3.79,-3.79,-3.79,-3.79,-3.79,-3.79,-3.79,-3.79,-3.79,-3.79,-3.79,-3.79,-3.79,-3.79,-3.79,-3.79,-3.79,-3.79,-3.79,-3.79,-3.79,-3.79,-3.79,-3.79,-3.79,-3.79,-3.79,-3.79,-3.8096,-3.8383,-3.8632,-3.8932,-3.9246,-3.952,-3.9612,-3.9612,-3.9612,-3.9612,-3.9795,-4.0605,-4.0827,-4.0807,-4.0768,-4.0744,-4.0553,-3.9816,-3.9689,-3.9121,-3.7246,-3.7476,-3.7287,-3.4956,-3.5427,-3.5941,-3.5174,-3.5367,0.0,0.0,-3.5619,-3.5763,-3.6143,-3.6191,-3.6345,-3.6781,-3.6439,-3.6332,-3.6662,-3.6001,-3.5619,-3.5619,-3.4824,-3.4446,-3.4531,-3.4127,-3.4653,-3.6191,-3.5017,-3.5162,-3.6662,-3.5162,-3.4385,-3.4385,-3.4385,-3.4028,-3.3281,-3.3281,-3.3281,-3.3281,-3.3281,-3.3281,-3.3281,-3.3281,-3.3281,-3.3281,-3.3281,-3.3281,-3.3315,-3.3124,-3.3124,-3.3205,-3.3533,-3.4012,-3.4525,-3.4999,-3.5649,-3.6319,-3.6916,-3.713,-3.739,-3.7848,-3.79,-3.79,-3.79,-3.79,-3.79,-3.79,-3.79,-3.79,-3.79,-3.79,-3.79,-3.79,-3.79,-3.79,-3.79,-3.79,-3.79,-3.79,-3.79,-3.79,-3.79,-3.79,-3.79,-3.79,-3.79,-3.79,-3.79,-3.79,-3.79,-3.79,-3.79,-3.79,-3.79,-3.79,-3.8174,-3.8514,-3.8514,-3.8828,-3.9207,-3.9207,-3.9207,-3.9207,-3.9207,-3.9207,-3.9364,-4.0043,-4.0226,-4.0344,-4.0801,-4.0919,-4.0788,-4.0331,-4.0226,-3.9745,-3.7942,-3.8179,-3.8045,-3.6005,-3.6345,-3.6722,-3.6001,0.0,0.0,0.0,-3.6143,-3.6345,-3.6922,-3.6968,-3.7214,-3.7854,-3.7168,-3.6769,-3.6956,-3.6285,-3.5858,-3.5858,-3.5259,-3.521,-3.5858,-3.5078,-3.5271,-3.6427,-3.5259,-3.5259,-3.6427,-3.5259,-3.4581,-3.4385,-3.4385,-3.4028,-3.3281,-3.3281,-3.3281,-3.3281,-3.3281,-3.3281,-3.3281,-3.3281,-3.3281,-3.3281,-3.3281,-3.3281,-3.3281,-3.3124,-3.3124,-3.333,-3.4109,-3.4397,-3.5043,-3.6322,-3.674,-3.711,-3.771,-3.7835,-3.7861,-3.79,-3.79,-3.79,-3.79,-3.79,-3.79,-3.79,-3.79,-3.79,-3.79,-3.79,-3.79,-3.79,-3.79,-3.79,-3.79,-3.79,-3.79,-3.79,-3.79,-3.79,-3.79,-3.79,-3.79,-3.79,-3.79,-3.79,-3.79,-3.79,-3.79,-3.79,-3.79,-3.79,-3.79,-3.79,-3.7926,-3.7965,-3.7965,-3.7991,-3.8031,-3.8031,-3.8031,-3.8031,-3.8031,-3.8031,-3.8266,-3.9364,-3.9677,-3.9677,-3.973,-3.9743,-3.973,-3.9677,-3.9677,-3.929,-3.7865,-3.8179,-3.8045,-3.6005,-3.6828,-3.7551,-3.6769,0.0,0.0,-3.7703,-3.7703,-3.7762,-3.7808,-3.7808,-3.7854,-3.79,-3.7168,-3.7015,-3.7762,-3.7062,-3.6628,-3.6628,-3.6568,-3.6568,-3.6628,-3.5906,-3.5571,-3.5667,-3.5571,-3.5571,-3.5667,-3.5571,-3.5126,-3.4385,-3.4385,-3.4028,-3.3281,-3.3281,-3.3281,-3.3281,-3.3281,-3.3281,-3.3281,-3.3281,-3.3281,-3.3281,-3.3281,-3.3281,-3.3281,-3.375,-3.3857,-3.4121,-3.5064,-3.5594,-3.6102,-3.6811,-3.728,-3.7639,-3.7874,-3.79,-3.79,-3.79,-3.79,-3.79,-3.79,-3.79,-3.79,-3.79,-3.79,-3.79,-3.79,-3.79,-3.79,-3.79,-3.79,-3.79,-3.79,-3.79,-3.79,-3.79,-3.79,-3.79,-3.79,-3.79,-3.79,-3.79,-3.79,-3.79,-3.79,-3.79,-3.79,-3.79,-3.79,-3.79,-3.79,-3.79,-3.79,-3.79,-3.79,-3.79,-3.79,-3.79,-3.79,-3.79,-3.79,-3.79,-3.8004,-3.8436,-3.8789,-3.9141,-3.952,-3.9612,-3.9507,-3.9141,-3.905,-3.8799,-3.7945,-3.8015,-3.795,-3.716,-3.7518,-3.7808,-3.7505,0.0,-3.79,-3.79,-3.79,-3.79,-3.79,-3.79,-3.79,-3.79,-3.7611,-3.7564,-3.7854,-3.7611,-3.7214,-3.6722,-3.6709,-3.6474,-3.6048,-3.6191,-3.6534,-3.7028,-3.5559,-3.5367,-3.6285,-3.486,-3.4274,-3.4385,-3.393,-3.3557,-3.3281,-3.3281,-3.3281,-3.3281,-3.3281,-3.3281,-3.3281,-3.3281,-3.3281,-3.3281,-3.3281,-3.3281,-3.3281,-3.4197,-3.4457,-3.4882,-3.5908,-3.6424,-3.6851,-3.7214,-3.7639,-3.79,-3.79,-3.79,-3.79,-3.79,-3.79,-3.79,-3.79,-3.79,-3.79,-3.79,-3.79,-3.79,-3.79,-3.79,-3.79,-3.79,-3.79,-3.79,-3.79,-3.79,-3.79,-3.79,-3.79,-3.79,-3.79,-3.79,-3.79,-3.79,-3.79,-3.79,-3.79,-3.79,-3.79,-3.79,-3.79,-3.79,-3.79,-3.79,-3.79,-3.79,-3.79,-3.79,-3.79,-3.79,-3.79,-3.79,-3.79,-3.79,-3.79,-3.79,-3.8174,-3.8553,-3.8972,-3.9076,-3.8972,-3.8553,-3.8462,-3.8344,-3.7978,-3.79,-3.79,-3.79,-3.79,-3.79,-3.79,-3.79,-3.79,-3.79,-3.79,-3.79,-3.79,-3.79,-3.79,-3.79,-3.79,-3.79,-3.79,-3.79,-3.7657,-3.7121,-3.7062,-3.6828,-3.6345,-3.6581,-3.6956,-3.7505,-3.5702,-3.5162,-3.5941,-3.436,-3.3793,-3.4017,-3.3519,-3.3281,-3.3281,-3.3281,-3.3281,-3.3281,-3.3281,-3.3281,-3.3281,-3.3281,-3.3281,-3.3281,-3.3281,-3.3281,-3.3281,-3.4274,-3.473,-3.5468,-3.6515,-3.6709,-3.6994,-3.7776,-3.79,-3.79,-3.79,-3.79,-3.79,-3.79,-3.79,-3.79,-3.79,-3.79,-3.79,-3.79,-3.79,-3.79,-3.79,-3.79,-3.79,-3.79,-3.79,-3.79,-3.79,-3.79,-3.79,-3.79,-3.79,-3.79,-3.79,-3.79,-3.79,-3.79,-3.79,-3.79,-3.79,-3.79,-3.79,-3.79,-3.79,-3.79,-3.79,-3.79,-3.79,-3.79,-3.79,-3.79,-3.79,-3.79,-3.79,-3.79,-3.79,-3.79,-3.79,-3.79,-3.79,-3.79,-3.79,-3.79,-3.79,-3.79,-3.79,-3.79,-3.79,-3.79,-3.79,-3.79,-3.79,-3.79,-3.79,-3.79,-3.79,-3.79,-3.79,-3.79,-3.79,-3.79,-3.79,-3.79,-3.79,-3.79,-3.79,-3.79,-3.79,-3.79,-3.79,-3.79,-3.79,-3.7108,-3.6722,-3.6722,-3.5953,-3.5174,-3.4385,-3.4385,-3.4028,-3.3281,-3.3281,-3.3281,-3.3281,-3.3281,-3.3281,-3.3281,-3.3281,-3.3281,-3.3281,-3.3281,-3.3281,-3.3281,-3.3281,-3.3281,-3.3281,-3.5724,-3.6109,-3.6496,-3.7397,-3.7547,-3.7612,-3.7874,-3.79,-3.79,-3.79,-3.79,-3.79,-3.79,-3.79,-3.79,-3.79,-3.79,-3.79,-3.79,-3.79,-3.79,-3.79,-3.79,-3.79,-3.79,-3.79,-3.79,-3.79,-3.79,-3.79,-3.79,-3.79,-3.79,-3.79,-3.79,-3.79,-3.79,-3.79,-3.79,-3.79,-3.79,-3.79,-3.79,-3.79,-3.79,-3.79,-3.79,-3.79,-3.79,-3.79,-3.79,-3.79,-3.79,-3.79,-3.79,-3.79,-3.79,-3.79,-3.79,-3.79,-3.79,-3.79,-3.79,-3.79,-3.79,-3.79,-3.79,-3.79,-3.79,-3.79,-3.79,-3.79,-3.79,-3.79,-3.79,-3.79,-3.79,-3.79,-3.79,-3.79,-3.79,-3.79,-3.79,-3.79,-3.79,-3.79,-3.79,-3.79,-3.79,-3.79,-3.7782,-3.7546,-3.7514,-3.7435,-3.7267,-3.5978,-3.5013,-3.4385,-3.4231,-3.3843,-3.3281,-3.3281,-3.3281,-3.3281,-3.3281,-3.3281,-3.3281,-3.3281,-3.3281,-3.3281,-3.3281,-3.3281,-3.3281,-3.3281,-3.3281,-3.3281,-3.6477,-3.6878,-3.7195,-3.7789,-3.79,-3.79,-3.79,-3.79,-3.79,-3.79,-3.8181,-3.8395,-3.8395,-3.8742,-3.8953,-3.8953,-3.8953,-3.8832,-3.844,-3.8395,-3.8272,-3.79,-3.79,-3.79,-3.79,-3.79,-3.79,-3.79,-3.79,-3.79,-3.79,-3.79,-3.79,-3.79,-3.79,-3.79,-3.79,-3.79,-3.79,-3.79,-3.79,-3.79,-3.79,-3.79,-3.79,-3.79,-3.79,-3.79,-3.79,-3.79,-3.79,-3.79,-3.79,-3.79,-3.79,-3.79,-3.79,-3.79,-3.79,-3.79,-3.79,-3.79,-3.79,-3.79,-3.79,-3.79,-3.79,-3.79,-3.79,-3.79,-3.79,-3.79,-3.79,-3.79,-3.79,-3.79,-3.79,-3.79,-3.79,-3.79,-3.79,-3.79,-3.79,-3.79,-3.7992,-3.8161,-3.8161,-3.8253,-3.8434,-3.8421,-3.8273,-3.7904,-3.8066,-3.7887,-3.7218,-3.6361,-3.5702,-3.5177,-3.4392,-3.3855,-3.3568,-3.3373,-3.3281,-3.3281,-3.3281,-3.3281,-3.3281,-3.3281,-3.3281,-3.3281,-3.3281,-3.3281,-3.3281,-3.3281,-3.3281,-3.3281,-3.6683,-3.7202,-3.7611,-3.7854,-3.79,-3.7946,-3.7979,-3.8024,-3.8024,-3.8116,-3.885,-3.9329,-3.9329,-4.0073,-4.0603,-4.0603,-4.0603,-4.0202,-3.9241,-3.921,-3.8792,-3.7946,-3.79,-3.79,-3.79,-3.79,-3.79,-3.79,-3.79,-3.79,-3.79,-3.79,-3.79,-3.79,-3.79,-3.79,-3.79,-3.79,-3.79,-3.79,-3.79,-3.79,-3.79,-3.79,-3.79,-3.79,-3.79,-3.79,-3.79,-3.79,-3.79,-3.79,-3.79,-3.79,-3.79,-3.79,-3.79,-3.79,-3.79,-3.79,-3.79,-3.79,-3.79,-3.79,-3.79,-3.79,-3.79,-3.79,-3.79,-3.79,-3.79,-3.79,-3.79,-3.79,-3.79,-3.79,-3.79,-3.79,-3.79,-3.79,-3.79,-3.79,-3.7946,-3.7946,-3.8116,-3.8557,-3.8602,-3.8827,-3.9261,-3.9346,-3.9154,-3.8692,-3.8668,-3.812,-3.6978,-3.7079,-3.6848,-3.6297,-3.4804,-3.405,-3.3981,-3.3499,-3.3281,-3.3281,-3.3281,-3.3281,-3.3281,-3.3281,-3.3281,-3.3281,-3.3281,-3.3281,-3.3281,-3.3281,-3.3281,-3.3281,-3.7475,-3.7717,-3.7854,-3.79,-3.79,-3.8148,-3.8792,-3.8926,-3.9179,-3.9927,-4.0173,-4.0289,-4.0289,-4.0461,-4.0603,-4.0603,-4.0603,-4.0202,-3.9241,-3.921,-3.8792,-3.7946,-3.79,-3.79,-3.79,-3.79,-3.79,-3.79,-3.79,-3.79,-3.79,-3.79,-3.79,-3.79,-3.79,-3.79,-3.79,-3.79,-3.79,-3.79,-3.79,-3.79,-3.79,-3.79,-3.79,-3.79,-3.79,-3.79,-3.79,-3.79,-3.79,-3.79,-3.79,-3.79,-3.79,-3.79,-3.79,-3.79,-3.79,-3.79,-3.79,-3.79,-3.79,-3.79,-3.79,-3.79,-3.79,-3.79,-3.79,-3.79,-3.79,-3.79,-3.79,-3.79,-3.79,-3.79,-3.79,-3.79,-3.79,-3.79,-3.79,-3.8037,-3.8434,-3.8421,-3.8466,-3.8602,-3.8602,-3.8827,-3.9261,-3.9739,-3.9752,-3.9157,-3.9306,-3.9052,-3.8315,-3.7529,-3.6538,-3.5477,-3.4878,-3.4406,-3.3981,-3.3499,-3.3281,-3.3281,-3.3281,-3.3281,-3.3281,-3.3281,-3.3281,-3.3281,-3.3281,-3.3281,-3.3281,-3.3281,-3.3281,-3.3281,-3.7789,-3.8226,-3.8517,-3.8517,-3.8908,-3.9326,-3.9812,-3.9855,-4.0029,-4.0546,-4.0986,-4.1254,-4.1254,-4.163,-4.1879,-4.1879,-4.1879,-4.1491,-4.0603,-4.0116,-3.9475,-3.8549,-3.8103,-3.79,-3.79,-3.79,-3.79,-3.79,-3.79,-3.79,-3.79,-3.79,-3.79,-3.79,-3.79,-3.79,-3.79,-3.79,-3.79,-3.79,-3.79,-3.79,-3.79,-3.79,-3.79,-3.79,-3.79,-3.79,-3.79,-3.79,-3.79,-3.79,-3.79,-3.79,-3.79,-3.79,-3.79,-3.79,-3.79,-3.79,-3.79,-3.79,-3.79,-3.79,-3.79,-3.79,-3.79,-3.79,-3.79,-3.79,-3.79,-3.79,-3.79,-3.79,-3.79,-3.79,-3.79,-3.79,-3.7992,-3.8207,-3.8207,-3.8434,-3.8904,-3.8904,-3.9038,-3.9261,-3.9261,-3.9605,-4.0366,-4.0683,-4.0541,-3.9775,-4.0395,-3.9958,-3.8374,-3.8016,-3.7251,-3.611,-3.5455,-3.4877,-3.436,-3.3855,-3.3499,-3.3281,-3.3281,-3.3281,-3.3281,-3.3281,-3.3281,-3.3281,-3.3281,-3.3281,-3.3281,-3.3281,-3.3281,-3.3281,-3.8057,-3.8715,-3.9241,-3.9417,-4.0073,-4.0646,-4.0817,-4.0859,-4.0901,-4.1029,-4.1713,-4.2196,-4.2196,-4.2875,-4.329,-4.329,-4.329,-4.2915,-4.2073,-4.1254,-4.0418,-3.9461,-3.8729,-3.8285,-3.8148,-3.8103,-3.807,-3.79,-3.79,-3.79,-3.79,-3.79,-3.79,-3.79,-3.79,-3.79,-3.79,-3.79,-3.79,-3.79,-3.79,-3.79,-3.79,-3.79,-3.79,-3.79,-3.79,-3.79,-3.79,-3.79,-3.79,-3.79,-3.79,-3.79,-3.79,-3.79,-3.79,-3.79,-3.79,-3.79,-3.79,-3.79,-3.7946,-3.8037,-3.8037,-3.7946,-3.79,-3.79,-3.79,-3.79,-3.79,-3.79,-3.79,-3.79,-3.79,-3.79,-3.79,-3.7992,-3.8161,-3.8557,-3.8737,-3.8948,-3.9261,-3.9394,-3.9557,-3.9952,-3.9996,-4.0491,-4.1529,-4.1727,-4.1392,-4.0623,-4.1384,-4.0673,-3.8279,-3.8413,-3.8056,-3.7078,-3.6163,-3.54,-3.4785,-3.4245,-3.374,-3.3281,-3.3281,-3.3281,-3.3281,-3.3281,-3.3281,-3.3281,-3.3281,-3.3281,-3.3281,-3.3281,-3.3281,-3.3281,-3.8881,-3.9121,-3.9461,-4.0289,-4.0504,-4.0859,-4.1686,-4.1811,-4.2073,-4.282,-4.3036,-4.3115,-4.3115,-4.321,-4.329,-4.329,-4.329,-4.2915,-4.2073,-4.1867,-4.138,-4.0461,-4.0303,-3.9869,-3.9046,-3.9046,-3.8626,-3.79,-3.79,-3.79,-3.79,-3.79,-3.79,-3.79,-3.79,-3.79,-3.79,-3.79,-3.79,-3.79,-3.79,-3.79,-3.79,-3.79,-3.79,-3.79,-3.79,-3.79,-3.79,-3.79,-3.79,-3.79,-3.79,-3.79,-3.79,-3.79,-3.79,-3.79,-3.79,-3.79,-3.79,-3.79,-3.8207,-3.8512,-3.8512,-3.8207,-3.79,-3.79,-3.79,-3.79,-3.79,-3.79,-3.79,-3.79,-3.79,-3.79,-3.79,-3.8253,-3.8512,-3.8602,-3.9305,-3.9689,-3.9349,-3.9645,-3.9908,-3.9996,-3.9996,-4.0491,-4.1529,-4.2149,-4.2227,-4.1693,-4.1431,-4.069,-3.9403,-3.8291,-3.7518,-3.7078,-3.6738,-3.5959,-3.4785,-3.4245,-3.374,-3.3281,-3.3281,-3.3281,-3.3281,-3.3281,-3.3281,-3.3281,-3.3281,-3.3281,-3.3281,-3.3281,-3.3281,-3.3281,-3.9121,-4.0029,-4.0901,-4.1296,-4.1796,-4.2263,-4.2659,-4.2754,-4.2875,-4.325,-4.329,-4.329,-4.329,-4.329,-4.329,-4.329,-4.329,-4.313,-4.2739,-4.2278,-4.1811,-4.138,-4.0901,-4.0418,-3.9986,-3.9461,-3.9002,-3.8639,-3.8148,-3.79,-3.79,-3.79,-3.79,-3.79,-3.79,-3.79,-3.79,-3.79,-3.79,-3.79,-3.79,-3.8083,-3.8298,-3.8298,-3.8421,-3.8647,-3.8389,-3.8129,-3.79,-3.79,-3.79,-3.79,-3.79,-3.79,-3.7946,-3.8207,-3.8298,-3.8298,-3.8298,-3.8298,-3.8298,-3.8298,-3.8421,-3.8692,-3.8904,-3.8827,-3.8692,-3.8692,-3.8692,-3.8692,-3.8692,-3.8692,-3.8692,-3.8692,-3.8692,-3.8812,-3.9133,-3.9355,-3.9568,-3.9838,-4.0159,-4.03,-4.0083,-4.0257,-4.0386,-4.0386,-4.0386,-4.0906,-4.2107,-4.243,-4.2522,-4.2419,-4.2207,-4.1306,-3.9609,-3.8844,-3.8015,-3.7078,-3.6808,-3.6017,-3.4796,-3.4555,-3.4016,-3.3281,-3.3281,-3.3281,-3.3281,-3.3281,-3.3281,-3.3281,-3.3281,-3.3281,-3.3281,-3.3281,-3.3281,-3.3281]},{"header":{"parameterUnit":"m.s-1","parameterCategory":1,"la1":30.6,"la2":28.766,"lo1":-90.7593,"lo2":-88.6598,"dy":0.0162,"dx":0.0183,"nx":116,"ny":114,"refTime":"2023-11-21T18:00:00:Z","depth":0,"parameterNumber":3,"parameterNumberName":"V-component_of_WINDS"},"data":[0.0,0.0,0.0,0.0,0.0,0.0,0.0,0.0,0.0,0.0,0.0,0.0,0.0,0.0,0.0,0.0,0.0,0.0,0.0,0.0,0.0,0.0,0.0,0.0,0.0,0.0,0.0,0.0,0.0,0.0,0.0,0.0,0.0,0.0,0.0,0.0,0.0,0.0,0.0,0.0,0.0,0.0,0.0,0.0,0.0,0.0,0.0,0.0,0.0,0.0,0.0,0.0,0.0,0.0,0.0,0.0,0.0,0.0,0.0,0.0,0.0,0.0,0.0,0.0,0.0,0.0,0.0,0.0,0.0,0.0,0.0,0.0,0.0,0.0,0.0,0.0,0.0,0.0,0.0,0.0,0.0,0.0,0.0,0.0,0.0,0.0,0.0,0.0,0.0,0.0,0.0,0.0,0.0,0.0,0.0,0.0,0.0,0.0,0.0,0.0,0.0,0.0,0.0,0.0,0.0,0.0,0.0,0.0,0.0,0.0,0.0,0.0,0.0,0.0,0.0,0.0,0.0,0.0,0.0,0.0,0.0,0.0,0.0,0.0,0.0,0.0,0.0,0.0,0.0,0.0,0.0,0.0,0.0,0.0,0.0,0.0,0.0,0.0,0.0,0.0,0.0,0.0,0.0,0.0,0.0,0.0,0.0,0.0,0.0,0.0,0.0,0.0,0.0,0.0,0.0,0.0,0.0,0.0,0.0,0.0,0.0,0.0,0.0,0.0,0.0,0.0,0.0,0.0,0.0,0.0,0.0,0.0,0.0,0.0,0.0,0.0,0.0,0.0,0.0,0.0,0.0,0.0,0.0,0.0,0.0,0.0,0.0,0.0,0.0,0.0,0.0,0.0,0.0,0.0,0.0,0.0,0.0,0.0,0.0,0.0,0.0,0.0,0.0,0.0,0.0,0.0,0.0,0.0,0.0,0.0,0.0,0.0,0.0,0.0,0.0,0.0,0.0,0.0,0.0,0.0,0.0,0.0,0.0,0.0,0.0,0.0,0.0,0.0,0.0,0.0,0.0,0.0,0.0,0.0,0.0,0.0,0.0,0.0,0.0,0.0,0.0,0.0,0.0,0.0,0.0,0.0,0.0,0.0,0.0,0.0,0.0,0.0,0.0,0.0,0.0,0.0,0.0,0.0,0.0,0.0,0.0,0.0,0.0,0.0,0.0,0.0,0.0,0.0,0.0,0.0,0.0,0.0,0.0,0.0,0.0,0.0,0.0,0.0,0.0,0.0,0.0,0.0,0.0,0.0,0.0,0.0,0.0,0.0,0.0,0.0,0.0,0.0,0.0,0.0,0.0,0.0,0.0,0.0,0.0,0.0,0.0,0.0,0.0,0.0,0.0,0.0,0.0,0.0,0.0,0.0,0.0,0.0,0.0,0.0,0.0,0.0,0.0,0.0,0.0,0.0,0.0,0.0,0.0,0.0,0.0,0.0,0.0,0.0,0.0,0.0,0.0,0.0,0.0,0.0,0.0,0.0,0.0,0.0,0.0,0.0,0.0,0.0,0.0,0.0,0.0,0.0,0.0,0.0,0.0,0.0,0.0,0.0,0.0,0.0,0.0,0.0,0.0,0.0,0.0,0.0,0.0,0.0,0.0,0.0,0.0,0.0,0.0,0.0,0.0,0.0,0.0,0.0,0.0,0.0,0.0,0.0,0.0,0.0,0.0,0.0,0.0,0.0,0.0,0.0,0.0,0.0,0.0,0.0,0.0,0.0,0.0,0.0,0.0,0.0,0.0,0.0,0.0,0.0,0.0,0.0,0.0,0.0,0.0,0.0,0.0,0.0,0.0,0.0,0.0,0.0,0.0,0.0,0.0,0.0,0.0,0.0,0.0,0.0,0.0,0.0,0.0,0.0,0.0,0.0,0.0,0.0,0.0,0.0,0.0,0.0,0.0,0.0,0.0,0.0,0.0,0.0,0.0,0.0,0.0,0.0,0.0,0.0,0.0,0.0,0.0,0.0,0.0,0.0,0.0,0.0,0.0,0.0,0.0,0.0,0.0,0.0,0.0,0.0,0.0,0.0,0.0,0.0,0.0,0.0,0.0,0.0,0.0,0.0,0.0,0.0,0.0,0.0,0.0,0.0,0.0,0.0,0.0,0.0,0.0,0.0,0.0,0.0,0.0,0.0,0.0,0.0,0.0,0.0,0.0,0.0,0.0,0.0,0.0,0.0,0.0,0.0,0.0,0.0,0.0,0.0,0.0,0.0,0.0,0.0,0.0,0.0,0.0,0.0,0.0,0.0,0.0,0.0,0.0,0.0,0.0,0.0,0.0,0.0,0.0,0.0,0.0,0.0,0.0,0.0,0.0,0.0,0.0,0.0,0.0,0.0,0.0,0.0,0.0,0.0,0.0,0.0,0.0,0.0,0.0,0.0,0.0,0.0,0.0,0.0,0.0,0.0,0.0,0.0,0.0,0.0,0.0,0.0,0.0,0.0,0.0,0.0,0.0,0.0,0.0,0.0,0.0,0.0,0.0,0.0,0.0,0.0,0.0,0.0,0.0,0.0,0.0,0.0,0.0,0.0,0.0,0.0,0.0,0.0,0.0,0.0,0.0,0.0,0.0,0.0,0.0,0.0,0.0,0.0,0.0,0.0,0.0,0.0,0.0,0.0,0.0,0.0,0.0,0.0,0.0,0.0,0.0,0.0,0.0,0.0,0.0,0.0,0.0,0.0,0.0,0.0,0.0,0.0,0.0,0.0,0.0,0.0,0.0,0.0,0.0,0.0,0.0,0.0,0.0,0.0,0.0,0.0,0.0,0.0,0.0,0.0,0.0,0.0,0.0,0.0,0.0,0.0,0.0,0.0,0.0,0.0,0.0,0.0,0.0,0.0,0.0,0.0,0.0,0.0,0.0,0.0,0.0,0.0,0.0,0.0,0.0,0.0,0.0,0.0,0.0,0.0,0.0,0.0,0.0,0.0,0.0,0.0,0.0,0.0,0.0,0.0,0.0,0.0,0.0,0.0,0.0,0.0,0.0,0.0,0.0,0.0,0.0,0.0,0.0,0.0,0.0,0.0,0.0,0.0,0.0,0.0,0.0,0.0,0.0,0.0,0.0,0.0,0.0,0.0,0.0,0.0,0.0,0.0,0.0,0.0,0.0,0.0,0.0,0.0,0.0,0.0,0.0,0.0,0.0,0.0,0.0,0.0,0.0,0.0,0.0,0.0,0.0,0.0,0.0,0.0,0.0,0.0,0.0,0.0,0.0,0.0,0.0,0.0,0.0,0.0,0.0,0.0,0.0,0.0,0.0,0.0,0.0,0.0,0.0,0.0,0.0,0.0,0.0,0.0,0.0,0.0,0.0,0.0,0.0,0.0,0.0,0.0,0.0,0.0,0.0,0.0,0.0,0.0,0.0,0.0,0.0,0.0,0.0,0.0,0.0,0.0,0.0,0.0,0.0,0.0,0.0,0.0,0.0,0.0,0.0,0.0,0.0,0.0,0.0,0.0,0.0,0.0,0.0,0.0,0.0,0.0,0.0,0.0,0.0,0.0,0.0,0.0,0.0,0.0,0.0,0.0,0.0,0.0,0.0,0.0,0.0,0.0,0.0,0.0,0.0,0.0,0.0,0.0,0.0,0.0,0.0,0.0,0.0,0.0,0.0,0.0,0.0,0.0,0.0,0.0,0.0,0.0,0.0,0.0,0.0,0.0,0.0,0.0,0.0,0.0,0.0,0.0,0.0,0.0,0.0,0.0,0.0,0.0,0.0,0.0,0.0,0.0,0.0,0.0,0.0,0.0,0.0,0.0,0.0,0.0,0.0,0.0,0.0,0.0,0.0,0.0,0.0,0.0,0.0,0.0,0.0,0.0,0.0,0.0,0.0,0.0,0.0,0.0,0.0,0.0,0.0,0.0,0.0,0.0,0.0,0.0,0.0,0.0,0.0,0.0,0.0,0.0,0.0,0.0,0.0,0.0,0.0,0.0,0.0,0.0,0.0,0.0,0.0,0.0,0.0,0.0,0.0,0.0,0.0,0.0,0.0,0.0,0.0,0.0,0.0,0.0,0.0,0.0,0.0,0.0,0.0,0.0,0.0,0.0,0.0,0.0,0.0,0.0,0.0,0.0,0.0,0.0,0.0,0.0,0.0,0.0,0.0,0.0,0.0,0.0,0.0,0.0,0.0,0.0,0.0,0.0,0.0,0.0,0.0,0.0,0.0,0.0,0.0,0.0,0.0,0.0,0.0,0.0,0.0,0.0,0.0,0.0,0.0,0.0,0.0,0.0,0.0,0.0,0.0,0.0,0.0,0.0,0.0,0.0,0.0,0.0,0.0,0.0,0.0,0.0,0.0,0.0,0.0,0.0,0.0,0.0,0.0,0.0,0.0,0.0,0.0,0.0,0.0,0.0,0.0,0.0,0.0,0.0,0.0,0.0,0.0,0.0,0.0,0.0,0.0,0.0,0.0,0.0,0.0,0.0,0.0,0.0,0.0,0.0,0.0,0.0,0.0,0.0,0.0,0.0,0.0,0.0,0.0,0.0,0.0,0.0,0.0,0.0,0.0,0.0,0.0,0.0,0.0,0.0,0.0,0.0,0.0,0.0,0.0,0.0,0.0,0.0,0.0,0.0,0.0,0.0,0.0,0.0,0.0,0.0,0.0,0.0,0.0,0.0,0.0,0.0,0.0,0.0,0.0,0.0,0.0,0.0,0.0,0.0,0.0,0.0,0.0,0.0,0.0,0.0,0.0,0.0,0.0,0.0,0.0,0.0,0.0,0.0,0.0,0.0,0.0,0.0,0.0,0.0,0.0,0.0,0.0,0.0,0.0,0.0,0.0,0.0,0.0,0.0,0.0,0.0,0.0,0.0,0.0,0.0,0.0,0.0,0.0,0.0,0.0,0.0,0.0,0.0,0.0,0.0,0.0,0.0,0.0,0.0,0.0,0.0,0.0,0.0,0.0,0.0,0.0,0.0,0.0,0.0,0.0,0.0,0.0,0.0,0.0,0.0,0.0,0.0,0.0,0.0,0.0,0.0,0.0,0.0,0.0,0.0,0.0,0.0,0.0,0.0,0.0,0.0,0.0,0.0,0.0,0.0,0.0,0.0,0.0,0.0,0.0,0.0,0.0,0.0,0.0,0.0,0.0,0.0,0.0,0.0,0.0,0.0,0.0,0.0,0.0,0.0,0.0,0.0,0.0,0.0,0.0,0.0,0.0,0.0,0.0,0.0,0.0,0.0,0.0,0.0,0.0,0.0,0.0,0.0,0.0,0.0,0.0,0.0,0.0,0.0,0.0,0.0,0.0,0.0,0.0,0.0,0.0,0.0,0.0,0.0,0.0,0.0,0.0,0.0,0.0,0.0,0.0,0.0,0.0,0.0,0.0,0.0,0.0,0.0,0.0,0.0,0.0,0.0,0.0,0.0,0.0,0.0,0.0,0.0,0.0,0.0,0.0,0.0,0.0,0.0,0.0,0.0,0.0,0.0,0.0,0.0,0.0,0.0,0.0,0.0,0.0,0.0,0.0,0.0,0.0,0.0,0.0,0.0,0.0,0.0,0.0,0.0,0.0,0.0,0.0,0.0,0.0,0.0,0.0,0.0,0.0,0.0,0.0,0.0,0.0,0.0,0.0,0.0,0.0,0.0,0.0,0.0,0.0,0.0,0.0,0.0,0.0,0.0,0.0,0.0,0.0,0.0,0.0,0.0,0.0,0.0,0.0,0.0,0.0,0.0,0.0,0.0,0.0,0.0,0.0,0.0,0.0,0.0,0.0,0.0,0.0,0.0,0.0,0.0,0.0,0.0,0.0,0.0,0.0,0.0,0.0,0.0,0.0,0.0,0.0,0.0,0.0,0.0,0.0,0.0,0.0,0.0,0.0,0.0,0.0,0.0,0.0,0.0,0.0,0.0,0.0,0.0,0.0,0.0,0.0,0.0,0.0,0.0,0.0,0.0,0.0,0.0,0.0,0.0,0.0,0.0,0.0,0.0,0.0,0.0,0.0,0.0,0.0,0.0,0.0,0.0,0.0,0.0,0.0,0.0,0.0,0.0,0.0,0.0,0.0,0.0,0.0,0.0,0.0,0.0,0.0,0.0,0.0,0.0,0.0,0.0,0.0,0.0,0.0,0.0,0.0,0.0,4.4818,0.0,0.0,0.0,0.0,0.0,0.0,0.0,0.0,0.0,0.0,0.0,0.0,0.0,0.0,0.0,0.0,0.0,0.0,0.0,0.0,0.0,0.0,0.0,0.0,0.0,0.0,0.0,0.0,0.0,0.0,0.0,0.0,0.0,0.0,0.0,0.0,0.0,0.0,0.0,4.1163,4.0996,4.1107,4.1107,4.1107,4.1107,0.0,0.0,0.0,0.0,0.0,0.0,0.0,0.0,0.0,0.0,0.0,0.0,0.0,0.0,0.0,0.0,0.0,0.0,0.0,0.0,0.0,0.0,0.0,0.0,0.0,0.0,0.0,0.0,0.0,0.0,0.0,0.0,0.0,0.0,0.0,0.0,0.0,0.0,0.0,0.0,0.0,0.0,0.0,0.0,0.0,0.0,0.0,0.0,0.0,0.0,0.0,0.0,0.0,0.0,0.0,0.0,0.0,0.0,0.0,0.0,0.0,0.0,0.0,0.0,0.0,0.0,0.0,0.0,0.0,0.0,0.0,4.489,0.0,0.0,0.0,0.0,0.0,0.0,0.0,0.0,0.0,0.0,0.0,0.0,0.0,0.0,0.0,0.0,0.0,0.0,0.0,0.0,0.0,0.0,0.0,4.344,4.3537,4.3537,4.4168,4.4284,4.3576,4.4052,4.3982,4.3111,4.2376,4.1932,4.1796,4.1132,4.0823,4.0874,4.1062,4.1272,4.1532,4.1541,4.1546,4.1546,4.137,0.0,0.0,0.0,0.0,0.0,0.0,0.0,0.0,0.0,0.0,0.0,0.0,0.0,0.0,0.0,0.0,0.0,0.0,0.0,0.0,0.0,0.0,0.0,0.0,0.0,0.0,0.0,0.0,0.0,0.0,0.0,0.0,0.0,0.0,0.0,0.0,0.0,0.0,0.0,0.0,0.0,0.0,0.0,0.0,0.0,0.0,0.0,0.0,0.0,0.0,0.0,0.0,0.0,0.0,0.0,0.0,0.0,0.0,0.0,0.0,0.0,0.0,0.0,4.5123,4.4774,4.4131,4.4131,4.4103,4.413,4.5591,4.6103,4.5989,0.0,0.0,0.0,0.0,0.0,0.0,0.0,0.0,0.0,0.0,0.0,0.0,0.0,0.0,0.0,0.0,0.0,0.0,0.0,0.0,0.0,0.0,4.3982,4.442,4.442,4.4536,4.4555,4.4439,4.3827,4.3073,4.2202,4.2067,4.1661,4.0971,4.0851,4.0807,4.0818,4.1692,4.2507,4.3277,4.3322,4.3369,4.3329,4.2512,4.2549,4.3273,0.0,0.0,0.0,0.0,0.0,0.0,0.0,0.0,0.0,0.0,0.0,0.0,0.0,0.0,0.0,0.0,0.0,0.0,0.0,0.0,0.0,0.0,0.0,0.0,0.0,0.0,0.0,0.0,0.0,0.0,0.0,0.0,0.0,0.0,0.0,0.0,0.0,0.0,0.0,0.0,0.0,4.6024,4.6024,0.0,0.0,0.0,0.0,0.0,0.0,0.0,0.0,0.0,0.0,0.0,0.0,0.0,0.0,4.6362,4.6252,4.6144,4.6027,4.6027,4.5969,4.5875,4.5875,4.5871,4.5868,4.6105,0.0,4.513,4.5897,0.0,0.0,0.0,0.0,0.0,0.0,0.0,0.0,0.0,0.0,0.0,0.0,0.0,0.0,0.0,0.0,0.0,0.0,0.0,0.0,0.0,4.4639,4.4594,4.4594,4.4149,4.3672,4.3169,4.2783,4.2202,4.1351,4.1332,4.1371,4.1467,4.1516,4.1809,4.2364,4.2856,4.3276,4.3658,4.3685,4.3941,4.437,4.3943,4.3706,4.3607,4.3595,0.0,0.0,0.0,0.0,0.0,0.0,0.0,0.0,0.0,0.0,0.0,0.0,0.0,0.0,0.0,0.0,0.0,0.0,0.0,0.0,0.0,0.0,0.0,0.0,0.0,0.0,0.0,0.0,0.0,0.0,0.0,0.0,0.0,0.0,0.0,0.0,0.0,0.0,0.0,4.7348,4.7476,4.6982,4.7025,4.7086,0.0,0.0,0.0,0.0,0.0,0.0,0.0,0.0,0.0,4.7662,4.7655,4.7652,4.7652,4.7664,4.7423,4.6936,4.6936,4.6667,4.6199,4.6199,4.6199,4.6199,4.6199,4.6258,4.6343,4.6231,4.6412,4.686,0.0,0.0,0.0,0.0,4.8811,4.8808,0.0,0.0,0.0,0.0,0.0,0.0,0.0,0.0,0.0,0.0,0.0,0.0,4.5497,4.4755,4.4265,4.4265,4.3479,4.2686,4.2048,4.1816,4.1429,4.0835,4.1009,4.139,4.199,4.228,4.2926,4.3931,4.3989,4.4135,4.4374,4.4375,4.4687,4.5254,4.5252,4.4895,4.4268,4.428,4.4287,4.4295,0.0,0.0,0.0,0.0,0.0,0.0,0.0,0.0,0.0,0.0,0.0,0.0,0.0,0.0,0.0,0.0,0.0,0.0,0.0,0.0,0.0,0.0,0.0,0.0,0.0,0.0,0.0,0.0,0.0,0.0,0.0,0.0,0.0,0.0,0.0,0.0,0.0,4.8396,4.8547,4.7887,4.819,4.8444,0.0,0.0,0.0,0.0,0.0,0.0,4.8113,4.8121,4.8125,4.8125,4.8125,4.8125,4.8125,4.8125,4.7813,4.717,4.717,4.6823,4.6199,4.6199,4.6206,4.62,4.62,4.6577,4.7133,4.6716,4.666,4.6934,4.7576,4.7832,4.7912,4.8554,4.8808,4.8806,0.0,0.0,0.0,0.0,0.0,0.0,0.0,0.0,0.0,0.0,0.0,4.4719,4.4672,4.3885,4.3363,4.3363,4.257,4.2048,4.2009,4.1274,4.0835,4.0797,4.1525,4.1951,4.2009,4.2876,4.3837,4.4827,4.4832,4.5292,4.617,4.6178,4.6186,4.6227,4.6225,4.6172,4.6066,4.6065,4.6107,4.6169,4.617,0.0,0.0,0.0,0.0,0.0,0.0,0.0,0.0,0.0,0.0,0.0,0.0,0.0,0.0,0.0,0.0,0.0,0.0,0.0,0.0,0.0,0.0,0.0,0.0,0.0,0.0,0.0,0.0,0.0,0.0,0.0,0.0,0.0,0.0,0.0,0.0,0.0,0.0,4.8645,4.8008,0.0,0.0,0.0,0.0,4.6153,4.6251,4.6298,4.6238,4.6294,4.6336,4.6336,4.6336,4.6336,4.6336,4.6336,4.6316,4.6277,4.6277,4.6238,4.6199,4.6199,4.6206,4.6204,4.6204,4.6222,4.6339,4.7114,4.7925,4.8668,4.8727,4.8729,4.8749,4.8786,4.8805,4.8804,0.0,0.0,0.0,0.0,0.0,0.0,0.0,0.0,4.5229,4.5239,4.4433,4.3857,4.3829,4.3001,4.2454,4.2454,4.1699,4.1242,4.1242,4.0971,4.1029,4.1545,4.1887,4.2636,4.3841,4.4737,4.541,4.5799,4.5801,4.5974,4.63,4.6308,4.63,4.6302,4.629,4.6297,4.6265,4.6229,4.6205,4.6246,4.6249,4.6245,0.0,0.0,0.0,0.0,0.0,0.0,0.0,0.0,0.0,0.0,0.0,0.0,0.0,0.0,0.0,0.0,0.0,0.0,0.0,0.0,0.0,0.0,0.0,0.0,0.0,0.0,0.0,0.0,0.0,0.0,0.0,0.0,0.0,0.0,0.0,0.0,0.0,4.698,4.6708,0.0,0.0,4.6231,4.6042,4.6002,4.6037,4.608,4.6093,4.6111,4.615,4.6196,4.6199,4.6199,4.6199,4.6199,4.6199,4.6199,4.6192,4.6206,4.6206,4.6191,4.6206,4.6195,4.6195,4.6224,4.6289,4.66,4.6891,4.7124,4.7124,4.7125,4.7125,4.7124,4.7124,4.7123,0.0,0.0,0.0,0.0,0.0,0.0,0.0,0.0,4.4426,4.4396,4.36,4.3022,4.3009,4.2194,4.1668,4.1668,4.1183,4.0877,4.0877,4.111,4.1504,4.2042,4.266,4.3737,4.5308,4.5892,4.622,4.6307,4.6305,4.6301,4.6293,4.6308,4.6303,4.63,4.63,4.63,4.6303,4.6248,4.623,4.623,4.624,4.6231,4.617,0.0,0.0,0.0,0.0,0.0,0.0,0.0,0.0,0.0,0.0,0.0,0.0,0.0,0.0,0.0,0.0,0.0,0.0,0.0,0.0,0.0,0.0,0.0,0.0,0.0,0.0,0.0,0.0,0.0,0.0,0.0,0.0,0.0,0.0,0.0,4.6083,4.6017,4.5998,4.5986,4.5947,4.5975,4.5986,4.5941,4.598,4.6017,4.6051,4.6089,4.6138,4.6196,4.6491,4.6647,4.6647,4.6937,4.7083,4.7083,4.7088,4.7084,4.7084,4.7079,4.7086,4.7088,4.7088,4.7109,4.7141,4.7141,4.7126,4.7012,4.6445,4.623,4.623,4.623,4.623,4.623,0.0,0.0,0.0,0.0,0.0,0.0,0.0,4.3674,4.365,4.3575,4.2804,4.2234,4.2169,4.1481,4.099,4.099,4.099,4.101,4.1029,4.1773,4.2224,4.2286,4.3926,4.5262,4.6184,4.6204,4.6221,4.6307,4.6307,4.6304,4.6294,4.6293,4.6308,4.6302,4.63,4.63,4.63,4.63,4.63,4.63,4.63,4.63,4.63,0.0,0.0,0.0,0.0,0.0,0.0,0.0,0.0,0.0,0.0,0.0,0.0,0.0,0.0,0.0,0.0,0.0,0.0,0.0,0.0,0.0,0.0,0.0,0.0,0.0,0.0,0.0,0.0,0.0,0.0,0.0,0.0,0.0,4.6307,4.6185,4.6084,4.6006,4.5993,4.5958,4.5827,4.591,4.5947,4.5852,4.5949,4.6055,4.6079,4.6129,4.6216,4.6277,4.7099,4.7547,4.7547,4.8376,4.8803,4.8806,4.8796,4.8804,4.8804,4.8804,4.8808,4.8806,4.8806,4.8799,4.8798,4.8798,4.8798,4.8642,4.7002,4.6378,4.6378,4.6378,4.6378,4.6378,0.0,0.0,0.0,0.0,0.0,0.0,4.3699,4.3154,4.2745,4.2724,4.1927,4.1367,4.1404,4.1156,4.099,4.099,4.099,4.1247,4.1835,4.2088,4.2794,4.4103,4.5213,4.5952,4.6267,4.6267,4.6288,4.6308,4.6307,4.6306,4.6305,4.6297,4.6291,4.6309,4.6303,4.63,4.63,4.63,4.63,4.63,4.63,4.63,4.63,0.0,0.0,0.0,0.0,0.0,0.0,0.0,0.0,0.0,0.0,0.0,0.0,0.0,0.0,0.0,0.0,0.0,0.0,0.0,0.0,0.0,0.0,0.0,0.0,0.0,0.0,0.0,0.0,0.0,0.0,0.0,0.0,4.628,4.623,4.6196,4.614,4.6079,4.6021,4.5993,4.5958,4.5922,4.6151,4.6697,4.6823,4.7162,4.7842,4.7949,4.8016,4.8084,4.8328,4.8436,4.8436,4.8677,4.8797,4.8797,4.8808,4.8808,4.8808,4.8802,4.8794,4.8808,4.8808,4.8805,4.8798,4.8798,4.8798,4.8759,4.8291,4.8115,4.8115,4.8115,4.8115,4.8115,0.0,0.0,0.0,0.0,0.0,0.0,4.2611,4.2181,4.1869,4.1853,4.1378,4.1078,4.1124,4.1111,4.1078,4.1078,4.1078,4.1431,4.2231,4.2975,4.4,4.5422,4.5968,4.6265,4.6308,4.6308,4.6308,4.6308,4.6308,4.6307,4.6307,4.6303,4.6299,4.6293,4.6308,4.6303,4.63,4.63,4.63,4.63,4.63,4.63,4.63,4.63,4.63,4.63,4.63,4.6267,4.6203,4.6206,0.0,0.0,0.0,0.0,0.0,0.0,0.0,0.0,0.0,0.0,0.0,0.0,0.0,0.0,0.0,0.0,0.0,0.0,0.0,0.0,0.0,0.0,0.0,0.0,4.63,4.629,4.6247,4.6226,4.6188,4.6158,4.6086,4.617,4.6508,4.6523,4.6858,4.7669,4.7767,4.8039,4.8616,4.8671,4.8725,4.8804,4.9149,4.933,4.933,4.9705,4.9882,4.9882,4.9898,4.9892,4.9892,4.9898,4.9891,0.0,4.9891,4.9891,4.9891,4.9891,4.9891,0.0,0.0,0.0,0.0,0.0,4.8798,4.8798,0.0,0.0,0.0,0.0,0.0,0.0,4.1109,4.1108,4.111,4.1112,4.1112,4.1132,4.1191,4.1191,4.1191,4.1191,4.1191,4.1582,4.248,4.418,4.5488,4.6269,4.6308,4.6308,4.6308,4.6308,4.6308,4.6308,4.6308,4.6308,4.6307,4.6307,4.6304,4.6295,4.6294,4.6309,4.6302,4.6302,4.63,4.63,4.63,4.63,4.63,4.63,4.63,4.63,4.63,4.6269,4.6211,4.6209,0.0,0.0,0.0,0.0,0.0,0.0,0.0,0.0,0.0,0.0,0.0,0.0,0.0,0.0,0.0,0.0,0.0,0.0,0.0,0.0,0.0,0.0,0.0,0.0,4.6378,4.6456,4.6456,4.6461,4.6464,4.6367,4.6302,4.6577,4.7389,4.7518,4.7882,4.8694,4.8742,4.883,4.8979,0.0,0.0,0.0,0.0,5.0251,5.0251,5.1015,5.1403,5.1403,5.1407,5.1394,5.1394,5.1394,5.1392,5.1386,5.1386,5.1386,5.1386,5.1386,5.1386,5.1232,4.9694,4.9091,4.9091,4.9091,4.9091,4.9091,0.0,0.0,0.0,0.0,0.0,0.0,4.1172,4.1172,4.1172,4.1172,4.1172,4.1191,4.1191,4.1191,4.1191,4.1191,4.1191,4.1836,4.3359,4.5078,4.6113,4.6289,4.6308,4.6308,4.6308,4.6308,4.6308,4.6308,4.6308,4.6308,4.6308,4.6307,4.6306,4.6305,4.6297,4.6293,4.629,4.6303,4.63,4.63,4.63,4.63,4.63,4.63,4.63,4.63,4.63,4.6298,4.6273,4.6214,4.6203,4.6195,4.6206,0.0,0.0,0.0,0.0,0.0,0.0,0.0,0.0,0.0,0.0,0.0,0.0,0.0,0.0,0.0,0.0,0.0,0.0,0.0,0.0,4.63,4.6885,4.7352,4.7352,4.7907,4.8051,4.7412,4.7324,4.7609,4.8368,4.8445,4.8774,4.9589,4.9703,5.0046,5.075,5.0856,0.0,5.0898,5.1066,5.1156,5.1156,5.1327,5.1403,5.1403,0.0,0.0,5.1394,5.1394,5.1333,5.1245,5.1245,5.1245,5.1245,5.1245,5.1245,5.1213,5.0989,5.0906,5.0906,5.0906,5.0906,5.0906,0.0,0.0,0.0,0.0,0.0,0.0,4.1191,4.1191,4.1191,4.1191,4.1191,4.1191,4.1191,4.1191,4.1191,4.1191,4.1973,4.2988,4.4277,4.5566,4.6308,4.6308,4.6308,4.6308,4.6308,4.6308,4.6308,4.6308,4.6308,4.6308,4.6308,4.6308,4.6308,4.6307,4.6304,4.6299,4.6293,4.6308,4.6305,4.63,4.63,4.63,4.63,4.63,4.63,4.63,4.63,4.63,4.63,4.6269,4.6245,4.6243,4.625,4.6245,4.6245,0.0,0.0,0.0,0.0,0.0,0.0,0.0,0.0,0.0,0.0,0.0,0.0,0.0,0.0,4.7061,0.0,0.0,4.7549,4.7549,4.792,4.8193,4.8193,4.8545,4.8644,4.8257,4.8195,4.8513,4.9313,4.9394,4.9744,5.0585,5.0683,5.0898,5.1328,5.1382,5.1394,5.1394,5.1402,5.1394,5.1394,5.1394,5.1362,5.1297,5.1297,5.1258,5.1203,5.1203,5.1159,5.1089,5.1089,5.1089,5.1089,5.1089,5.1089,5.1118,5.1163,5.1203,5.1203,5.1203,5.1203,5.1203,0.0,0.0,0.0,0.0,0.0,0.0,0.0,4.1191,4.1191,4.1191,4.1191,4.1191,4.1191,4.1191,4.1269,4.1426,4.2812,4.4062,4.4941,4.582,4.6308,4.6308,4.6308,4.6308,4.6308,4.6308,4.6308,4.6308,4.6308,4.6308,4.6308,4.6308,4.6308,4.6307,4.6306,4.6303,4.6295,4.6293,4.6306,4.63,4.63,4.63,4.63,4.63,4.63,4.63,4.63,4.63,4.63,4.63,4.63,4.63,4.63,4.63,4.63,4.63,4.6417,0.0,0.0,0.0,0.0,0.0,0.0,0.0,0.0,0.0,4.7844,4.7842,4.782,4.8037,4.8681,4.8798,4.8798,4.8798,4.8935,4.9052,4.9052,4.9208,4.9306,4.9306,4.9158,4.9393,5.0262,5.0354,5.0649,5.1357,5.1402,5.1403,5.1394,5.1394,5.1394,5.1394,5.1367,5.1362,5.1362,5.133,5.1262,5.1155,5.1155,5.1094,5.1002,5.1002,5.099,5.0985,5.0985,5.0985,5.0985,5.0985,5.0985,5.0985,5.0959,5.0946,5.0953,5.0984,5.1002,5.1002,0.0,0.0,0.0,0.0,0.0,0.0,0.0,0.0,4.1191,4.1191,4.1191,4.1191,4.1191,4.1191,4.1484,4.2207,4.3144,4.4062,4.4941,4.582,4.6308,4.6308,4.6308,4.6308,4.6308,4.6308,4.6308,4.6308,4.6308,4.6308,4.6308,4.6308,4.6308,4.6308,4.6305,4.6301,4.6301,4.6308,4.6302,4.63,4.63,4.63,4.63,4.63,4.63,4.63,4.63,4.63,4.63,4.63,4.63,4.63,4.63,4.63,4.63,4.63,0.0,4.745,4.745,4.8023,4.8594,4.8546,4.8636,4.8719,0.0,0.0,4.8748,4.8683,4.8662,4.8681,4.8779,4.8798,4.8798,4.8798,4.9442,4.9948,4.9948,5.0614,5.1102,5.1102,5.0427,5.0292,5.116,5.1249,5.1289,5.1394,5.1396,5.1396,5.1394,5.1394,5.1394,5.1394,5.1288,5.1214,5.1214,5.1094,5.1036,5.1025,5.1025,5.102,5.1002,5.1002,5.0959,5.0898,5.0898,5.0898,5.0898,5.0898,5.0898,5.0902,5.0784,5.074,5.0757,5.094,5.1002,5.1002,0.0,0.0,0.0,0.0,0.0,0.0,0.0,0.0,0.0,4.1191,4.1191,4.1191,4.1191,4.1191,4.1523,4.2324,4.3203,4.4062,4.4941,4.582,4.6308,4.6308,4.6308,4.6308,4.6308,4.6308,4.6308,4.6308,4.6308,4.6308,4.6308,4.6265,4.6219,4.6175,4.6145,4.6098,4.606,4.6066,4.6072,4.6061,4.6061,4.6061,4.6061,4.6061,4.6061,4.615,4.6828,4.7061,0.0,4.7061,4.7061,4.6963,4.6456,4.6651,4.7061,4.7061,4.7647,0.0,4.8296,4.8555,0.0,0.0,4.9225,4.9479,4.8965,4.9235,4.9583,4.956,4.9558,4.9716,5.0223,5.0301,5.0301,0.0,5.0614,5.0867,5.0867,5.118,5.1394,5.1394,5.1086,5.1008,5.1355,5.1398,5.14,5.1394,5.1394,5.1362,5.1291,5.1288,5.1248,5.1163,5.1103,5.1079,5.1079,5.1031,5.0985,5.0951,5.0951,5.0901,5.0827,5.0827,5.0805,5.0775,5.0775,5.0775,5.0775,5.0775,5.0775,5.0785,5.0721,5.0712,5.0712,5.0789,5.0827,5.0827,0.0,0.0,0.0,0.0,0.0,0.0,0.0,0.0,0.0,0.0,4.1172,4.1172,4.1171,4.1171,4.1503,4.2324,4.3161,4.4018,4.4897,4.5734,4.6219,4.6219,4.6245,4.6267,4.6267,4.6267,4.6267,4.6267,4.6243,4.6219,4.6219,4.6154,4.6092,4.6042,4.5986,4.5957,4.5901,4.5896,4.5901,4.5899,4.5899,4.5899,4.5899,4.5899,4.6055,4.6372,4.7242,4.755,4.7572,4.7838,4.7938,4.7822,4.7198,4.7412,4.7938,4.7938,4.8507,4.9214,4.9454,0.0,0.0,4.9582,5.0031,5.0303,4.9713,5.004,5.0463,5.0461,5.0457,5.0651,5.1277,5.1394,0.0,5.1394,5.1394,5.1394,5.1394,5.1394,5.139,5.1357,5.1335,5.133,5.1294,5.136,5.1388,5.1355,5.1335,5.1291,5.115,5.1146,5.1094,5.1008,5.0972,5.0972,5.0972,5.0933,5.0901,5.0841,5.0841,5.0793,5.0712,5.0712,5.0712,5.0712,5.0712,5.0712,5.0712,5.0712,5.0712,5.0712,5.0712,5.0846,5.1029,5.1029,5.0894,5.0712,0.0,0.0,0.0,0.0,0.0,0.0,0.0,0.0,0.0,0.0,0.0,0.0,0.0,4.1108,4.1459,4.2318,4.3072,4.3882,4.4743,4.5563,4.6002,4.6002,4.6136,4.6204,4.6204,4.6204,4.6204,4.6204,4.6063,4.6002,4.6018,4.5939,4.5907,4.5903,4.5896,4.5906,4.5901,4.5896,4.5905,4.5899,4.5899,4.5899,4.5899,4.5899,4.6419,4.7187,4.7358,4.7407,4.7554,4.8452,4.8759,4.8759,4.872,4.874,0.0,4.8759,4.9371,5.0256,0.0,0.0,5.1326,5.1321,5.1346,5.1347,5.1322,5.134,5.1357,5.1351,5.1363,5.1375,5.1394,5.1394,5.1394,5.1394,5.1394,5.1394,5.1394,5.1394,5.1357,5.1214,5.1207,5.115,0.0,5.1248,5.1355,5.1211,5.1207,5.1146,5.1014,5.1008,5.1008,5.1002,5.0937,5.0902,5.0902,5.0766,5.0702,5.0721,5.0721,5.0693,5.0712,5.0712,5.0712,5.0712,5.0712,5.0712,5.0712,5.0712,5.0712,5.0712,5.0712,5.1183,5.1865,5.1865,5.1375,5.0712,0.0,0.0,0.0,0.0,0.0,0.0,0.0,0.0,0.0,0.0,0.0,0.0,0.0,0.0,0.0,0.0,4.2671,4.3564,4.386,4.5165,4.5931,4.5931,4.5986,4.6001,4.6001,4.6001,4.6001,4.6001,4.5967,4.5931,4.5931,4.5876,4.5822,4.5838,4.5796,4.5733,4.5711,4.5696,4.5708,4.5708,4.5708,4.5708,4.5708,4.5708,4.6241,4.7086,0.0,4.8438,4.9056,4.9402,4.9492,4.9387,4.8983,4.9179,4.9667,5.033,5.073,5.1025,5.1322,0.0,5.1405,5.1405,5.1405,5.1405,5.1404,5.1398,5.1393,5.139,5.1402,5.1367,5.1288,5.1333,5.1364,5.1288,5.1262,5.1262,5.1262,5.1195,5.1123,5.1069,5.1063,0.0,0.0,0.0,0.0,5.1069,5.1063,5.1033,5.0937,5.093,5.113,5.1589,5.1585,5.1837,5.2425,5.2377,5.2356,5.2356,5.2356,5.2356,5.2356,5.2356,5.2356,5.2346,5.2085,5.1997,5.2001,5.1732,5.1668,5.1707,5.1707,5.1833,5.2028,5.2028,5.1811,5.1585,0.0,0.0,0.0,0.0,0.0,0.0,0.0,0.0,0.0,0.0,0.0,0.0,0.0,0.0,0.0,0.0,0.0,4.3325,4.3325,4.4891,4.583,4.583,4.5841,4.5867,4.5867,4.5867,4.5867,4.5867,4.5834,4.583,4.5825,4.577,4.5728,4.5737,4.5687,4.564,4.5594,4.5594,4.5594,4.5594,4.5594,4.5594,4.5594,4.5594,4.6317,0.0,4.8015,4.9034,5.015,5.0247,5.0276,5.0197,4.9802,5.0004,5.0497,5.1173,5.1366,5.1372,5.1384,5.1405,5.1406,5.1406,5.1406,5.1405,5.1405,5.1356,5.1336,5.1336,5.1288,5.1222,5.1146,5.1199,5.1238,5.1141,5.1132,5.1132,5.1132,5.1053,5.099,5.0959,5.0953,0.0,0.0,0.0,0.0,5.0953,5.0953,5.1046,5.125,5.126,5.1604,5.2337,5.2365,5.2635,5.3203,5.3203,5.3203,5.3203,5.3048,5.2984,5.2973,5.2812,5.2733,5.2721,5.2454,5.2373,5.2401,5.2195,5.2088,5.2099,5.2147,5.2307,5.2496,5.2496,5.2635,5.2847,0.0,0.0,0.0,0.0,0.0,0.0,0.0,0.0,0.0,0.0,0.0,0.0,0.0,0.0,0.0,0.0,0.0,0.0,4.3194,4.4708,4.5662,4.5701,4.5768,4.5796,4.5796,4.5796,4.5796,4.5796,4.5739,4.5701,4.5693,4.5631,4.5594,4.5594,4.5594,4.5594,4.5594,4.5594,4.5594,4.5594,4.5594,4.5594,4.5594,4.5594,4.6624,4.8048,4.8086,4.9183,5.0673,5.0907,5.1045,5.1097,5.1092,5.1132,5.121,5.1275,5.1286,5.1308,5.1379,5.1385,5.1386,5.1386,5.1386,5.1386,5.1386,5.1285,5.1193,5.1193,5.1098,5.1002,0.0,0.0,5.1002,5.0996,5.0996,5.0996,5.0996,5.099,5.0959,0.0,0.0,0.0,0.0,0.0,0.0,5.0948,0.0,5.125,5.1933,5.1962,5.2365,5.3241,5.328,5.3299,5.3337,5.3297,5.3287,5.3287,5.2893,5.271,5.2678,5.2242,5.2023,5.2023,5.2027,5.1992,5.2027,5.213,5.208,5.1996,5.213,5.2604,5.3201,5.3201,5.3726,5.4261,0.0,0.0,0.0,0.0,0.0,0.0,0.0,0.0,0.0,0.0,0.0,0.0,0.0,0.0,0.0,0.0,0.0,0.0,4.3014,4.4072,4.4957,4.5593,4.5643,4.5657,4.5657,4.5657,4.5657,4.5657,4.5637,4.5631,4.5631,4.5614,4.5594,4.5594,4.5594,4.5594,4.5594,4.5594,4.5594,4.5594,4.5594,4.5594,4.5594,4.5594,4.6259,4.7269,4.7875,4.8798,0.0,0.0,0.0,0.0,0.0,5.1108,5.121,5.1211,5.1222,5.1229,5.1249,5.1255,5.1258,5.1258,5.1258,5.1235,5.1184,5.1148,5.1107,5.1069,5.1014,5.0978,0.0,0.0,0.0,5.093,5.0935,0.0,5.0935,5.0847,0.0,0.0,0.0,5.075,5.0693,5.1241,0.0,0.0,5.1645,5.2002,5.2818,5.2876,5.328,5.4145,5.4164,5.4453,5.5049,5.4767,5.46,5.4549,5.4183,5.402,5.4001,5.3893,5.3827,5.3811,5.3481,5.3359,5.3449,5.3107,5.3031,5.3088,5.3144,5.3199,5.327,5.327,5.3379,5.3527,0.0,0.0,0.0,0.0,0.0,0.0,0.0,0.0,0.0,0.0,0.0,0.0,0.0,0.0,0.0,0.0,0.0,0.0,0.0,4.3766,4.462,4.5475,4.5531,4.5559,4.5559,4.5586,4.5594,4.5594,4.5594,4.5594,4.5594,4.5594,4.5577,4.5559,4.5559,4.555,4.5513,4.5513,4.5522,0.0,0.0,4.5577,4.5594,4.5594,4.6144,4.7,4.7817,0.0,0.0,0.0,0.0,5.0966,5.0958,5.1011,5.1075,5.1147,0.0,5.1171,5.1191,5.1203,5.1203,5.1203,5.1176,5.1148,5.1116,5.1049,5.099,5.0959,5.0912,0.0,0.0,0.0,0.0,0.0,0.0,0.0,5.0819,5.074,5.0712,0.0,5.0712,0.0,5.1183,5.1645,5.2212,0.0,5.2692,5.2856,5.3722,5.378,5.4103,5.4829,5.4856,5.497,5.5205,5.4947,5.4823,5.4779,5.4387,5.4187,5.4187,5.4015,5.3943,5.3925,0.0,5.3584,5.3641,5.3402,5.3336,5.3357,5.3418,5.3339,5.3254,5.3254,5.323,5.3227,0.0,0.0,0.0,0.0,0.0,0.0,0.0,0.0,0.0,0.0,0.0,0.0,0.0,0.0,0.0,0.0,0.0,0.0,0.0,0.0,4.4442,4.5362,4.5467,4.5495,4.5495,4.5531,4.5577,4.5577,4.5577,4.5577,4.5577,4.5577,4.5522,4.5429,4.5429,4.5371,4.5283,4.5283,4.5332,4.5371,4.5419,4.5476,4.5541,0.0,0.0,0.0,0.0,0.0,0.0,0.0,5.0729,5.0801,5.0858,5.089,5.0921,5.1037,5.1075,5.108,5.1142,5.1165,5.1165,5.1161,5.1128,5.1069,5.1045,5.0959,5.0879,5.0871,0.0,5.0712,5.0712,0.0,5.0712,5.0712,0.0,5.0712,5.0712,5.0712,5.0712,5.0712,5.0789,5.1125,5.1827,5.2115,5.2876,5.4395,5.3864,5.3825,5.4626,5.4613,5.4768,5.5185,5.5191,5.5004,5.4579,5.4452,5.4387,5.439,5.3942,5.372,5.3702,5.3359,5.3185,5.3185,0.0,0.0,5.3206,5.3254,5.3254,5.3206,5.3274,5.3254,5.3185,5.3185,5.3185,5.3185,0.0,0.0,0.0,0.0,0.0,0.0,0.0,0.0,0.0,0.0,0.0,0.0,0.0,0.0,0.0,0.0,0.0,0.0,0.0,0.0,0.0,4.5323,4.541,4.5419,4.5419,4.5429,4.5429,4.5429,4.5429,4.5429,4.5429,4.5429,4.5312,4.5085,4.5085,4.4954,4.4732,4.4732,4.4751,4.4788,4.5007,4.5085,4.5129,0.0,0.0,0.0,0.0,0.0,0.0,0.0,5.0654,5.072,5.0801,5.0863,5.0897,5.0929,5.0941,5.0952,5.0954,5.0942,5.0954,5.0944,5.0937,5.0914,5.0784,5.0743,0.0,0.0,0.0,5.0712,5.0712,5.0712,0.0,5.0712,0.0,0.0,0.0,0.0,5.0712,0.0,0.0,0.0,0.0,0.0,0.0,0.0,0.0,0.0,5.5462,5.5176,5.4887,5.4644,5.4628,5.4566,5.4441,5.4083,5.3888,5.3814,5.3482,5.3295,5.3295,5.323,5.3185,5.3185,0.0,0.0,5.3185,5.3206,5.3206,5.3206,5.3206,5.3206,5.3185,5.3185,5.3185,5.3185,0.0,0.0,0.0,0.0,0.0,0.0,0.0,0.0,0.0,0.0,0.0,0.0,0.0,0.0,0.0,0.0,0.0,0.0,0.0,0.0,0.0,0.0,0.0,0.0,0.0,4.539,0.0,0.0,0.0,4.54,4.54,0.0,0.0,0.0,4.48,4.465,4.4493,4.4493,4.4519,4.4572,4.4701,4.4763,0.0,0.0,0.0,0.0,0.0,0.0,0.0,0.0,5.0353,5.0436,5.072,5.081,5.0846,5.0846,5.0844,5.0861,5.0861,5.0861,5.0852,5.0855,5.0829,5.0775,5.071,0.0,0.0,0.0,0.0,5.0712,5.0712,0.0,0.0,0.0,0.0,0.0,0.0,0.0,0.0,0.0,0.0,0.0,0.0,0.0,0.0,0.0,0.0,0.0,5.5375,5.4833,5.4436,5.4259,5.3996,5.3851,5.3833,5.3603,5.3464,5.3422,5.3272,5.3185,5.3185,5.3185,5.3185,5.3185,5.3185,0.0,5.3185,5.3185,5.3185,5.3185,5.3185,5.3185,5.3185,5.3185,5.3185,5.3185,0.0,0.0,0.0,0.0,0.0,0.0,0.0,0.0,3.99,3.99,3.99,3.9922,4.0015,4.0137,0.0,0.0,0.0,0.0,0.0,0.0,0.0,0.0,0.0,0.0,0.0,0.0,0.0,0.0,0.0,0.0,0.0,0.0,0.0,0.0,0.0,0.0,0.0,4.414,4.4184,0.0,0.0,0.0,0.0,0.0,0.0,0.0,0.0,0.0,0.0,0.0,5.0019,5.0152,5.0518,5.071,5.0784,5.0784,5.0793,5.0801,5.0801,5.0801,5.0801,5.0784,5.0729,5.0692,5.0702,5.0693,0.0,0.0,5.0712,5.0712,5.0712,0.0,0.0,0.0,0.0,0.0,0.0,0.0,0.0,0.0,0.0,0.0,0.0,0.0,0.0,0.0,0.0,0.0,5.48,5.4272,5.3925,5.3833,5.3464,5.3277,5.3277,5.323,5.3185,5.3185,5.3185,5.3185,5.3185,5.3185,5.3185,5.3185,5.3185,0.0,0.0,5.3185,5.3185,5.3185,5.3185,5.3185,5.3185,5.3185,5.3185,5.3185,0.0,0.0,0.0,0.0,0.0,0.0,0.0,0.0,3.99,3.99,3.99,3.9867,3.9739,3.9867,0.0,0.0,0.0,0.0,0.0,0.0,0.0,0.0,0.0,0.0,0.0,0.0,0.0,0.0,0.0,0.0,0.0,0.0,0.0,0.0,0.0,0.0,0.0,0.0,0.0,0.0,0.0,0.0,0.0,0.0,0.0,0.0,0.0,0.0,0.0,0.0,0.0,5.0104,5.014,5.0415,5.071,5.071,0.0,0.0,5.0801,5.0801,5.0784,5.072,5.0701,5.0711,5.0702,0.0,0.0,5.0712,5.0712,5.0712,5.0712,5.0643,0.0,0.0,0.0,5.0407,0.0,0.0,0.0,0.0,0.0,0.0,0.0,0.0,0.0,0.0,0.0,0.0,0.0,5.3869,5.3644,5.3293,5.3227,5.3206,5.3206,5.3206,5.3185,5.3185,5.3185,5.3185,5.3185,5.3185,5.3185,5.3185,0.0,0.0,0.0,5.3185,5.3185,5.3185,5.3185,5.3185,5.3185,5.3185,5.3185,5.3185,0.0,0.0,0.0,0.0,0.0,0.0,0.0,3.9715,3.9715,3.9715,3.9715,3.9703,3.9656,3.9533,0.0,0.0,0.0,0.0,0.0,0.0,0.0,0.0,0.0,0.0,0.0,0.0,0.0,0.0,0.0,0.0,0.0,0.0,0.0,0.0,0.0,0.0,0.0,0.0,0.0,0.0,0.0,0.0,0.0,0.0,0.0,0.0,0.0,0.0,0.0,0.0,0.0,0.0,4.9746,4.9955,0.0,0.0,5.0712,5.073,5.073,5.073,5.073,5.0702,5.0536,5.0393,5.0391,0.0,5.0202,5.0358,5.0358,5.0336,5.0336,5.0291,5.0123,0.0,0.0,0.0,0.0,0.0,0.0,0.0,0.0,0.0,0.0,0.0,0.0,0.0,0.0,0.0,0.0,5.3424,5.3359,5.3206,5.3185,5.3185,5.3185,5.3185,5.3185,5.3185,5.3185,5.3185,5.3185,5.3185,5.3185,5.3185,0.0,0.0,0.0,5.3185,5.3185,5.3185,5.3185,5.3185,5.3185,5.3185,5.3185,5.3185,0.0,0.0,0.0,0.0,0.0,0.0,3.9602,3.9589,3.9589,3.9589,3.9589,3.9589,3.9589,3.9362,3.9397,3.9865,0.0,0.0,0.0,0.0,0.0,0.0,0.0,0.0,0.0,0.0,0.0,0.0,0.0,0.0,0.0,0.0,0.0,0.0,0.0,0.0,0.0,0.0,0.0,0.0,0.0,0.0,0.0,0.0,0.0,0.0,0.0,0.0,0.0,0.0,0.0,0.0,0.0,0.0,0.0,0.0,5.044,5.044,5.044,5.044,5.044,5.044,5.0237,5.0024,0.0,0.0,4.9752,4.9949,4.9962,4.9924,4.9924,4.9872,4.9706,4.9371,0.0,4.942,0.0,0.0,0.0,0.0,0.0,0.0,0.0,0.0,0.0,0.0,0.0,0.0,0.0,5.3185,5.3185,5.3185,5.3185,5.3185,5.3185,5.3185,5.3185,5.3185,5.3185,5.3185,5.3185,5.3185,5.3185,5.3185,0.0,0.0,0.0,5.3185,5.3185,5.3185,5.3185,5.3185,5.3185,5.3185,5.3185,5.3185,0.0,0.0,0.0,0.0,0.0,0.0,0.0,3.9589,3.9589,3.9589,3.9589,3.9589,3.9589,3.9362,3.9513,4.0314,0.0,0.0,0.0,0.0,0.0,0.0,0.0,0.0,0.0,0.0,0.0,4.4506,4.4233,0.0,0.0,0.0,0.0,0.0,0.0,0.0,0.0,0.0,0.0,0.0,0.0,0.0,0.0,0.0,0.0,0.0,0.0,0.0,0.0,0.0,0.0,0.0,0.0,4.9187,4.9551,0.0,4.9817,4.9817,4.9817,4.9817,4.9817,4.9817,4.9706,4.9613,0.0,0.0,4.9504,4.9522,4.9522,4.9522,4.9522,4.9445,4.9299,4.8963,4.9126,0.0,0.0,0.0,0.0,0.0,0.0,0.0,0.0,0.0,0.0,0.0,0.0,0.0,0.0,5.3185,5.3185,5.3185,5.3185,5.3185,5.3185,5.3185,5.3185,5.3185,5.3185,5.3185,5.3185,5.3185,5.3185,0.0,0.0,0.0,0.0,5.3185,5.3185,5.3185,5.3185,5.3185,5.3185,5.3185,5.3185,5.3185,0.0,0.0,0.0,0.0,0.0,0.0,0.0,0.0,3.9451,3.9451,3.9508,3.9406,3.9096,3.9346,3.9525,3.9511,0.0,0.0,0.0,0.0,0.0,0.0,0.0,0.0,0.0,0.0,4.3775,4.3946,4.3673,4.3508,4.3424,0.0,0.0,0.0,0.0,0.0,0.0,0.0,0.0,0.0,0.0,0.0,0.0,0.0,0.0,0.0,0.0,0.0,0.0,0.0,0.0,0.0,0.0,0.0,0.0,4.8969,4.9299,4.9645,4.9608,4.9636,4.9645,4.9608,4.9439,4.9256,4.9256,0.0,4.8951,4.918,4.918,4.9148,4.911,4.9048,4.8883,4.855,4.8568,0.0,0.0,0.0,0.0,0.0,0.0,0.0,0.0,0.0,0.0,0.0,0.0,0.0,0.0,5.3185,5.3185,5.3185,5.3185,5.3185,5.3185,5.3185,5.3185,5.3185,5.3185,5.3185,5.3185,5.3185,0.0,0.0,0.0,0.0,0.0,5.3185,5.3185,5.3185,5.3185,5.3185,5.3185,5.3185,5.3185,5.3185,0.0,0.0,0.0,0.0,0.0,0.0,0.0,0.0,3.9813,3.9653,3.9402,3.918,3.9041,3.9282,3.9598,3.9932,0.0,0.0,0.0,0.0,0.0,0.0,0.0,0.0,0.0,4.3338,4.3442,4.3545,4.3285,4.3105,4.3032,4.2863,4.2747,0.0,0.0,0.0,0.0,0.0,0.0,0.0,0.0,0.0,4.3541,0.0,0.0,0.0,0.0,0.0,0.0,0.0,0.0,0.0,0.0,0.0,0.0,0.0,4.8815,4.919,0.0,4.919,4.9202,4.9174,4.9019,0.0,0.0,0.0,4.855,4.8766,4.8747,4.8712,4.8675,4.864,4.8532,4.8326,4.8306,0.0,0.0,0.0,0.0,0.0,0.0,0.0,0.0,0.0,0.0,0.0,0.0,0.0,0.0,0.0,5.3185,5.3185,5.3185,5.3185,5.3185,5.3185,5.3185,5.3185,5.3185,5.3185,5.3185,5.3185,0.0,0.0,0.0,0.0,0.0,5.289,5.289,5.289,5.2828,5.2955,5.3082,5.2828,5.2783,5.2783,0.0,0.0,0.0,0.0,0.0,0.0,0.0,0.0,0.0,0.0,0.0,3.9139,3.9466,3.9407,0.0,0.0,0.0,0.0,0.0,0.0,0.0,0.0,0.0,0.0,0.0,4.2883,4.2976,4.3232,4.2976,4.2767,4.2589,4.2589,4.249,4.2308,4.251,4.2589,0.0,0.0,0.0,0.0,4.2955,4.3425,0.0,0.0,0.0,0.0,0.0,0.0,0.0,0.0,0.0,0.0,0.0,0.0,0.0,0.0,0.0,0.0,0.0,4.8587,0.0,0.0,0.0,0.0,0.0,0.0,0.0,4.8306,4.8306,4.8306,4.8306,4.8306,4.8306,4.8306,4.8306,0.0,0.0,0.0,0.0,0.0,0.0,0.0,0.0,0.0,0.0,0.0,0.0,0.0,0.0,0.0,5.3185,5.3185,5.3185,5.3185,5.3185,5.3185,5.3185,5.3185,5.3185,5.3185,5.3185,5.3185,0.0,0.0,0.0,0.0,0.0,5.2384,5.2343,5.2297,5.2226,5.2458,5.2787,5.2179,5.2018,5.2024,0.0,0.0,0.0,0.0,0.0,0.0,0.0,0.0,0.0,0.0,0.0,4.0871,4.0662,4.1178,0.0,0.0,0.0,0.0,0.0,0.0,0.0,0.0,0.0,0.0,0.0,4.2452,4.2472,4.2552,4.2472,4.243,4.2369,4.2369,4.2348,4.2308,4.2348,4.245,4.2609,0.0,0.0,0.0,4.357,4.3914,0.0,0.0,0.0,0.0,4.6644,4.7229,0.0,0.0,0.0,0.0,0.0,0.0,0.0,0.0,4.8306,4.8363,4.8363,0.0,4.8513,4.8401,4.8363,4.8343,0.0,0.0,0.0,0.0,0.0,4.8306,4.8306,4.8306,4.8306,4.8306,4.8306,0.0,0.0,0.0,0.0,0.0,0.0,0.0,0.0,0.0,0.0,0.0,0.0,0.0,0.0,0.0,5.3185,5.3185,5.3185,5.3185,5.3185,5.3185,5.3185,5.3185,5.3185,5.3185,5.3185,5.3185,0.0,0.0,0.0,0.0,5.2154,5.2232,5.191,5.1454,5.1879,5.1837,5.1537,5.1361,5.1335,5.1335,0.0,0.0,0.0,0.0,0.0,0.0,0.0,0.0,0.0,0.0,0.0,0.0,0.0,0.0,0.0,0.0,0.0,0.0,0.0,0.0,0.0,0.0,0.0,0.0,4.2103,4.2246,4.2308,4.2308,4.2308,4.2246,4.2103,4.2103,4.2061,4.1995,4.2082,4.2267,4.2488,4.2826,4.303,4.3204,4.4014,0.0,0.0,0.0,0.0,0.0,4.7127,4.7438,0.0,4.7866,4.7888,4.7968,0.0,0.0,0.0,0.0,4.8229,4.8287,4.8267,4.8324,4.8382,4.8306,4.8306,4.8306,4.8306,0.0,0.0,0.0,0.0,4.8306,4.8306,4.8306,0.0,0.0,0.0,0.0,0.0,0.0,0.0,0.0,0.0,0.0,0.0,0.0,0.0,0.0,0.0,0.0,0.0,0.0,5.3185,5.3185,5.3143,5.3143,5.3185,5.3185,5.3185,5.3185,5.3185,5.3164,5.3103,5.2831,5.268,0.0,0.0,0.0,5.1284,5.1302,5.1095,5.0778,5.1008,5.1087,5.0973,5.067,5.0589,5.0589,0.0,0.0,0.0,0.0,0.0,0.0,0.0,0.0,0.0,0.0,0.0,0.0,0.0,0.0,0.0,0.0,0.0,0.0,0.0,0.0,0.0,0.0,0.0,4.1831,4.1831,4.2082,4.2205,4.2205,4.2205,4.2082,4.1831,4.1831,4.1762,4.1604,4.1925,4.2175,4.2478,4.3223,4.3561,4.3658,4.446,0.0,0.0,0.0,0.0,0.0,0.0,0.0,0.0,4.7717,4.7798,4.7861,4.7881,0.0,0.0,0.0,0.0,0.0,4.8207,4.8247,4.8306,4.8306,4.8306,4.8306,4.8306,0.0,0.0,0.0,0.0,0.0,0.0,0.0,0.0,0.0,0.0,0.0,0.0,0.0,0.0,0.0,0.0,0.0,0.0,0.0,0.0,0.0,0.0,0.0,0.0,0.0,0.0,5.3164,5.3042,5.302,5.3143,5.3143,5.3143,5.3143,5.3143,5.3039,5.2828,5.233,5.1988,0.0,0.0,0.0,5.0248,5.0265,5.0209,5.0096,5.0074,5.0293,5.0535,4.9971,4.9832,4.9832,0.0,0.0,0.0,0.0,0.0,0.0,0.0,0.0,0.0,0.0,0.0,0.0,0.0,0.0,0.0,0.0,0.0,0.0,0.0,0.0,0.0,0.0,4.1626,4.1648,4.1648,4.1692,4.1714,4.1714,4.1714,4.1692,4.1648,4.1648,4.1626,4.1639,4.2329,4.2785,4.3022,4.382,4.4267,4.4478,4.5302,0.0,0.0,0.0,0.0,0.0,0.0,0.0,0.0,4.7717,4.7699,4.7759,4.7861,0.0,0.0,0.0,0.0,0.0,4.8207,4.8247,4.8306,4.8306,4.8306,4.8306,4.8306,4.8306,0.0,0.0,0.0,0.0,0.0,0.0,0.0,0.0,0.0,0.0,0.0,0.0,0.0,0.0,0.0,0.0,0.0,0.0,0.0,0.0,0.0,0.0,0.0,0.0,0.0,5.302,5.2893,5.2828,5.2868,5.2868,5.2868,5.2868,5.2868,5.2608,5.2155,5.206,5.1739,0.0,0.0,5.0276,5.0033,5.0113,4.9774,4.9243,4.9744,4.9656,4.9273,4.9168,4.9138,4.9138,0.0,0.0,0.0,0.0,0.0,0.0,0.0,0.0,0.0,0.0,0.0,0.0,0.0,0.0,0.0,0.0,0.0,0.0,0.0,0.0,0.0,4.1604,4.1604,4.1604,4.1604,4.1604,4.1604,4.1604,4.1604,4.1604,4.1604,4.1604,4.1832,4.2271,4.264,4.3077,4.3573,4.4383,4.4788,4.4933,0.0,0.0,0.0,0.0,0.0,0.0,0.0,0.0,0.0,0.0,4.7511,4.7341,4.7678,0.0,0.0,0.0,0.0,0.0,4.8046,4.8088,4.8131,4.8131,4.8229,4.8287,4.8247,4.8267,0.0,0.0,0.0,0.0,0.0,0.0,0.0,0.0,0.0,0.0,0.0,0.0,0.0,0.0,0.0,0.0,0.0,0.0,0.0,0.0,0.0,0.0,0.0,0.0,0.0,0.0,5.2743,5.2698,5.2698,5.3081,5.3126,5.2783,5.2518,5.2203,5.1873,5.1217,5.0751,5.0415,0.0,4.9538,4.9462,4.9496,4.932,4.9032,4.932,4.9243,4.9001,4.9001,4.9001,4.9001,0.0,0.0,0.0,0.0,0.0,0.0,0.0,0.0,0.0,0.0,0.0,0.0,0.0,0.0,0.0,0.0,0.0,0.0,0.0,0.0,4.156,4.1604,4.1604,4.1604,4.1604,4.1604,4.1604,4.1604,4.1604,4.167,4.184,4.1863,4.2261,4.2969,4.3185,4.3612,4.419,4.4979,4.5337,4.5414,0.0,0.0,0.0,0.0,0.0,0.0,0.0,0.0,0.0,0.0,0.0,0.0,0.0,0.0,0.0,4.7533,4.756,4.7606,4.7699,4.7747,4.7834,4.7949,4.8092,4.8209,4.8207,4.8208,0.0,0.0,0.0,0.0,0.0,0.0,0.0,0.0,0.0,0.0,0.0,0.0,0.0,0.0,0.0,0.0,0.0,0.0,0.0,0.0,0.0,0.0,0.0,0.0,0.0,0.0,5.2649,5.2654,5.2854,5.326,5.3237,5.2771,5.2396,5.1994,5.1578,5.0484,4.9867,4.9656,4.9199,4.9001,4.9001,4.9001,4.9001,4.9001,4.9001,4.9001,4.9001,4.9001,4.9001,4.9001,0.0,0.0,0.0,0.0,0.0,0.0,0.0,0.0,0.0,0.0,0.0,0.0,0.0,0.0,0.0,0.0,0.0,0.0,0.0,0.0,4.1471,4.1604,4.1604,4.1604,4.1604,4.1604,4.1604,4.1604,4.1604,4.1923,4.2544,4.2659,4.2975,4.3495,4.4366,4.4782,4.4869,4.5621,4.6027,4.6126,4.6179,0.0,0.0,0.0,0.0,0.0,0.0,0.0,0.0,0.0,0.0,0.0,0.0,0.0,4.6954,4.6954,4.6707,4.6525,4.7022,4.7204,4.736,4.7804,4.7968,4.8052,4.8168,4.811,0.0,4.8187,0.0,0.0,0.0,0.0,0.0,0.0,0.0,0.0,0.0,0.0,0.0,0.0,0.0,0.0,0.0,0.0,0.0,0.0,0.0,0.0,0.0,0.0,0.0,0.0,0.0,5.2883,5.3626,5.3057,5.2751,5.2723,5.2715,5.2165,5.1025,5.0258,4.9615,4.9063,4.9032,4.9001,4.9001,4.9001,4.9001,4.9001,4.9001,4.9001,4.9001,4.9001,4.9001,4.9001,0.0,0.0,0.0,0.0,0.0,0.0,0.0,0.0,0.0,0.0,0.0,0.0,0.0,0.0,0.0,0.0,0.0,0.0,0.0,0.0,4.1471,4.1604,4.1604,4.1604,4.1604,4.1604,4.1604,4.1604,4.2113,4.2494,4.2724,4.3249,4.3857,4.4515,4.4879,4.5288,4.5719,4.5925,4.6023,4.6073,4.6073,4.6147,0.0,0.0,0.0,0.0,0.0,0.0,0.0,0.0,4.6678,4.6554,4.6678,4.6566,4.6406,4.6406,4.631,4.6238,4.643,4.6735,4.6963,4.6822,4.7306,0.0,0.0,4.8008,4.8012,4.807,4.805,0.0,0.0,0.0,0.0,0.0,0.0,0.0,0.0,0.0,0.0,0.0,0.0,0.0,0.0,0.0,0.0,0.0,0.0,0.0,0.0,0.0,0.0,0.0,0.0,5.2678,5.3075,5.3312,5.3308,5.3009,5.2584,5.19,5.0969,5.0317,4.9654,4.9001,4.9001,4.9001,4.9001,4.9001,4.9001,4.9001,4.9001,4.9001,4.9001,4.9001,4.9001,4.9001,0.0,0.0,0.0,0.0,0.0,0.0,0.0,0.0,0.0,0.0,0.0,0.0,0.0,0.0,0.0,0.0,0.0,0.0,0.0,4.1307,4.1358,4.1475,4.1475,4.1475,4.1475,4.1721,4.1861,4.1923,4.2648,4.3127,4.3348,4.3903,4.4526,4.5204,4.5229,4.5551,4.5998,4.5922,4.5897,4.5922,4.5922,4.5947,0.0,0.0,0.0,0.0,0.0,0.0,0.0,0.0,4.5985,4.5852,4.5992,4.595,4.5868,4.5868,4.5868,4.5875,4.6049,4.6382,4.6637,4.6613,0.0,0.0,4.7798,4.7866,4.7929,4.7949,4.837,0.0,0.0,0.0,0.0,0.0,0.0,0.0,0.0,0.0,0.0,0.0,0.0,0.0,0.0,0.0,0.0,0.0,0.0,0.0,0.0,0.0,0.0,0.0,0.0,5.2485,5.3066,5.3255,5.3398,5.3566,5.2866,5.2035,5.1028,5.0405,4.9695,4.9001,4.9001,4.9001,4.9001,4.9001,4.9001,4.9001,4.9001,4.9001,4.9035,4.9255,4.9357,4.9373,0.0,0.0,0.0,0.0,0.0,0.0,0.0,0.0,0.0,0.0,0.0,0.0,0.0,0.0,0.0,0.0,0.0,0.0,4.1093,4.1093,4.1123,4.1209,4.1209,4.1209,4.1209,4.2009,4.2474,4.2608,4.3223,4.3868,4.4506,4.4649,4.4973,4.5397,4.5537,4.5607,4.5607,4.5607,4.5684,4.5795,4.5795,4.5871,4.5998,0.0,0.0,0.0,0.0,0.0,0.0,0.0,4.5563,4.5893,4.5875,4.5614,4.5276,4.5276,4.5276,4.5407,4.5925,4.6074,4.6358,0.0,0.0,0.0,4.7554,4.7696,4.7756,4.7879,0.0,0.0,0.0,0.0,0.0,0.0,0.0,0.0,0.0,0.0,0.0,0.0,0.0,0.0,0.0,0.0,0.0,0.0,0.0,0.0,0.0,0.0,0.0,0.0,5.1909,5.2325,5.3868,5.2689,5.286,5.4374,5.3766,5.2706,5.12,5.0439,4.9712,4.9018,4.9001,4.9001,4.9001,4.9001,4.9001,4.9001,4.9001,4.9001,4.9103,4.983,5.0101,5.0202,0.0,0.0,0.0,0.0,0.0,0.0,0.0,0.0,0.0,0.0,0.0,0.0,0.0,0.0,0.0,0.0,0.0,0.0,4.1093,4.1093,4.1123,4.1209,4.1209,4.147,4.2027,4.3253,4.3669,4.3241,4.3976,4.4456,4.4649,4.5196,4.5535,4.5667,4.5718,4.5744,4.5718,4.5658,4.5615,4.5641,4.5641,4.5441,4.5089,0.0,0.0,0.0,0.0,0.0,0.0,0.0,0.0,0.0,4.4708,4.4558,4.4474,4.4586,4.4614,4.4669,4.4944,4.5284,0.0,0.0,0.0,0.0,0.0,4.7273,0.0,0.0,0.0,0.0,0.0,0.0,0.0,0.0,0.0,0.0,0.0,0.0,0.0,0.0,0.0,0.0,0.0,0.0,0.0,0.0,0.0,0.0,0.0,0.0,0.0,0.0,5.1694,5.1696,5.1847,5.2023,5.2372,5.2949,5.3313,5.2959,5.1961,5.1217,5.0473,4.9729,4.9221,4.9001,4.9001,4.9001,4.894,4.8863,4.8863,4.9184,4.9658,4.9877,5.036,5.0881,0.0,0.0,0.0,0.0,0.0,0.0,0.0,0.0,0.0,0.0,4.0912,4.0912,0.0,0.0,0.0,0.0,0.0,0.0,0.0,0.0,4.1029,4.1088,4.1365,4.2042,4.3135,4.3996,4.4369,4.4254,4.474,4.4982,4.4982,4.5433,4.5658,4.5658,4.5658,4.5658,4.5632,4.5537,4.538,4.5177,4.5177,4.4818,4.4294,0.0,0.0,0.0,0.0,0.0,0.0,0.0,0.0,0.0,4.4068,4.4056,4.4126,4.4253,4.4446,4.4669,4.4824,4.5072,0.0,0.0,0.0,0.0,0.0,0.0,0.0,0.0,0.0,0.0,0.0,0.0,0.0,0.0,0.0,0.0,0.0,0.0,0.0,0.0,0.0,0.0,0.0,0.0,0.0,0.0,0.0,0.0,0.0,0.0,0.0,0.0,5.1148,5.0955,5.0998,5.1205,5.1634,5.2317,5.279,5.2942,5.2739,5.1691,5.0811,5.005,4.9323,4.9001,4.9001,4.894,4.8863,4.8803,4.9026,4.9397,4.9851,5.0439,5.0992,5.1478,0.0,0.0,0.0,0.0,0.0,0.0,0.0,0.0,0.0,0.0,4.0912,4.0912,0.0,0.0,0.0,0.0,0.0,0.0,0.0,0.0,4.0929,4.0998,4.1792,4.2879,4.4276,4.438,4.4716,4.5397,4.5397,4.5397,4.5397,4.5397,4.5397,4.5397,4.5397,4.5371,4.5318,4.5371,4.5042,4.4502,4.4558,4.4226,4.3685,4.3685,0.0,0.0,0.0,0.0,0.0,0.0,0.0,0.0,4.3839,4.3939,4.4068,4.4224,4.4642,4.5028,4.5188,0.0,0.0,0.0,0.0,0.0,0.0,0.0,0.0,0.0,0.0,0.0,0.0,0.0,0.0,0.0,0.0,0.0,0.0,0.0,0.0,0.0,0.0,0.0,0.0,0.0,0.0,0.0,0.0,0.0,0.0,0.0,0.0,0.0,5.0477,5.0206,5.0806,5.0345,5.0811,0.0,5.2266,5.2723,5.345,5.1978,5.083,5.005,4.9292,4.897,4.894,4.8832,4.882,4.8906,4.937,4.9639,4.9924,5.1296,5.1832,5.1982,0.0,0.0,0.0,0.0,0.0,0.0,0.0,0.0,0.0,0.0,0.0,0.0,0.0,0.0,0.0,0.0,0.0,0.0,0.0,0.0,4.117,4.1757,4.3086,4.3966,4.4294,4.4872,4.5225,4.5397,4.5397,4.5397,4.5397,4.5397,4.5397,4.5397,4.5397,4.514,4.4725,4.5194,4.5042,4.453,4.5032,4.4524,4.3525,4.3525,4.2923,0.0,0.0,0.0,0.0,0.0,0.0,0.0,4.3265,4.3462,4.3747,4.3939,4.4155,4.435,4.4474,4.4631,0.0,0.0,0.0,0.0,0.0,0.0,0.0,0.0,0.0,0.0,0.0,0.0,0.0,0.0,0.0,0.0,0.0,0.0,0.0,0.0,0.0,0.0,0.0,0.0,0.0,0.0,0.0,0.0,0.0,0.0,0.0,5.0929,5.0254,4.9742,4.9437,4.9859,5.0541,0.0,5.2029,5.2723,5.3467,5.2503,5.1305,4.991,4.9152,4.8753,4.861,4.8595,4.8818,4.9207,4.9309,5.0076,5.1126,5.1442,5.2029,5.2651,0.0,0.0,0.0,0.0,0.0,0.0,0.0,0.0,0.0,0.0,0.0,0.0,0.0,0.0,0.0,0.0,0.0,0.0,0.0,0.0,0.0,4.3051,4.388,4.4483,4.482,4.519,4.5397,4.5397,4.5397,4.5397,0.0,0.0,4.5397,4.5397,4.5113,4.4961,4.4934,4.4961,4.4597,4.4042,4.4356,4.3718,4.2584,4.2584,4.219,4.1621,4.1785,0.0,0.0,0.0,0.0,0.0,0.0,0.0,4.3402,4.3598,4.3822,4.4056,4.4253,0.0,0.0,0.0,0.0,0.0,0.0,0.0,0.0,0.0,0.0,0.0,0.0,0.0,0.0,0.0,0.0,0.0,0.0,0.0,0.0,0.0,0.0,0.0,0.0,0.0,0.0,0.0,0.0,0.0,0.0,5.15,5.0902,5.0349,4.9756,4.9303,4.9001,4.9373,4.9932,5.0676,5.134,5.2219,5.3179,5.2522,5.1495,5.0238,4.95,4.9132,4.8986,4.8538,4.8709,4.9326,4.961,5.0423,5.1436,5.1785,5.2237,5.264,0.0,0.0,0.0,0.0,0.0,0.0,0.0,0.0,0.0,0.0,0.0,0.0,0.0,0.0,0.0,0.0,0.0,0.0,0.0,0.0,0.0,0.0,4.4432,4.4768,4.538,4.5397,4.5397,4.5397,4.5397,0.0,0.0,0.0,0.0,4.522,0.0,4.4807,4.5042,4.4669,4.41,4.3512,4.3512,4.2833,4.1769,4.1769,4.172,4.1588,4.1588,4.1785,4.2013,4.2013,0.0,0.0,0.0,0.0,4.3066,4.3281,4.3568,4.3881,4.4138,0.0,4.4406,0.0,0.0,0.0,0.0,0.0,0.0,0.0,0.0,0.0,0.0,0.0,0.0,0.0,0.0,0.0,0.0,0.0,0.0,0.0,0.0,0.0,0.0,0.0,0.0,0.0,0.0,0.0,5.1619,5.0929,5.0359,4.9919,4.9273,4.8987,4.8987,4.894,4.928,5.0038,5.0771,5.1665,5.2668,5.2336,5.1682,5.0794,5.0074,4.9657,4.9457,4.8677,4.8778,4.9493,4.9989,5.0734,5.158,5.2194,5.2409,5.2409,0.0,0.0,0.0,0.0,0.0,0.0,0.0,0.0,0.0,0.0,4.0912,0.0,0.0,0.0,0.0,0.0,0.0,0.0,0.0,0.0,0.0,4.4294,4.4906,4.5294,4.5397,4.5397,4.5397,4.5397,0.0,0.0,0.0,0.0,0.0,4.4642,0.0,4.4708,4.3777,4.4288,4.41,4.3512,4.3512,4.3061,4.2459,4.2459,0.0,0.0,4.1588,4.1621,4.1654,4.1654,4.1883,0.0,0.0,0.0,4.271,4.3052,4.3312,4.3539,0.0,0.0,0.0,0.0,0.0,0.0,0.0,0.0,0.0,0.0,0.0,0.0,0.0,0.0,0.0,0.0,0.0,0.0,0.0,0.0,0.0,0.0,0.0,0.0,0.0,0.0,0.0,0.0,0.0,0.0,5.1576,5.0587,4.9959,4.9919,4.9199,4.8849,4.8849,4.8658,4.8948,4.967,5.1061,5.168,5.1726,5.2276,5.2109,5.1341,5.0626,4.9859,4.9161,4.9028,4.9426,5.0105,5.0171,5.1032,5.2277,5.234,5.2409,5.2409,0.0,0.0,0.0,0.0,0.0,0.0,0.0,0.0,0.0,0.0,0.0,4.0912,0.0,0.0,0.0,0.0,0.0,0.0,0.0,0.0,0.0,4.4906,4.5225,4.5397,4.5397,4.5397,4.5397,4.5397,0.0,0.0,0.0,4.5397,4.5264,0.0,0.0,0.0,0.0,4.3604,4.3276,4.2986,4.2986,4.26,0.0,0.0,0.0,0.0,0.0,0.0,0.0,4.1588,4.1687,4.1818,4.1818,0.0,0.0,0.0,4.2726,0.0,4.3509,0.0,0.0,0.0,0.0,0.0,0.0,0.0,0.0,0.0,0.0,0.0,0.0,0.0,0.0,0.0,0.0,0.0,0.0,0.0,0.0,0.0,0.0,0.0,0.0,0.0,0.0,0.0,0.0,5.067,5.0642,5.0187,4.9715,4.932,4.897,4.8738,4.8627,4.8547,4.882,4.9458,5.0527,5.1159,5.142,5.2167,5.2298,5.1984,5.1237,5.0704,5.0286,4.9889,5.0154,5.0817,5.0817,5.1462,5.2409,5.2409,5.2409,5.2409,0.0,0.0,0.0,0.0,0.0,0.0,0.0,0.0,0.0,0.0,0.0,0.0,0.0,0.0,0.0,0.0,0.0,0.0,0.0,0.0,0.0,4.538,4.5397,4.5397,4.5397,4.5397,4.5318,0.0,0.0,0.0,4.5167,4.5167,4.5167,0.0,4.4186,4.3852,0.0,0.0,0.0,0.0,0.0,0.0,0.0,0.0,0.0,0.0,0.0,0.0,0.0,0.0,0.0,0.0,0.0,0.0,0.0,0.0,0.0,0.0,0.0,0.0,0.0,0.0,0.0,0.0,0.0,0.0,0.0,0.0,0.0,0.0,0.0,0.0,0.0,0.0,0.0,0.0,0.0,0.0,0.0,0.0,0.0,0.0,0.0,0.0,0.0,0.0,0.0,5.0135,4.9844,4.9686,4.9346,4.8738,4.8675,4.8564,4.842,4.8388,4.8559,4.8978,4.9726,5.0407,5.1067,5.1761,5.2243,5.2393,5.1829,5.1481,5.1265,5.0701,5.08,5.1315,5.1315,5.1763,5.2409,5.2409,5.2409,5.2409,0.0,0.0,0.0,0.0,0.0,0.0,0.0,0.0,0.0,0.0,0.0,0.0,0.0,0.0,0.0,4.1947,0.0,0.0,0.0,0.0,0.0,4.5397,4.5397,0.0,4.5397,4.5397,0.0,0.0,0.0,0.0,4.4558,4.4558,4.4558,4.453,4.4474,4.3781,4.2694,0.0,0.0,0.0,0.0,0.0,0.0,0.0,0.0,0.0,0.0,0.0,0.0,0.0,0.0,0.0,0.0,0.0,0.0,0.0,0.0,0.0,0.0,0.0,0.0,0.0,0.0,0.0,0.0,0.0,0.0,0.0,0.0,0.0,0.0,0.0,0.0,0.0,0.0,0.0,0.0,0.0,0.0,0.0,0.0,0.0,0.0,0.0,0.0,0.0,0.0,4.9256,4.9588,4.9135,4.8753,4.8515,4.8324,4.8227,4.8227,4.8082,4.805,4.8067,4.8812,4.9541,5.0286,5.0999,5.1746,5.2409,5.2376,5.1962,5.1315,5.1265,5.1282,5.1315,5.1315,5.1763,5.2409,5.2409,5.2409,5.2409,0.0,0.0,0.0,0.0,0.0,0.0,0.0,0.0,0.0,0.0,0.0,0.0,0.0,4.1843,4.2223,4.2723,4.3465,0.0,0.0,0.0,0.0,4.5397,4.5397,4.5397,4.5397,4.5015,0.0,0.0,0.0,4.4485,4.3881,4.4288,4.4059,4.3276,4.3276,4.3033,4.2585,4.2142,0.0,0.0,0.0,0.0,0.0,0.0,0.0,0.0,0.0,0.0,0.0,0.0,0.0,0.0,0.0,0.0,0.0,0.0,0.0,0.0,0.0,0.0,0.0,0.0,0.0,0.0,0.0,0.0,0.0,0.0,0.0,0.0,0.0,0.0,0.0,0.0,0.0,0.0,0.0,0.0,0.0,0.0,0.0,0.0,0.0,0.0,0.0,0.0,0.0,0.0,4.909,4.8767,4.8532,4.8324,4.8227,4.8163,4.8049,4.8033,4.8001,4.8017,4.8763,4.9508,5.0237,5.0949,5.1713,5.2409,5.2409,5.226,5.2028,5.2028,5.2028,5.2028,5.2028,5.2177,5.2409,5.2409,5.2409,5.2409,0.0,0.0,0.0,0.0,0.0,0.0,0.0,0.0,0.0,0.0,0.0,0.0,0.0,0.0,4.3103,4.3854,4.4199,4.4644,4.5363,4.5397,4.5397,4.5397,4.5194,4.5194,4.5397,0.0,0.0,0.0,0.0,0.0,0.0,4.3735,4.3426,4.2585,4.2365,4.2269,0.0,0.0,0.0,4.1588,0.0,0.0,4.1588,0.0,0.0,0.0,0.0,0.0,0.0,0.0,0.0,0.0,0.0,0.0,0.0,0.0,0.0,0.0,0.0,0.0,0.0,0.0,0.0,0.0,0.0,0.0,0.0,0.0,0.0,0.0,0.0,0.0,0.0,0.0,0.0,0.0,0.0,0.0,0.0,0.0,0.0,0.0,0.0,0.0,0.0,0.0,0.0,0.0,4.869,4.8532,4.8324,4.8147,4.813,4.8082,4.8001,4.8001,4.8001,4.8017,4.8514,4.9127,4.9872,5.0585,5.1313,5.2061,5.231,5.2409,5.2409,5.2409,5.2409,5.2409,5.2409,5.2409,5.2409,5.2409,5.2409,5.2409,0.0,0.0,0.0,0.0,0.0,0.0,0.0,0.0,0.0,0.0,0.0,0.0,0.0,0.0,0.0,4.5328,4.4879,4.4769,4.5344,4.5371,4.5371,4.5344,0.0,0.0,0.0,0.0,0.0,0.0,0.0,0.0,0.0,0.0,4.2585,4.2554,4.19,4.1588,4.1588,0.0,4.1588,4.1588,0.0,4.1588,4.1588,0.0,0.0,0.0,4.1169,4.1187,0.0,0.0,0.0,0.0,0.0,0.0,0.0,0.0,0.0,0.0,0.0,0.0,0.0,0.0,0.0,0.0,0.0,0.0,0.0,0.0,0.0,0.0,0.0,0.0,0.0,0.0,0.0,0.0,0.0,0.0,0.0,0.0,0.0,0.0,0.0,0.0,0.0,0.0,0.0,4.8483,4.8483,4.8292,4.813,4.8001,4.8001,4.8001,4.8001,4.8001,4.8001,4.8001,4.8001,4.8398,4.9144,4.9872,5.0601,5.1348,5.2094,5.2409,5.2409,5.2409,5.2409,5.2409,5.2409,5.2409,5.2409,5.2409,5.2409,5.2409,0.0,0.0,0.0,0.0,0.0,0.0,0.0,0.0,0.0,0.0,0.0,0.0,0.0,0.0,0.0,4.5353,4.5247,4.5032,4.4769,4.4742,4.4541,4.4054,4.4344,0.0,0.0,0.0,0.0,0.0,0.0,0.0,0.0,0.0,0.0,0.0,4.1687,4.1588,4.1588,4.1588,0.0,0.0,4.1588,4.1588,0.0,0.0,0.0,0.0,0.0,4.1321,0.0,0.0,4.1138,4.0987,0.0,0.0,0.0,0.0,0.0,0.0,4.1555,0.0,0.0,0.0,0.0,0.0,0.0,0.0,0.0,0.0,0.0,0.0,0.0,0.0,0.0,0.0,0.0,0.0,0.0,0.0,0.0,0.0,0.0,0.0,0.0,0.0,0.0,0.0,4.8405,4.8179,4.8292,4.8147,4.8033,4.8001,4.8001,4.8001,4.8001,4.8001,4.8001,4.8001,4.8001,4.8398,4.9144,4.9872,5.0601,5.1348,5.2094,5.2409,5.2409,5.2409,5.2409,5.2409,5.2409,5.2409,5.2409,5.2409,5.2409,5.2409,0.0,0.0,0.0,0.0,0.0,0.0,0.0,0.0,0.0,0.0,0.0,0.0,0.0,0.0,0.0,4.4961,4.4541,4.4186,4.41,4.4071,4.391,4.3512,4.3617,4.3647,0.0,0.0,0.0,0.0,0.0,0.0,0.0,0.0,0.0,0.0,0.0,0.0,0.0,0.0,0.0,0.0,4.1588,0.0,0.0,4.1522,4.1423,0.0,0.0,0.0,4.1135,4.1372,4.1256,0.0,0.0,0.0,0.0,0.0,0.0,0.0,0.0,0.0,0.0,0.0,0.0,0.0,4.3524,4.4236,0.0,0.0,0.0,0.0,0.0,0.0,0.0,0.0,0.0,0.0,0.0,0.0,0.0,0.0,0.0,0.0,0.0,0.0,0.0,4.8658,4.8261,4.8033,4.8115,4.8033,4.8001,4.8001,4.8001,4.8001,4.8001,4.8001,4.8001,4.8001,4.8001,4.8233,4.868,4.974,5.0436,5.0899,5.1962,5.2409,5.2409,5.2409,5.2409,5.2409,5.2409,5.2409,5.2409,5.2409,5.2409,5.2409,0.0,0.0,0.0,0.0,0.0,0.0,0.0,0.0,0.0,0.0,0.0,0.0,0.0,0.0,0.0,0.0,4.335,4.2911,4.3363,4.3393,0.0,4.3303,4.2849,4.2818,4.3273,0.0,0.0,0.0,0.0,0.0,0.0,0.0,0.0,0.0,0.0,0.0,0.0,0.0,0.0,4.1588,4.1588,4.1588,0.0,0.0,4.1323,0.0,4.1323,4.1239,4.1203,4.1472,4.1423,0.0,0.0,0.0,0.0,0.0,4.1068,0.0,0.0,0.0,0.0,0.0,0.0,0.0,4.2909,4.3363,4.4107,0.0,0.0,0.0,0.0,0.0,0.0,0.0,0.0,0.0,0.0,0.0,0.0,0.0,0.0,0.0,0.0,4.8292,4.826,4.8452,4.8179,4.8001,4.8001,4.8001,4.8001,4.8001,4.8001,4.8001,4.8001,4.8001,4.8001,4.8001,4.8001,4.8001,4.805,4.9458,5.0137,5.0286,5.1661,5.2343,5.2409,5.2409,5.2409,5.2409,5.2409,5.2409,5.2409,5.2409,5.2409,5.2409,0.0,0.0,0.0,0.0,0.0,0.0,0.0,0.0,0.0,0.0,0.0,0.0,0.0,0.0,0.0,0.0,0.0,4.3169,4.2787,4.2787,4.2538,4.1981,4.2365,4.2396,4.1981,4.2396,0.0,0.0,0.0,0.0,0.0,0.0,0.0,0.0,0.0,0.0,0.0,0.0,0.0,4.1588,4.1588,0.0,4.1588,4.1555,4.1555,4.1555,4.1555,4.1522,4.1472,0.0,4.1052,4.0851,0.0,0.0,0.0,0.0,0.0,0.0,0.0,0.0,0.0,0.0,0.0,0.0,4.2188,4.2831,4.3475,0.0,0.0,0.0,0.0,0.0,0.0,0.0,0.0,0.0,0.0,0.0,0.0,0.0,0.0,0.0,0.0,4.8115,4.8082,4.826,4.8082,4.8001,4.8001,4.8001,4.8001,4.8001,4.8001,4.8001,4.8001,4.8001,4.8001,4.8001,4.8001,4.8001,4.8034,4.8912,4.9657,5.027,5.1115,5.1862,5.2409,5.2409,5.2409,5.2409,5.2409,5.2409,5.2409,5.2409,5.2409,5.2409,0.0,0.0,0.0,0.0,0.0,0.0,0.0,0.0,0.0,0.0,0.0,0.0,0.0,0.0,0.0,0.0,0.0,0.0,0.0,0.0,0.0,4.1621,4.1932,4.1932,4.1621,4.1932,4.1932,0.0,0.0,0.0,0.0,0.0,0.0,0.0,0.0,0.0,0.0,0.0,4.1588,4.1588,4.1588,0.0,4.1588,4.1588,4.1588,4.1588,4.1588,4.1588,4.1522,4.112,4.095,0.0,0.0,4.0489,4.0524,0.0,4.0662,4.0696,0.0,0.0,0.0,4.1153,0.0,0.0,0.0,4.2055,4.2602,0.0,0.0,0.0,0.0,0.0,0.0,0.0,0.0,0.0,0.0,0.0,0.0,0.0,0.0,0.0,0.0,4.8033,4.8033,4.8082,4.8033,4.8001,4.8001,4.8001,4.8001,4.8001,4.8001,4.8001,4.8001,4.8001,4.8001,4.8001,4.8001,4.8001,4.8034,4.8763,4.9508,5.0253,5.0966,5.173,5.2409,5.2409,5.2409,5.2409,5.2409,5.2409,5.2409,5.2409,5.2409,5.2409,4.4474,0.0,0.0,0.0,0.0,0.0,0.0,0.0,0.0,0.0,0.0,0.0,0.0,0.0,0.0,0.0,0.0,0.0,0.0,0.0,0.0,0.0,4.1588,4.1588,4.1588,4.1588,4.1588,0.0,0.0,0.0,0.0,0.0,0.0,0.0,0.0,0.0,0.0,0.0,0.0,4.1588,0.0,4.1588,4.1588,4.1588,4.1588,4.1588,4.1588,4.1588,4.1472,4.1143,0.0,4.1184,4.0963,4.0812,0.0,0.0,0.0,0.0,0.0,0.0,0.0,0.0,0.0,4.129,0.0,0.0,0.0,4.2714,0.0,0.0,0.0,0.0,0.0,0.0,0.0,0.0,0.0,0.0,0.0,0.0,0.0,0.0,0.0,4.7918,4.8001,4.8001,4.8001,4.8001,4.8001,4.8001,4.8001,4.8001,4.8001,4.8001,4.8001,4.8001,4.8001,4.8001,4.8001,4.8001,4.8034,4.8547,4.9258,5.0134,5.0696,5.1456,5.2302,5.2373,5.2338,5.2302,5.2373,5.2409,5.2409,5.2409,5.2409,5.2409,4.4333,4.4541,0.0,0.0,0.0,0.0,0.0,0.0,0.0,0.0,0.0,0.0,0.0,0.0,0.0,0.0,0.0,0.0,4.1588,0.0,0.0,0.0,0.0,0.0,4.1588,4.1588,4.1588,4.1588,0.0,0.0,0.0,0.0,0.0,0.0,4.1588,0.0,0.0,0.0,4.1588,0.0,4.1588,4.1588,0.0,4.1588,4.1588,4.1588,4.1588,4.1489,4.1384,0.0,4.1837,4.1821,0.0,4.1955,0.0,0.0,0.0,0.0,0.0,0.0,0.0,0.0,4.1117,0.0,0.0,0.0,4.1637,4.1765,0.0,0.0,0.0,0.0,0.0,0.0,0.0,0.0,0.0,0.0,0.0,0.0,0.0,0.0,0.0,0.0,4.8001,4.8001,4.8001,4.8001,4.8001,4.8001,4.8001,4.8001,4.8001,4.8001,4.8001,4.8001,4.8001,4.8001,4.8001,4.8001,4.8001,4.772,4.8357,4.967,4.9752,5.0572,5.1904,5.2266,5.2194,5.1888,5.2266,5.2409,5.2409,5.2409,5.2409,5.2409,4.3972,4.3545,0.0,0.0,0.0,0.0,0.0,0.0,0.0,0.0,0.0,0.0,0.0,0.0,0.0,0.0,0.0,4.1588,0.0,0.0,0.0,0.0,0.0,0.0,0.0,4.1588,4.1588,4.1588,4.1588,0.0,0.0,0.0,0.0,0.0,4.1588,0.0,4.1588,0.0,0.0,0.0,0.0,0.0,0.0,4.1588,4.1588,4.1652,4.2062,4.2187,4.2196,0.0,4.2712,0.0,0.0,0.0,0.0,0.0,0.0,0.0,0.0,0.0,0.0,0.0,0.0,0.0,0.0,0.0,4.1588,0.0,0.0,0.0,0.0,0.0,0.0,0.0,0.0,0.0,0.0,0.0,0.0,0.0,0.0,0.0,0.0,0.0,0.0,0.0,0.0,4.8001,4.8001,4.8001,4.8001,4.8001,4.8001,4.7886,4.7671,4.7886,4.7886,4.7671,4.7671,4.7671,4.7638,4.7286,4.7686,4.8714,4.9349,5.0066,5.0864,5.1707,5.1798,5.145,5.1888,5.2033,5.2086,5.2302,5.2409,5.2409,4.3684,0.0,0.0,0.0,0.0,0.0,0.0,0.0,0.0,0.0,0.0,0.0,4.1621,4.1588,0.0,0.0,0.0,4.1588,0.0,0.0,4.1588,0.0,0.0,0.0,0.0,0.0,0.0,4.1588,0.0,0.0,0.0,0.0,0.0,0.0,0.0,4.1588,4.1588,0.0,0.0,4.1588,4.1588,4.1588,4.1588,4.1588,4.1715,4.1952,4.2505,4.2805,4.304,4.3528,4.3572,0.0,4.3696,0.0,0.0,0.0,0.0,0.0,4.271,0.0,0.0,0.0,0.0,0.0,0.0,0.0,0.0,0.0,0.0,0.0,0.0,0.0,0.0,0.0,0.0,0.0,0.0,0.0,0.0,0.0,0.0,0.0,0.0,0.0,0.0,0.0,4.7391,4.754,4.7803,4.7754,4.7787,4.8001,4.7787,4.7605,4.7404,4.7704,4.7638,4.727,4.7337,4.7337,4.7252,4.6911,4.7211,4.8029,4.8901,4.9599,5.0168,5.1194,5.1413,5.1156,5.1614,5.1741,5.1688,5.2178,5.2338,5.2266,4.3522,4.3667,0.0,0.0,0.0,0.0,0.0,0.0,0.0,0.0,0.0,0.0,0.0,0.0,0.0,0.0,0.0,4.1588,4.1588,0.0,4.1588,0.0,0.0,0.0,0.0,0.0,0.0,0.0,0.0,0.0,0.0,0.0,0.0,0.0,0.0,4.1588,4.1588,4.1588,4.1588,4.1588,4.1588,4.1588,4.1588,0.0,4.2031,4.2663,4.2679,0.0,0.0,4.4201,4.4349,0.0,0.0,0.0,0.0,0.0,0.0,0.0,0.0,0.0,0.0,4.2777,0.0,0.0,0.0,0.0,4.2171,0.0,0.0,0.0,0.0,0.0,0.0,0.0,0.0,0.0,0.0,0.0,0.0,0.0,0.0,0.0,0.0,0.0,0.0,4.5825,4.5874,4.6334,4.7372,4.7116,4.7268,4.7968,4.7302,4.7082,4.7404,4.7404,4.7252,4.6911,4.7236,4.7252,4.6911,4.6512,4.6898,4.7923,4.8361,4.9121,5.0147,5.0827,5.1118,5.1156,5.1614,5.1524,5.1231,5.2069,5.2158,5.1851,0.0,0.0,0.0,0.0,0.0,0.0,0.0,4.282,0.0,0.0,0.0,0.0,0.0,0.0,4.1851,0.0,0.0,4.1588,4.1588,4.1588,0.0,0.0,0.0,4.1588,0.0,0.0,0.0,0.0,0.0,0.0,0.0,0.0,0.0,0.0,0.0,4.1588,0.0,0.0,0.0,0.0,0.0,4.1873,4.2315,0.0,0.0,4.2805,4.3706,4.418,0.0,4.5119,4.5263,4.5185,4.551,4.5248,4.4876,4.5023,4.4815,0.0,0.0,0.0,4.4445,4.3686,0.0,0.0,0.0,0.0,0.0,0.0,0.0,0.0,0.0,0.0,0.0,0.0,0.0,0.0,0.0,0.0,0.0,0.0,0.0,0.0,0.0,0.0,0.0,4.508,4.5532,4.5972,4.6317,4.6686,4.7014,4.7268,4.703,4.6842,4.6671,4.6945,4.6876,4.6512,4.6617,4.6601,4.6477,4.612,4.6171,4.6602,4.7928,4.8568,4.8775,5.0121,5.0563,5.0331,5.0755,5.0832,5.0816,5.1688,5.1924,5.1851,4.3598,0.0,0.0,0.0,0.0,0.0,0.0,0.0,0.0,0.0,4.2772,0.0,4.2317,0.0,4.2013,0.0,4.1687,4.1588,4.1588,4.1588,0.0,4.1588,4.1588,0.0,0.0,0.0,0.0,0.0,0.0,4.1588,0.0,0.0,0.0,0.0,0.0,0.0,0.0,0.0,4.1588,0.0,0.0,4.2031,0.0,0.0,4.3184,4.3516,0.0,4.4875,4.5175,4.5649,4.5698,4.5625,4.5771,4.5625,4.5442,4.5552,4.5515,4.5405,4.5331,4.5405,0.0,4.4563,4.4533,0.0,4.3407,0.0,0.0,0.0,0.0,0.0,0.0,0.0,0.0,0.0,0.0,0.0,0.0,4.1588,0.0,0.0,0.0,0.0,0.0,0.0,4.3266,4.4005,4.4438,4.4987,0.0,0.0,4.6376,4.6876,4.6649,4.6423,4.6285,4.6547,4.6493,4.6104,4.623,4.623,4.6104,4.59,4.588,4.6056,4.7325,4.7978,4.8146,4.9426,4.9992,5.0152,5.0409,5.0525,5.0602,5.1466,5.1778,5.1778,0.0,0.0,0.0,0.0,4.3598,0.0,0.0,0.0,4.3492,0.0,4.3113,4.3005,4.2648,4.2349,4.2142,4.2109,4.1818,0.0,4.1588,4.1588,0.0,0.0,4.1588,4.1588,4.1588,0.0,0.0,0.0,0.0,0.0,0.0,0.0,0.0,0.0,4.1555,0.0,4.1588,4.1555,4.1588,4.1588,4.1636,4.2078,4.2805,4.3503,4.4164,4.4764,4.4764,4.5207,4.5807,4.5807,4.5807,4.5807,4.5807,4.5807,4.5807,4.5807,4.5807,4.5771,4.5552,4.5515,4.5478,4.5257,0.0,0.0,0.0,0.0,4.392,0.0,0.0,0.0,0.0,0.0,0.0,0.0,0.0,0.0,0.0,0.0,0.0,0.0,0.0,0.0,0.0,4.1588,4.1873,4.2584,4.2679,4.345,0.0,0.0,4.5352,4.6791,4.6187,4.5956,4.6266,4.6301,4.612,4.5807,4.6104,4.6104,4.5807,4.5807,4.5956,4.6298,4.6634,4.7384,4.8398,4.8758,4.9517,5.0486,5.0486,5.0486,5.0602,5.1429,5.1741,5.1614,4.3598,4.3598,4.3598,0.0,4.3598,4.3598,0.0,0.0,0.0,0.0,4.3462,4.3325,4.3005,4.2881,4.2633,4.2142,4.2013,0.0,0.0,0.0,0.0,4.1588,4.1588,4.1588,4.1588,4.1588,0.0,4.1588,0.0,0.0,4.1588,0.0,0.0,0.0,0.0,0.0,4.1555,4.1156,4.1223,4.1636,4.2189,4.2821,0.0,0.0,4.4891,4.5523,4.5523,4.5649,4.5807,4.5807,4.5807,4.5807,4.5807,4.5807,4.5807,4.5807,4.5807,4.5771,4.5735,4.5735,4.5662,4.5478,4.5442,4.5321,0.0,0.0,0.0,0.0,0.0,0.0,0.0,0.0,0.0,0.0,0.0,0.0,0.0,0.0,0.0,4.1588,0.0,0.0,0.0,4.1588,4.1667,4.1857,4.2378,4.3108,0.0,0.0,0.0,4.6048,4.5916,4.5844,4.5936,4.5936,4.59,4.5807,4.59,4.5864,4.5807,4.5807,4.5844,4.5968,4.6539,4.7251,4.8092,4.8643,4.9377,5.0073,5.0073,5.0253,5.0525,5.0755,5.0832,5.0908,4.3598,0.0,0.0,4.3598,0.0,0.0,4.3598,0.0,0.0,4.3598,4.3598,0.0,4.3342,4.3204,4.2881,4.2349,4.219,0.0,0.0,0.0,0.0,4.1588,4.1588,4.1588,4.1588,4.1588,0.0,4.1588,0.0,0.0,4.1588,0.0,0.0,0.0,0.0,4.0734,0.0,4.1189,4.1362,4.176,4.2437,0.0,0.0,4.4575,4.5175,4.5807,4.5807,4.5807,4.5807,4.5807,4.5807,4.5807,4.5807,4.5807,4.5807,4.5807,4.5807,4.5807,4.5807,4.5807,4.5771,4.5662,4.5625,4.5589,4.5368,4.5034,4.4752,0.0,0.0,0.0,0.0,0.0,0.0,0.0,0.0,0.0,0.0,0.0,0.0,0.0,0.0,0.0,0.0,4.1588,4.1588,4.1588,4.1968,4.2521,0.0,0.0,0.0,4.5302,4.5649,4.5807,4.5807,4.5807,4.5807,4.5807,4.5807,4.5807,4.5807,4.5807,4.5807,4.5823,4.6202,4.6945,4.7925,4.8304,4.9031,4.9876,4.9582,4.9765,5.0214,4.9908,5.012,5.0563,0.0,0.0,0.0,0.0,0.0,0.0,0.0,4.3598,0.0,4.3598,0.0,4.3598,4.3598,4.3325,4.3005,4.2648,0.0,4.1997,4.1621,4.1588,4.1588,4.1588,4.1588,4.1588,4.1588,4.1588,0.0,0.0,0.0,0.0,0.0,0.0,0.0,0.0,0.0,0.0,0.0,4.129,4.1682,0.0,4.2588,4.3579,4.4717,4.4828,4.5254,4.5807,4.5807,4.5807,4.5807,4.5807,4.5807,4.5807,4.5807,4.5807,4.5807,4.5807,4.5807,4.5807,4.5807,4.5807,4.5807,4.5807,4.5807,4.5735,4.5589,4.5552,4.5552,4.5552,4.4935,4.4481,0.0,0.0,0.0,0.0,0.0,0.0,0.0,0.0,0.0,0.0,0.0,0.0,0.0,0.0,4.1522,4.1588,4.1522,4.1854,0.0,0.0,0.0,4.4685,4.5428,0.0,4.5807,0.0,4.5807,4.5807,4.5807,4.5807,4.5807,4.5807,4.5807,4.5807,4.5807,4.6613,4.7893,4.7893,4.866,4.9701,4.9147,4.9188,4.9582,4.8984,4.9374,5.0159,0.0,0.0,0.0,0.0,0.0,4.3598,4.3598,4.3598,4.3598,4.3598,4.3598,4.3598,4.3598,4.3568,4.3265,4.2648,4.2554,0.0,0.0,0.0,0.0,4.1588,4.1588,4.1588,4.1588,4.1588,4.1588,0.0,0.0,0.0,0.0,0.0,0.0,0.0,0.0,0.0,4.0799,4.0901,0.0,4.259,4.3245,4.399,4.478,4.5396,4.5697,4.5807,4.5807,4.5807,4.5807,4.5807,4.5807,4.5807,4.5807,4.5807,4.5807,4.5807,4.5807,4.5807,4.5807,4.5807,4.5807,4.5807,4.5807,4.5771,4.5771,4.5735,4.5735,4.5735,4.564,4.5336,4.4792,0.0,0.0,0.0,0.0,0.0,0.0,0.0,0.0,0.0,0.0,0.0,0.0,0.0,0.0,0.0,0.0,0.0,0.0,0.0,0.0,0.0,4.5428,0.0,0.0,0.0,4.5807,4.5807,4.5807,4.5807,4.5807,4.5807,4.5807,4.5807,4.5807,4.6613,4.7893,4.7893,4.8357,4.905,4.8928,4.8641,4.824,4.8115,4.8198,4.8558,0.0,0.0,0.0,0.0,0.0,0.0,0.0,4.3598,0.0,4.3598,4.3598,4.3598,4.3598,4.3598,4.3342,4.2648,4.2617,4.2301,4.1654,4.1588,4.1588,4.1588,4.1588,0.0,4.1588,4.1588,4.1588,4.1588,0.0,0.0,0.0,0.0,0.0,0.0,0.0,3.992,0.0,0.0,0.0,4.2883,4.3838,4.4638,4.5317,4.5665,4.5807,4.5807,4.5807,4.5807,4.5807,4.5807,4.5807,4.5807,4.5807,4.5807,4.5807,4.5807,4.5807,4.5807,4.5807,4.5807,4.5807,4.5807,4.5807,4.5807,4.5807,4.5807,4.5807,4.5807,4.5807,4.5586,4.4843,4.411,0.0,0.0,0.0,0.0,0.0,0.0,0.0,0.0,0.0,0.0,0.0,0.0,0.0,0.0,0.0,0.0,0.0,0.0,0.0,0.0,0.0,0.0,0.0,0.0,0.0,4.5807,4.5807,4.5807,4.5807,4.5807,4.5807,4.5807,4.5807,4.6613,4.7918,4.8286,4.8611,4.8846,4.8115,4.7861,4.7861,4.7493,4.7621,4.8072,0.0,4.3598,0.0,0.0,4.3598,0.0,4.3598,4.3598,4.3598,4.3598,4.3598,4.3598,4.3598,4.3598,4.3342,4.2664,4.2585,4.2301,4.1654,4.1588,4.1588,4.1588,4.1588,4.1588,4.1588,4.1588,4.1588,0.0,0.0,0.0,0.0,0.0,0.0,0.0,0.0,0.0,0.0,0.0,4.2723,4.3164,4.4141,4.4856,4.5389,4.5389,4.5389,4.541,4.5536,4.5609,4.5609,4.5771,4.5807,4.5807,4.5807,4.5807,4.5807,4.5807,4.5807,4.5807,4.5807,4.5807,4.5807,4.5807,4.5807,4.5807,4.5807,4.5807,4.5807,4.5807,4.5807,4.5634,4.5049,4.4828,0.0,0.0,0.0,0.0,0.0,0.0,0.0,0.0,0.0,0.0,0.0,0.0,0.0,0.0,0.0,4.0982,4.1776,4.3026,0.0,0.0,0.0,4.5807,4.5807,0.0,4.5807,0.0,4.5807,4.5807,4.5807,4.5807,4.5807,4.5807,4.5807,4.6523,4.7689,4.8286,4.8476,4.835,4.7336,4.7119,4.7407,4.6873,4.7032,4.7606,0.0,0.0,0.0,0.0,0.0,0.0,0.0,4.3598,4.3598,4.3598,4.3598,4.3598,4.3598,4.3598,4.3342,4.2649,4.2601,4.2301,4.1654,4.1588,4.1588,4.1588,4.1588,4.1588,4.1588,4.1588,4.1588,0.0,0.0,0.0,0.0,0.0,0.0,0.0,0.0,0.0,0.0,4.1779,4.257,4.3722,4.3857,4.3941,4.4082,4.4082,4.4082,4.4159,4.4715,4.4902,4.4977,4.5609,4.5807,4.5807,4.5807,4.5807,4.5807,4.5807,4.5807,4.5807,4.5807,4.5807,4.5807,4.5807,4.5807,4.5807,4.5807,4.5807,4.5807,4.5807,4.5807,4.5792,4.5713,4.5159,4.4685,0.0,0.0,0.0,0.0,0.0,0.0,0.0,0.0,0.0,0.0,4.2128,0.0,0.0,4.0659,4.0739,4.2503,4.3311,4.3687,4.3687,0.0,4.5807,4.5807,4.5807,4.5807,4.5807,4.5807,4.5807,4.5807,4.5807,4.5807,4.5807,4.5807,4.6216,4.6919,4.7114,4.712,4.7076,4.696,4.658,4.6105,4.6015,4.6015,4.6269,0.0,0.0,0.0,0.0,0.0,0.0,0.0,4.3598,4.3598,4.3598,4.3598,4.3598,4.3598,4.3598,4.3342,4.2664,4.2601,4.2301,4.1654,4.1588,4.1588,4.1588,4.1588,4.1588,4.1588,4.129,4.1122,0.0,0.0,0.0,0.0,0.0,0.0,0.0,0.0,4.102,4.1878,4.227,4.2775,4.331,4.3708,4.3892,4.3888,4.3888,4.3888,4.3927,4.4182,4.4259,4.4297,4.4594,4.5188,4.5807,4.5807,4.5807,4.5886,4.6281,4.6408,4.6503,4.6945,4.7071,4.7071,4.7071,4.674,4.6408,4.6408,4.6092,4.5807,4.5807,4.5807,4.5807,4.5807,4.557,4.5365,0.0,0.0,0.0,0.0,0.0,0.0,0.0,0.0,0.0,0.0,0.0,0.0,0.0,0.0,0.0,4.2673,4.3415,4.3932,4.4287,0.0,4.5807,4.5807,4.5807,4.5807,4.5807,4.5807,4.5807,4.5807,4.5807,4.5807,4.5787,4.5849,4.6197,4.6786,4.6463,4.6565,4.6873,4.6447,4.615,4.588,4.588,4.588,4.609,4.3325,0.0,4.3539,0.0,4.3462,4.3598,4.3598,4.3432,4.3372,4.3568,4.3432,4.3372,4.3598,4.3492,4.3204,4.2664,4.2507,4.2222,4.1654,4.1588,4.1522,4.1357,4.1357,0.0,4.1091,4.0734,4.0528,4.0528,3.9934,0.0,0.0,0.0,0.0,0.0,4.1152,4.1479,4.1965,4.2599,4.2894,4.2952,4.3419,4.3536,4.3354,4.3354,4.3354,4.3394,4.3576,4.3654,4.3654,4.3849,4.4518,4.5262,4.5447,4.5662,4.5966,4.6624,4.6945,4.7245,4.7767,4.7893,4.7893,4.7893,4.7514,4.7119,4.7119,4.6597,4.6044,4.5855,4.5807,4.5807,4.5807,4.5807,4.5807,4.5807,0.0,0.0,0.0,0.0,0.0,0.0,0.0,4.4216,4.4059,0.0,0.0,0.0,0.0,0.0,0.0,4.3718,0.0,0.0,0.0,0.0,0.0,4.5807,4.5807,4.5807,4.5807,4.5807,4.5771,4.5609,4.552,4.5478,4.5179,4.5507,4.6198,4.578,4.6129,4.6829,4.6358,4.6194,4.6194,4.597,4.588,4.609,4.2741,4.3143,4.3402,4.271,4.3174,4.3598,4.3598,4.3035,4.2851,4.3492,4.3005,4.2865,4.3539,4.3295,4.2959,4.2634,4.2302,4.1948,4.1621,4.1588,4.1357,0.0,0.0,4.0528,3.9925,3.9925,3.9889,3.9889,0.0,0.0,4.0025,0.0,4.1073,4.1111,4.1633,4.1919,4.204,4.2658,4.2934,4.3021,4.3021,4.2648,4.2133,4.2133,4.2133,4.2216,4.2809,4.3036,4.3101,4.3693,4.3927,4.4043,4.4624,4.5308,4.6034,4.6601,4.7324,4.7893,4.7893,4.7893,4.7893,4.7893,4.7893,4.7893,4.7893,4.7324,4.6597,4.595,4.5807,4.5807,4.5807,4.5807,4.5807,4.5807,0.0,0.0,0.0,0.0,0.0,0.0,4.5379,4.5489,4.4834,0.0,0.0,0.0,0.0,0.0,0.0,0.0,0.0,4.4717,4.5428,0.0,4.5807,4.5807,4.5807,4.5807,4.5807,4.5807,4.5771,4.5104,4.4812,4.4737,4.356,4.3764,4.4926,4.4983,4.5771,4.6916,4.6873,4.6873,4.68,4.615,4.588,4.609,4.1981,4.2013,4.2253,4.2554,4.2349,4.2349,4.2834,4.2317,4.1917,4.2142,4.1981,4.1917,4.2158,4.2741,4.299,0.0,4.2285,4.1948,0.0,4.1256,4.1156,4.1384,4.108,4.0974,4.1198,4.0845,4.0659,4.0659,0.0,0.0,0.0,4.074,4.1288,4.1703,4.1844,4.2201,4.2684,4.2434,4.2364,4.2392,4.2392,4.2284,4.2092,4.2092,4.2092,4.2133,4.2325,4.2392,4.2433,4.2596,4.2942,4.3404,4.3998,4.4652,4.5428,4.653,4.704,4.7317,4.7794,4.7917,4.7917,4.7917,4.7563,4.7346,4.7815,4.7336,4.674,4.6534,4.6123,4.5807,4.5807,4.5807,4.5807,4.5807,4.5807,0.0,0.0,0.0,0.0,0.0,0.0,4.5735,0.0,4.5484,0.0,0.0,0.0,0.0,0.0,0.0,0.0,0.0,4.5697,0.0,4.5807,4.5807,4.5807,4.5807,4.5807,4.5807,4.5771,4.5104,4.4812,4.4774,4.395,4.4097,4.4941,4.5408,4.6101,4.6945,4.7398,4.7578,4.7493,4.6829,4.6873,4.7278,4.126,4.1327,4.1558,4.1754,4.1624,4.1656,4.2126,4.1591,4.1194,4.1459,4.1294,4.1194,4.1377,4.2107,0.0,4.1933,4.1745,4.1549,4.1361,4.1229,4.1255,4.1437,4.1118,4.1018,4.1158,0.0,0.0,4.065,4.0548,4.0821,4.1514,4.1685,4.1986,4.2372,4.2332,4.245,4.2662,4.2242,4.2092,4.2092,4.2092,4.2092,4.2092,4.2092,4.2092,4.2092,4.2092,4.2092,4.2092,4.2092,4.2498,4.312,4.3732,4.4371,4.517,4.6494,4.725,4.7747,4.816,4.8449,4.8656,4.8656,4.8348,4.8044,4.8253,4.7736,4.7135,4.685,4.6281,4.5807,4.5807,4.5807,4.5807,4.5807,4.5807,4.5807,4.5807,0.0,0.0,0.0,0.0,0.0,0.0,4.5646,0.0,0.0,0.0,0.0,0.0,0.0,0.0,4.5771,4.5807,0.0,4.5807,4.5807,4.5807,4.5807,4.5807,4.5807,4.5771,4.488,4.4601,4.4737,4.3912,4.4071,4.4944,4.5608,4.6293,4.688,4.7308,4.7352,4.7107,4.6672,4.6617,4.6804,4.0547,4.094,0.0,0.0,4.0974,0.0,4.1426,4.0873,4.065,4.126,4.0851,4.0643,4.1091,4.1422,4.1383,4.0739,0.0,0.0,0.0,4.1427,4.1543,4.1056,4.1033,4.0777,4.0234,4.0234,4.0234,4.0234,4.0858,4.2044,4.3771,4.318,4.2955,4.2955,4.2955,4.2622,4.2092,4.2092,4.2092,4.2092,4.2092,4.2092,4.2092,4.2092,4.2092,4.2092,4.2092,4.2092,4.2107,4.215,4.2571,4.3181,4.3848,4.4472,4.5201,4.6476,4.7694,4.8682,4.8682,4.9163,4.9622,4.9622,4.9677,4.9623,4.9016,4.8408,4.7767,4.7024,4.6345,4.5871,4.5823,4.5807,4.5807,4.5807,4.5807,4.5807,4.5807,0.0,0.0,0.0,0.0,0.0,0.0,4.5395,4.5735,0.0,0.0,0.0,0.0,0.0,4.5104,4.5771,4.5807,4.5807,4.5807,4.5771,4.5735,4.5735,4.5771,4.5807,4.5771,4.4503,4.4259,4.4737,4.36,4.3803,4.4932,4.5658,4.6276,4.6819,4.6865,4.6542,4.6032,4.5978,4.5605,4.5375,0.0,0.0,4.0005,4.0409,4.0181,4.0076,4.065,4.0111,3.9717,3.9879,4.0082,4.0231,4.0362,4.0547,4.0647,4.0484,4.1145,4.1585,4.1585,4.1325,4.1335,4.167,4.1282,4.1266,4.1613,4.1628,4.1628,4.1628,4.1787,4.2097,4.2514,4.2392,4.2325,4.2325,4.2325,4.2242,4.2092,4.2092,4.2092,4.2092,4.2092,4.2092,4.2092,4.2092,4.2092,4.2092,4.2092,4.2092,4.2165,4.2629,4.321,4.3863,4.4487,4.5126,4.5738,4.6035,4.6344,4.6594,4.6594,4.6726,4.6858,4.6858,4.7606,4.8444,4.8823,4.8773,4.8462,4.7782,4.7071,4.6408,4.5902,4.5807,4.5807,4.5807,4.5807,4.5807,4.5807,4.5807,0.0,0.0,4.5682,4.5735,4.5557,4.5231,4.503,0.0,0.0,0.0,0.0,4.4902,4.5104,4.5771,4.5807,4.5807,4.5807,4.5268,4.503,4.5052,4.5573,4.5807,4.5771,4.4955,4.4662,4.4774,4.451,4.4526,4.4917,4.6119,4.6658,4.6862,4.7413,4.7556,4.7379,4.6806,4.6828,4.719,3.9481,3.9388,3.9517,3.9915,3.9661,3.9517,3.995,3.9574,3.9369,3.9682,3.9854,4.003,4.0212,4.0622,4.0806,4.0727,4.117,4.1481,4.1481,4.1504,4.1645,4.1997,4.1703,4.1729,4.2092,4.2092,4.2092,4.2092,4.2092,4.2092,4.2092,4.2092,4.2092,4.2092,4.2092,4.2092,4.2092,4.2092,4.2092,4.2092,4.2092,4.2092,4.2092,4.2092,4.2092,4.2092,4.2092,4.2281,4.2557,4.2876,4.3616,4.4458,4.4792,4.5343,4.588,4.588,4.6105,4.6358,4.6358,4.6565,4.6814,4.6814,4.7364,4.7988,4.835,4.8213,4.7869,4.7473,4.6616,4.5893,4.5824,4.5557,4.5431,4.5771,4.5807,4.5807,4.5807,4.5807,0.0,4.5395,4.5342,4.5247,4.4949,4.4827,4.4812,4.4812,0.0,0.0,4.4812,4.5104,4.5431,4.5771,4.5807,4.5807,4.5807,4.5447,4.5104,4.4812,4.5179,4.5484,4.5771,4.4805,4.4715,4.5231,4.494,4.4977,4.53,4.6024,4.6345,4.6392,4.6787,4.6727,4.6463,4.6377,4.6423,4.6571,3.9388,3.9388,3.9388,3.9388,3.9373,3.9382,3.9486,3.9341,3.9417,4.0099,4.0111,4.0185,4.052,4.1138,4.1426,4.125,4.125,4.125,4.125,4.1787,4.2092,4.2092,4.2092,4.2092,4.2092,4.2092,4.2092,4.2092,4.2092,4.2092,4.2092,4.2092,4.2092,4.2092,4.2092,4.2092,4.2092,4.2092,4.2092,4.2092,4.2092,4.2092,4.2092,4.2092,4.2092,4.2092,4.2092,4.2426,4.2876,4.2963,4.3703,4.4618,4.4719,4.514,4.559,4.559,4.6035,4.649,4.6697,4.7163,4.7606,4.7734,4.7749,4.7792,4.7861,4.7463,4.7006,4.6839,4.5883,4.5192,4.573,4.5194,4.4865,4.552,4.5573,4.5499,4.5499,0.0,4.5284,4.4752,4.4662,4.4472,4.3966,4.4358,4.4624,4.4548,4.512,4.5247,0.0,4.5284,4.5698,4.5807,4.5807,4.5698,4.5536,4.5609,4.5284,4.4548,4.4699,4.5104,4.5609,4.4541,4.467,4.5771,4.5194,4.5268,4.5807,4.5807,4.5807,4.5807,4.5807,4.5431,4.5017,4.5585,4.5496,4.5222,3.9388,3.9388,3.9388,3.9388,3.9265,3.9349,3.9914,3.9802,3.9911,4.0536,4.0901,4.1178,4.1226,4.1703,4.1988,4.1947,4.1932,4.1932,4.1932,4.2034,4.2092,4.2092,4.2092,4.2092,4.2092,4.2092,4.2092,4.2092,4.2092,4.2092,4.2092,4.2092,4.2092,4.2092,4.2092,4.2092,4.2092,4.2092,4.2092,4.2092,4.2092,4.2092,4.2092,4.2092,4.2092,4.2092,4.2092,4.215,4.231,4.2818,4.3123,4.3384,4.395,4.4197,4.4284,4.4284,4.4371,4.469,4.5769,4.615,4.6358,4.6916,4.7047,4.7206,4.7776,4.7828,4.757,4.6947,4.6251,4.5758,4.5772,4.4821,4.4259,4.4865,4.4541,4.4197,4.4197,0.0,4.4159,4.4028,4.4028,4.3989,4.3927,4.3989,4.3834,4.3339,4.3849,4.4159,4.4043,4.4639,4.5216,4.5771,4.5807,4.5262,4.4197,4.4715,4.4396,4.3299,4.432,4.4849,4.494,4.4737,4.5083,4.5771,4.5682,4.5682,4.5807,4.5807,4.5807,4.5807,4.5807,4.5735,4.5662,4.5772,4.573,4.5751,3.9388,3.9388,3.9373,3.9265,3.9453,3.9721,3.992,4.0056,4.0343,4.0979,4.1157,4.1372,4.1721,4.1959,4.2092,4.2092,4.2092,4.2092,4.2092,4.2092,4.2092,4.2092,4.2092,4.2092,4.2092,4.2092,4.2092,4.2092,4.2092,4.2092,4.2092,4.2092,4.2092,4.2092,4.2092,4.2092,4.2092,4.2092,4.2092,4.2092,4.2092,4.2092,4.2092,4.2092,4.2092,4.2092,4.2092,4.231,4.2629,4.2905,4.3239,4.3587,4.3892,4.3993,4.3993,4.3993,4.3993,4.4197,4.5097,4.5343,4.552,4.6181,4.6358,4.6344,4.6311,4.6266,4.6109,4.5384,4.4762,4.4436,4.4741,4.4043,4.36,4.422,4.4066,0.0,0.0,4.3888,4.3771,4.3457,4.3418,4.3314,4.297,4.3235,4.3299,4.3021,4.3576,4.3888,4.3888,4.4472,4.479,4.4799,4.5083,4.4655,4.3418,4.432,4.4205,4.3021,4.4205,4.4812,4.4812,4.4812,4.5157,4.5807,4.5807,4.5807,4.5807,4.5807,4.5807,4.5807,4.5807,4.5807,4.5807,4.5807,4.5807,4.5855,3.9388,3.9388,3.9397,3.9349,3.9736,4.0068,4.0174,4.0383,4.0781,4.1452,4.1418,4.1526,4.2034,4.2092,4.2092,4.2092,4.2092,4.2092,4.2092,4.2092,4.2092,4.2092,4.2092,4.2092,4.2092,4.2092,4.2092,4.2092,4.2092,4.2092,4.2092,4.2092,4.2092,4.2092,4.2092,4.2092,4.2092,4.2092,4.2092,4.2092,4.2092,4.2092,4.2092,4.2092,4.2092,4.2092,4.2092,4.2397,4.2774,4.2774,4.3123,4.3544,4.3544,4.3544,4.3544,4.3544,4.3544,4.3718,4.4472,4.4676,4.4806,4.5314,4.5445,4.53,4.4792,4.4676,4.453,4.4033,4.3439,4.3192,4.3775,4.3314,4.2996,4.3576,0.0,0.0,0.0,4.3457,4.3314,4.285,4.2809,4.2622,4.2133,4.2662,4.2955,4.2795,4.3339,4.3693,4.3693,4.4128,4.4167,4.3693,4.4297,4.4143,4.322,4.4128,4.4128,4.322,4.4128,4.4662,4.4812,4.4812,4.5157,4.5807,4.5807,4.5807,4.5807,4.5807,4.5807,4.5807,4.5807,4.5807,4.5807,4.5807,4.5807,4.5807,3.9388,3.9388,3.9546,3.9936,3.992,4.0135,4.1144,4.1164,4.1305,4.1974,4.202,4.2049,4.2092,4.2092,4.2092,4.2092,4.2092,4.2092,4.2092,4.2092,4.2092,4.2092,4.2092,4.2092,4.2092,4.2092,4.2092,4.2092,4.2092,4.2092,4.2092,4.2092,4.2092,4.2092,4.2092,4.2092,4.2092,4.2092,4.2092,4.2092,4.2092,4.2092,4.2092,4.2092,4.2092,4.2092,4.2092,4.2121,4.2165,4.2165,4.2194,4.2237,4.2237,4.2237,4.2237,4.2237,4.2237,4.2498,4.3718,4.4066,4.4066,4.4124,4.4139,4.4124,4.4066,4.4066,4.402,4.3945,4.3439,4.3192,4.3775,4.293,4.2351,4.2955,0.0,0.0,4.2242,4.2242,4.2216,4.2175,4.2175,4.2133,4.2092,4.2662,4.2769,4.2216,4.2729,4.3076,4.3076,4.3101,4.3101,4.3076,4.3654,4.3927,4.3849,4.3927,4.3927,4.3849,4.3927,4.4259,4.4812,4.4812,4.5157,4.5807,4.5807,4.5807,4.5807,4.5807,4.5807,4.5807,4.5807,4.5807,4.5807,4.5807,4.5807,4.5807,3.9779,3.9817,3.9951,4.0247,4.0588,4.0895,4.1153,4.1494,4.1802,4.2063,4.2092,4.2092,4.2092,4.2092,4.2092,4.2092,4.2092,4.2092,4.2092,4.2092,4.2092,4.2092,4.2092,4.2092,4.2092,4.2092,4.2092,4.2092,4.2092,4.2092,4.2092,4.2092,4.2092,4.2092,4.2092,4.2092,4.2092,4.2092,4.2092,4.2092,4.2092,4.2092,4.2092,4.2092,4.2092,4.2092,4.2092,4.2092,4.2092,4.2092,4.2092,4.2092,4.2092,4.2092,4.2092,4.2092,4.2092,4.2208,4.2687,4.3079,4.3471,4.3892,4.3993,4.3877,4.3471,4.3369,4.328,4.2889,4.2592,4.2519,4.2747,4.2407,4.2175,4.2392,0.0,4.2092,4.2092,4.2092,4.2092,4.2092,4.2092,4.2092,4.2092,4.2325,4.2366,4.2133,4.2325,4.2622,4.2996,4.2981,4.318,4.3536,4.3418,4.3155,4.2784,4.3912,4.4066,4.3339,4.4518,4.4971,4.4812,4.5231,4.5557,4.5807,4.5807,4.5807,4.5807,4.5807,4.5807,4.5807,4.5807,4.5807,4.5807,4.5807,4.5807,4.5807,4.004,4.0255,4.0482,4.0676,4.108,4.1379,4.1421,4.1802,4.2092,4.2092,4.2092,4.2092,4.2092,4.2092,4.2092,4.2092,4.2092,4.2092,4.2092,4.2092,4.2092,4.2092,4.2092,4.2092,4.2092,4.2092,4.2092,4.2092,4.2092,4.2092,4.2092,4.2092,4.2092,4.2092,4.2092,4.2092,4.2092,4.2092,4.2092,4.2092,4.2092,4.2092,4.2092,4.2092,4.2092,4.2092,4.2092,4.2092,4.2092,4.2092,4.2092,4.2092,4.2092,4.2092,4.2092,4.2092,4.2092,4.2092,4.2092,4.2397,4.2818,4.3282,4.3398,4.3282,4.2818,4.2716,4.2586,4.2179,4.2092,4.2092,4.2092,4.2092,4.2092,4.2092,4.2092,4.2092,4.2092,4.2092,4.2092,4.2092,4.2092,4.2092,4.2092,4.2092,4.2092,4.2092,4.2092,4.2284,4.2703,4.2729,4.293,4.3314,4.3115,4.2795,4.2392,4.3795,4.4205,4.36,4.488,4.5358,4.5142,4.5609,4.5807,4.5807,4.5807,4.5807,4.5807,4.5807,4.5807,4.5807,4.5807,4.5807,4.5807,4.5807,4.5807,4.5807,4.0129,4.0664,4.1163,4.1364,4.1401,4.154,4.2046,4.2092,4.2092,4.2092,4.2092,4.2092,4.2092,4.2092,4.2092,4.2092,4.2092,4.2092,4.2092,4.2092,4.2092,4.2092,4.2092,4.2092,4.2092,4.2092,4.2092,4.2092,4.2092,4.2092,4.2092,4.2092,4.2092,4.2092,4.2092,4.2092,4.2092,4.2092,4.2092,4.2092,4.2092,4.2092,4.2092,4.2092,4.2092,4.2092,4.2092,4.2092,4.2092,4.2092,4.2092,4.2092,4.2092,4.2092,4.2092,4.2092,4.2092,4.2092,4.2092,4.2092,4.2092,4.2092,4.2092,4.2092,4.2092,4.2092,4.2092,4.2092,4.2092,4.2092,4.2092,4.2092,4.2092,4.2092,4.2092,4.2092,4.2092,4.2092,4.2092,4.2092,4.2092,4.2092,4.2092,4.2092,4.2092,4.2092,4.2092,4.2092,4.2092,4.2092,4.2092,4.2092,4.2688,4.2996,4.2996,4.3615,4.422,4.4812,4.4812,4.5157,4.5807,4.5807,4.5807,4.5807,4.5807,4.5807,4.5807,4.5807,4.5807,4.5807,4.5807,4.5807,4.5807,4.5807,4.5807,4.5807,4.0915,4.1175,4.1433,4.1808,4.1884,4.1957,4.2063,4.2092,4.2092,4.2092,4.2092,4.2092,4.2092,4.2092,4.2092,4.2092,4.2092,4.2092,4.2092,4.2092,4.2092,4.2092,4.2092,4.2092,4.2092,4.2092,4.2092,4.2092,4.2092,4.2092,4.2092,4.2092,4.2092,4.2092,4.2092,4.2092,4.2092,4.2092,4.2092,4.2092,4.2092,4.2092,4.2092,4.2092,4.2092,4.2092,4.2092,4.2092,4.2092,4.2092,4.2092,4.2092,4.2092,4.2092,4.2092,4.2092,4.2092,4.2092,4.2092,4.2092,4.2092,4.2092,4.2092,4.2092,4.2092,4.2092,4.2092,4.2092,4.2092,4.2092,4.2092,4.2092,4.2092,4.2092,4.2092,4.2092,4.2092,4.2092,4.2092,4.2092,4.2092,4.2092,4.2092,4.2092,4.2092,4.2092,4.2092,4.2092,4.2092,4.2092,4.2146,4.2252,4.306,4.3542,4.3634,4.4728,4.5118,4.4812,4.5737,4.605,4.5807,4.5807,4.5807,4.5807,4.5807,4.5807,4.5807,4.5807,4.5807,4.5807,4.5807,4.5807,4.5807,4.5807,4.5807,4.5807,4.132,4.1591,4.1857,4.2061,4.2092,4.2092,4.2092,4.2092,4.2092,4.2092,4.1758,4.1535,4.1535,4.1184,4.0958,4.0958,4.0958,4.11,4.1493,4.1535,4.1675,4.2092,4.2092,4.2092,4.2092,4.2092,4.2092,4.2092,4.2092,4.2092,4.2092,4.2092,4.2092,4.2092,4.2092,4.2092,4.2092,4.2092,4.2092,4.2092,4.2092,4.2092,4.2092,4.2092,4.2092,4.2092,4.2092,4.2092,4.2092,4.2092,4.2092,4.2092,4.2092,4.2092,4.2092,4.2092,4.2092,4.2092,4.2092,4.2092,4.2092,4.2092,4.2092,4.2092,4.2092,4.2092,4.2092,4.2092,4.2092,4.2092,4.2092,4.2092,4.2092,4.2092,4.2092,4.2092,4.2092,4.2092,4.2092,4.2092,4.2092,4.2092,4.2092,4.2092,4.2009,4.1829,4.1829,4.1745,4.1578,4.1564,4.1859,4.2561,4.3121,4.3874,4.485,4.6021,4.6214,4.5534,4.6373,4.6597,4.6202,4.5934,4.5807,4.5807,4.5807,4.5807,4.5807,4.5807,4.5807,4.5807,4.5807,4.5807,4.5807,4.5807,4.5807,4.5807,4.1554,4.1956,4.2325,4.2133,4.2092,4.2051,4.1995,4.1953,4.1953,4.187,4.1029,4.0461,4.0461,3.9724,3.921,3.921,3.921,3.9593,4.0546,4.0603,4.1057,4.2051,4.2092,4.2092,4.2092,4.2092,4.2092,4.2092,4.2092,4.2092,4.2092,4.2092,4.2092,4.2092,4.2092,4.2092,4.2092,4.2092,4.2092,4.2092,4.2092,4.2092,4.2092,4.2092,4.2092,4.2092,4.2092,4.2092,4.2092,4.2092,4.2092,4.2092,4.2092,4.2092,4.2092,4.2092,4.2092,4.2092,4.2092,4.2092,4.2092,4.2092,4.2092,4.2092,4.2092,4.2092,4.2092,4.2092,4.2092,4.2092,4.2092,4.2092,4.2092,4.2092,4.2092,4.2092,4.2092,4.2092,4.2092,4.2092,4.2092,4.2092,4.2051,4.2051,4.187,4.1438,4.1396,4.1185,4.0744,4.0744,4.144,4.2877,4.3135,4.4241,4.628,4.7246,4.7376,4.6667,4.6821,4.6866,4.6771,4.6108,4.5807,4.5807,4.5807,4.5807,4.5807,4.5807,4.5807,4.5807,4.5807,4.5807,4.5807,4.5807,4.5807,4.5807,4.1896,4.2073,4.2133,4.2092,4.2092,4.1814,4.1057,4.093,4.066,3.9927,3.9651,3.9505,3.9505,3.9329,3.921,3.921,3.921,3.9593,4.0546,4.0603,4.1057,4.2051,4.2092,4.2092,4.2092,4.2092,4.2092,4.2092,4.2092,4.2092,4.2092,4.2092,4.2092,4.2092,4.2092,4.2092,4.2092,4.2092,4.2092,4.2092,4.2092,4.2092,4.2092,4.2092,4.2092,4.2092,4.2092,4.2092,4.2092,4.2092,4.2092,4.2092,4.2092,4.2092,4.2092,4.2092,4.2092,4.2092,4.2092,4.2092,4.2092,4.2092,4.2092,4.2092,4.2092,4.2092,4.2092,4.2092,4.2092,4.2092,4.2092,4.2092,4.2092,4.2092,4.2092,4.2092,4.2092,4.2092,4.2092,4.2092,4.2092,4.1968,4.1578,4.1564,4.1522,4.1396,4.1396,4.1185,4.0744,4.1151,4.1707,4.2453,4.4136,4.5422,4.6274,4.8035,4.8377,4.7294,4.7568,4.7356,4.6771,4.6108,4.5807,4.5807,4.5807,4.5807,4.5807,4.5807,4.5807,4.5807,4.5807,4.5807,4.5807,4.5807,4.5807,4.5807,4.2061,4.1717,4.1395,4.1395,4.1001,4.0546,3.9986,3.9942,3.9768,3.9241,3.881,3.8554,3.8554,3.8147,3.7874,3.7874,3.7874,3.827,3.921,3.9681,4.0346,4.1339,4.1856,4.2092,4.2092,4.2092,4.2092,4.2092,4.2092,4.2092,4.2092,4.2092,4.2092,4.2092,4.2092,4.2092,4.2092,4.2092,4.2092,4.2092,4.2092,4.2092,4.2092,4.2092,4.2092,4.2092,4.2092,4.2092,4.2092,4.2092,4.2092,4.2092,4.2092,4.2092,4.2092,4.2092,4.2092,4.2092,4.2092,4.2092,4.2092,4.2092,4.2092,4.2092,4.2092,4.2092,4.2092,4.2092,4.2092,4.2092,4.2092,4.2092,4.2092,4.2092,4.2092,4.2092,4.2092,4.2092,4.2009,4.1787,4.1787,4.1578,4.1086,4.1086,4.0958,4.0744,4.0744,4.0656,4.0454,4.0772,4.1707,4.3502,4.418,4.5463,4.7388,4.8223,4.8546,4.8357,4.8355,4.8004,4.7293,4.6597,4.6108,4.5807,4.5807,4.5807,4.5807,4.5807,4.5807,4.5807,4.5807,4.5807,4.5807,4.5807,4.5807,4.5807,4.1897,4.1156,4.0546,4.0375,3.9724,3.9166,3.8988,3.8944,3.8899,3.8765,3.8056,3.7579,3.7579,3.6862,3.6405,3.6405,3.6405,3.6815,3.7717,3.8554,3.9373,4.0332,4.117,4.1689,4.1814,4.1856,4.1912,4.2092,4.2092,4.2092,4.2092,4.2092,4.2092,4.2092,4.2092,4.2092,4.2092,4.2092,4.2092,4.2092,4.2092,4.2092,4.2092,4.2092,4.2092,4.2092,4.2092,4.2092,4.2092,4.2092,4.2092,4.2092,4.2092,4.2092,4.2092,4.2092,4.2092,4.2092,4.2092,4.2092,4.2092,4.2092,4.2051,4.1968,4.1968,4.2051,4.2092,4.2092,4.2092,4.2092,4.2092,4.2092,4.2092,4.2092,4.2092,4.2092,4.2092,4.2009,4.1829,4.1438,4.1269,4.1043,4.0744,4.0616,4.043,4.0039,3.9996,4.0052,4.0192,4.0296,4.1664,4.4527,4.4089,4.5272,4.8339,4.8183,4.849,4.9316,4.9095,4.8613,4.7877,4.7135,4.6439,4.5807,4.5807,4.5807,4.5807,4.5807,4.5807,4.5807,4.5807,4.5807,4.5807,4.5807,4.5807,4.5807,4.0972,4.0689,4.0332,3.9505,3.9285,3.8944,3.8115,3.7978,3.7717,3.6896,3.6675,3.6581,3.6581,3.6499,3.6405,3.6405,3.6405,3.6815,3.7717,3.7946,3.8419,3.9329,3.9519,3.9956,4.0788,4.0788,4.124,4.2092,4.2092,4.2092,4.2092,4.2092,4.2092,4.2092,4.2092,4.2092,4.2092,4.2092,4.2092,4.2092,4.2092,4.2092,4.2092,4.2092,4.2092,4.2092,4.2092,4.2092,4.2092,4.2092,4.2092,4.2092,4.2092,4.2092,4.2092,4.2092,4.2092,4.2092,4.2092,4.2092,4.2092,4.2092,4.1787,4.148,4.148,4.1787,4.2092,4.2092,4.2092,4.2092,4.2092,4.2092,4.2092,4.2092,4.2092,4.2092,4.2092,4.1745,4.148,4.1396,4.0702,4.03,4.0659,4.0343,4.0083,3.9996,3.9996,4.0052,4.0192,4.0703,4.1768,4.3553,4.4819,4.6093,4.7377,4.8355,4.9006,4.9316,4.9423,4.893,4.7877,4.7135,4.6439,4.5807,4.5807,4.5807,4.5807,4.5807,4.5807,4.5807,4.5807,4.5807,4.5807,4.5807,4.5807,4.5807,4.0689,3.9768,3.8899,3.8509,3.7965,3.7474,3.7083,3.7002,3.6862,3.6452,3.6405,3.6405,3.6405,3.6405,3.6405,3.6405,3.6405,3.6593,3.6989,3.7487,3.7978,3.8419,3.8899,3.9373,3.9812,4.0332,4.0831,4.1254,4.1814,4.2092,4.2092,4.2092,4.2092,4.2092,4.2092,4.2092,4.2092,4.2092,4.2092,4.2092,4.2092,4.1926,4.1704,4.1704,4.1564,4.1354,4.162,4.1885,4.2092,4.2092,4.2092,4.2092,4.2092,4.2092,4.2051,4.1787,4.1704,4.1704,4.1704,4.1704,4.1704,4.1704,4.1564,4.1311,4.1086,4.1185,4.1311,4.1311,4.1311,4.1311,4.1311,4.1311,4.1311,4.1311,4.1311,4.144,4.1782,4.1653,4.1424,4.1164,4.0247,3.9689,3.9908,3.9733,3.9601,3.9601,3.9601,3.9936,4.0662,4.0974,4.1969,4.3831,4.4574,4.5674,4.7204,4.7861,4.8547,4.9316,4.9517,4.9009,4.7893,4.7561,4.6819,4.5807,4.5807,4.5807,4.5807,4.5807,4.5807,4.5807,4.5807,4.5807,4.5807,4.5807,4.5807,4.5807]}]]